<?xml version='1.0' encoding='UTF-8'?><gpx version="1.1" creator="JPX - https://github.com/jenetics/jpx" xmlns="http://www.topografix.com/GPX/1/1"><trk><trkseg><trkpt lat="44.2811912" lon="11.1114605"><ele>200.0</ele><time>2026-04-26T07:53:31.098Z</time></trkpt><trkpt lat="44.2811278" lon="11.1115259"><ele>200.0</ele><time>2026-04-26T07:53:43.096Z</time></trkpt><trkpt lat="44.2811362" lon="11.1116241"><ele>200.0</ele><time>2026-04-26T07:53:57Z</time></trkpt><trkpt lat="44.2811283" lon="11.1117383"><ele>200.0</ele><time>2026-04-26T07:54:01.102Z</time></trkpt><trkpt lat="44.2811972" lon="11.1118134"><ele>200.0</ele><time>2026-04-26T07:54:04.095Z</time></trkpt><trkpt lat="44.2813793" lon="11.111781"><ele>199.14285714285717</ele><time>2026-04-26T07:54:07.091Z</time></trkpt><trkpt lat="44.2814394" lon="11.1118285"><ele>198.28571428571428</ele><time>2026-04-26T07:54:09.1Z</time></trkpt><trkpt lat="44.2814631" lon="11.1119319"><ele>197.42857142857144</ele><time>2026-04-26T07:54:11.096Z</time></trkpt><trkpt lat="44.2814686" lon="11.1120436"><ele>196.57142857142858</ele><time>2026-04-26T07:54:13.099Z</time></trkpt><trkpt lat="44.2814527" lon="11.1121537"><ele>195.71428571428572</ele><time>2026-04-26T07:54:15.096Z</time></trkpt><trkpt lat="44.2814773" lon="11.1122397"><ele>194.85714285714286</ele><time>2026-04-26T07:54:17.089Z</time></trkpt><trkpt lat="44.2815472" lon="11.1122709"><ele>194.0</ele><time>2026-04-26T07:54:19.136Z</time></trkpt><trkpt lat="44.2816113" lon="11.112292"><ele>194.00000000000003</ele><time>2026-04-26T07:54:23.117Z</time></trkpt><trkpt lat="44.2816882" lon="11.1123227"><ele>194.0</ele><time>2026-04-26T07:54:28.094Z</time></trkpt><trkpt lat="44.2817579" lon="11.1122989"><ele>194.0</ele><time>2026-04-26T07:54:31.092Z</time></trkpt><trkpt lat="44.2817936" lon="11.11218"><ele>194.0</ele><time>2026-04-26T07:54:34.096Z</time></trkpt><trkpt lat="44.2818179" lon="11.1120689"><ele>194.00000000000003</ele><time>2026-04-26T07:54:36.091Z</time></trkpt><trkpt lat="44.2818416" lon="11.1119556"><ele>194.0</ele><time>2026-04-26T07:54:38.12Z</time></trkpt><trkpt lat="44.2818634" lon="11.111834"><ele>194.0</ele><time>2026-04-26T07:54:40.106Z</time></trkpt><trkpt lat="44.2818803" lon="11.1117027"><ele>194.0</ele><time>2026-04-26T07:54:42.099Z</time></trkpt><trkpt lat="44.2818836" lon="11.1115584"><ele>194.0</ele><time>2026-04-26T07:54:44.099Z</time></trkpt><trkpt lat="44.2819178" lon="11.1114255"><ele>194.0</ele><time>2026-04-26T07:54:46.099Z</time></trkpt><trkpt lat="44.2819291" lon="11.1112914"><ele>194.0</ele><time>2026-04-26T07:54:48.097Z</time></trkpt><trkpt lat="44.2819548" lon="11.1111568"><ele>194.6</ele><time>2026-04-26T07:54:50.103Z</time></trkpt><trkpt lat="44.2819715" lon="11.1110377"><ele>195.2</ele><time>2026-04-26T07:54:52.097Z</time></trkpt><trkpt lat="44.2819856" lon="11.1109027"><ele>195.79999999999998</ele><time>2026-04-26T07:54:54.095Z</time></trkpt><trkpt lat="44.2820067" lon="11.1107755"><ele>196.39999999999998</ele><time>2026-04-26T07:54:56.103Z</time></trkpt><trkpt lat="44.28202" lon="11.1106502"><ele>197.0</ele><time>2026-04-26T07:54:58.099Z</time></trkpt><trkpt lat="44.2820269" lon="11.1105207"><ele>198.0</ele><time>2026-04-26T07:55:00.098Z</time></trkpt><trkpt lat="44.282043" lon="11.1103916"><ele>199.0</ele><time>2026-04-26T07:55:02.095Z</time></trkpt><trkpt lat="44.2820577" lon="11.1102532"><ele>200.0</ele><time>2026-04-26T07:55:04.097Z</time></trkpt><trkpt lat="44.2820808" lon="11.1101618"><ele>201.0</ele><time>2026-04-26T07:55:06.098Z</time></trkpt><trkpt lat="44.282111" lon="11.1100407"><ele>202.0</ele><time>2026-04-26T07:55:08.097Z</time></trkpt><trkpt lat="44.2821363" lon="11.1098993"><ele>202.2</ele><time>2026-04-26T07:55:10.102Z</time></trkpt><trkpt lat="44.2821673" lon="11.1097666"><ele>202.39999999999998</ele><time>2026-04-26T07:55:12.097Z</time></trkpt><trkpt lat="44.2821873" lon="11.1096434"><ele>202.60000000000002</ele><time>2026-04-26T07:55:14.097Z</time></trkpt><trkpt lat="44.2822086" lon="11.1095105"><ele>202.8</ele><time>2026-04-26T07:55:16.098Z</time></trkpt><trkpt lat="44.2822409" lon="11.1093849"><ele>203.0</ele><time>2026-04-26T07:55:18.102Z</time></trkpt><trkpt lat="44.2822672" lon="11.1092489"><ele>202.4</ele><time>2026-04-26T07:55:20.09Z</time></trkpt><trkpt lat="44.2822949" lon="11.1091223"><ele>201.8</ele><time>2026-04-26T07:55:22.093Z</time></trkpt><trkpt lat="44.2823196" lon="11.1089913"><ele>201.2</ele><time>2026-04-26T07:55:24.094Z</time></trkpt><trkpt lat="44.2823361" lon="11.1088704"><ele>200.6</ele><time>2026-04-26T07:55:26.095Z</time></trkpt><trkpt lat="44.2823642" lon="11.1087485"><ele>200.0</ele><time>2026-04-26T07:55:28.103Z</time></trkpt><trkpt lat="44.2823863" lon="11.1086297"><ele>200.00000000000003</ele><time>2026-04-26T07:55:30.095Z</time></trkpt><trkpt lat="44.282403" lon="11.1085017"><ele>200.0</ele><time>2026-04-26T07:55:32.099Z</time></trkpt><trkpt lat="44.2824136" lon="11.1083789"><ele>200.0</ele><time>2026-04-26T07:55:34.101Z</time></trkpt><trkpt lat="44.2824409" lon="11.1082897"><ele>200.0</ele><time>2026-04-26T07:55:36.095Z</time></trkpt><trkpt lat="44.2824524" lon="11.1081756"><ele>200.00000000000003</ele><time>2026-04-26T07:55:38.096Z</time></trkpt><trkpt lat="44.2824765" lon="11.1080651"><ele>200.0</ele><time>2026-04-26T07:55:40.092Z</time></trkpt><trkpt lat="44.2824999" lon="11.1079489"><ele>200.16666666666669</ele><time>2026-04-26T07:55:42.094Z</time></trkpt><trkpt lat="44.2825254" lon="11.107839"><ele>200.33333333333334</ele><time>2026-04-26T07:55:44.095Z</time></trkpt><trkpt lat="44.2825478" lon="11.1077272"><ele>200.5</ele><time>2026-04-26T07:55:46.111Z</time></trkpt><trkpt lat="44.2825752" lon="11.1076203"><ele>200.66666666666669</ele><time>2026-04-26T07:55:48.093Z</time></trkpt><trkpt lat="44.2825948" lon="11.1075089"><ele>200.83333333333334</ele><time>2026-04-26T07:55:50.101Z</time></trkpt><trkpt lat="44.2826157" lon="11.1073936"><ele>201.0</ele><time>2026-04-26T07:55:52.095Z</time></trkpt><trkpt lat="44.282634" lon="11.1072823"><ele>201.5</ele><time>2026-04-26T07:55:54.098Z</time></trkpt><trkpt lat="44.2826539" lon="11.1071606"><ele>202.0</ele><time>2026-04-26T07:55:56.097Z</time></trkpt><trkpt lat="44.2826754" lon="11.1070403"><ele>202.5</ele><time>2026-04-26T07:55:58.098Z</time></trkpt><trkpt lat="44.2826965" lon="11.1069213"><ele>203.0</ele><time>2026-04-26T07:56:00.093Z</time></trkpt><trkpt lat="44.2827127" lon="11.1068075"><ele>203.5</ele><time>2026-04-26T07:56:02.092Z</time></trkpt><trkpt lat="44.2827265" lon="11.1066927"><ele>204.0</ele><time>2026-04-26T07:56:04.095Z</time></trkpt><trkpt lat="44.2827436" lon="11.1065851"><ele>204.5</ele><time>2026-04-26T07:56:06.096Z</time></trkpt><trkpt lat="44.2827615" lon="11.1064734"><ele>205.0</ele><time>2026-04-26T07:56:08.1Z</time></trkpt><trkpt lat="44.2827775" lon="11.1063574"><ele>205.5</ele><time>2026-04-26T07:56:10.096Z</time></trkpt><trkpt lat="44.2827937" lon="11.1062427"><ele>206.0</ele><time>2026-04-26T07:56:12.094Z</time></trkpt><trkpt lat="44.2828161" lon="11.1061297"><ele>206.5</ele><time>2026-04-26T07:56:14.103Z</time></trkpt><trkpt lat="44.2828429" lon="11.1060251"><ele>207.0</ele><time>2026-04-26T07:56:16.095Z</time></trkpt><trkpt lat="44.2828684" lon="11.1059206"><ele>207.0</ele><time>2026-04-26T07:56:18.089Z</time></trkpt><trkpt lat="44.2828925" lon="11.1058148"><ele>207.0</ele><time>2026-04-26T07:56:20.097Z</time></trkpt><trkpt lat="44.2829426" lon="11.105731"><ele>207.0</ele><time>2026-04-26T07:56:22.1Z</time></trkpt><trkpt lat="44.2829979" lon="11.1056718"><ele>207.0</ele><time>2026-04-26T07:56:24.1Z</time></trkpt><trkpt lat="44.2830681" lon="11.1056053"><ele>207.0</ele><time>2026-04-26T07:56:27.095Z</time></trkpt><trkpt lat="44.2831077" lon="11.1055209"><ele>207.0</ele><time>2026-04-26T07:56:29.095Z</time></trkpt><trkpt lat="44.2831306" lon="11.1054203"><ele>207.5</ele><time>2026-04-26T07:56:31.094Z</time></trkpt><trkpt lat="44.2831467" lon="11.1052974"><ele>208.0</ele><time>2026-04-26T07:56:33.095Z</time></trkpt><trkpt lat="44.2831579" lon="11.1051759"><ele>208.5</ele><time>2026-04-26T07:56:35.094Z</time></trkpt><trkpt lat="44.2831739" lon="11.1050668"><ele>209.0</ele><time>2026-04-26T07:56:37.101Z</time></trkpt><trkpt lat="44.2832138" lon="11.1049713"><ele>209.5</ele><time>2026-04-26T07:56:39.098Z</time></trkpt><trkpt lat="44.2832478" lon="11.10487"><ele>210.0</ele><time>2026-04-26T07:56:41.097Z</time></trkpt><trkpt lat="44.283272" lon="11.1047606"><ele>210.0</ele><time>2026-04-26T07:56:43.106Z</time></trkpt><trkpt lat="44.2833019" lon="11.1046538"><ele>210.0</ele><time>2026-04-26T07:56:45.098Z</time></trkpt><trkpt lat="44.2833274" lon="11.1045475"><ele>210.0</ele><time>2026-04-26T07:56:47.096Z</time></trkpt><trkpt lat="44.2833545" lon="11.1044409"><ele>210.0</ele><time>2026-04-26T07:56:49.095Z</time></trkpt><trkpt lat="44.2833794" lon="11.1043338"><ele>210.0</ele><time>2026-04-26T07:56:51.094Z</time></trkpt><trkpt lat="44.2834031" lon="11.1042273"><ele>210.0</ele><time>2026-04-26T07:56:53.107Z</time></trkpt><trkpt lat="44.2834199" lon="11.1041283"><ele>210.14285714285714</ele><time>2026-04-26T07:56:55.104Z</time></trkpt><trkpt lat="44.283429" lon="11.1040281"><ele>210.28571428571428</ele><time>2026-04-26T07:56:57.089Z</time></trkpt><trkpt lat="44.2834415" lon="11.1039277"><ele>210.42857142857144</ele><time>2026-04-26T07:56:59.097Z</time></trkpt><trkpt lat="44.2834524" lon="11.1038251"><ele>210.57142857142856</ele><time>2026-04-26T07:57:01.089Z</time></trkpt><trkpt lat="44.2834581" lon="11.1037221"><ele>210.71428571428572</ele><time>2026-04-26T07:57:03.107Z</time></trkpt><trkpt lat="44.2834686" lon="11.1036238"><ele>210.85714285714286</ele><time>2026-04-26T07:57:05.136Z</time></trkpt><trkpt lat="44.2834697" lon="11.1035102"><ele>211.0</ele><time>2026-04-26T07:57:07.09Z</time></trkpt><trkpt lat="44.2834696" lon="11.1033984"><ele>210.99999999999997</ele><time>2026-04-26T07:57:09.095Z</time></trkpt><trkpt lat="44.2834696" lon="11.1032869"><ele>211.0</ele><time>2026-04-26T07:57:11.096Z</time></trkpt><trkpt lat="44.283472" lon="11.1031733"><ele>211.0</ele><time>2026-04-26T07:57:13.101Z</time></trkpt><trkpt lat="44.2834678" lon="11.1030592"><ele>211.0</ele><time>2026-04-26T07:57:15.096Z</time></trkpt><trkpt lat="44.2834735" lon="11.1029602"><ele>210.99999999999997</ele><time>2026-04-26T07:57:17.095Z</time></trkpt><trkpt lat="44.283476" lon="11.102855"><ele>211.0</ele><time>2026-04-26T07:57:19.095Z</time></trkpt><trkpt lat="44.2834754" lon="11.1027461"><ele>211.49999999999997</ele><time>2026-04-26T07:57:21.099Z</time></trkpt><trkpt lat="44.2834715" lon="11.1026394"><ele>212.0</ele><time>2026-04-26T07:57:23.097Z</time></trkpt><trkpt lat="44.2834666" lon="11.102534"><ele>212.5</ele><time>2026-04-26T07:57:25.096Z</time></trkpt><trkpt lat="44.283458" lon="11.1024246"><ele>213.0</ele><time>2026-04-26T07:57:27.1Z</time></trkpt><trkpt lat="44.2834535" lon="11.1023157"><ele>213.49999999999997</ele><time>2026-04-26T07:57:29.119Z</time></trkpt><trkpt lat="44.2834486" lon="11.1022093"><ele>214.0</ele><time>2026-04-26T07:57:31.094Z</time></trkpt><trkpt lat="44.2834475" lon="11.1021077"><ele>214.16666666666666</ele><time>2026-04-26T07:57:33.092Z</time></trkpt><trkpt lat="44.2834436" lon="11.1020056"><ele>214.33333333333331</ele><time>2026-04-26T07:57:35.094Z</time></trkpt><trkpt lat="44.2834386" lon="11.1019017"><ele>214.5</ele><time>2026-04-26T07:57:37.092Z</time></trkpt><trkpt lat="44.2834346" lon="11.1018009"><ele>214.66666666666669</ele><time>2026-04-26T07:57:39.101Z</time></trkpt><trkpt lat="44.2834355" lon="11.101691"><ele>214.83333333333334</ele><time>2026-04-26T07:57:41.1Z</time></trkpt><trkpt lat="44.2834398" lon="11.1015855"><ele>215.0</ele><time>2026-04-26T07:57:43.094Z</time></trkpt><trkpt lat="44.2834437" lon="11.1014804"><ele>215.28571428571428</ele><time>2026-04-26T07:57:45.1Z</time></trkpt><trkpt lat="44.2834476" lon="11.1013779"><ele>215.57142857142858</ele><time>2026-04-26T07:57:47.101Z</time></trkpt><trkpt lat="44.2834537" lon="11.1012797"><ele>215.85714285714286</ele><time>2026-04-26T07:57:49.091Z</time></trkpt><trkpt lat="44.283465" lon="11.1011807"><ele>216.14285714285714</ele><time>2026-04-26T07:57:51.103Z</time></trkpt><trkpt lat="44.2834755" lon="11.1010835"><ele>216.42857142857144</ele><time>2026-04-26T07:57:53.09Z</time></trkpt><trkpt lat="44.2834854" lon="11.1009872"><ele>216.71428571428572</ele><time>2026-04-26T07:57:55.098Z</time></trkpt><trkpt lat="44.283493" lon="11.1008927"><ele>217.0</ele><time>2026-04-26T07:57:57.097Z</time></trkpt><trkpt lat="44.2835013" lon="11.100799"><ele>216.85714285714286</ele><time>2026-04-26T07:57:59.096Z</time></trkpt><trkpt lat="44.2835127" lon="11.1007056"><ele>216.71428571428572</ele><time>2026-04-26T07:58:01.097Z</time></trkpt><trkpt lat="44.2835243" lon="11.1006146"><ele>216.57142857142856</ele><time>2026-04-26T07:58:03.096Z</time></trkpt><trkpt lat="44.2835403" lon="11.1005283"><ele>216.42857142857144</ele><time>2026-04-26T07:58:05.098Z</time></trkpt><trkpt lat="44.2835626" lon="11.1004455"><ele>216.28571428571428</ele><time>2026-04-26T07:58:07.099Z</time></trkpt><trkpt lat="44.2835861" lon="11.1003566"><ele>216.14285714285714</ele><time>2026-04-26T07:58:09.101Z</time></trkpt><trkpt lat="44.2836102" lon="11.1002712"><ele>216.0</ele><time>2026-04-26T07:58:11.09Z</time></trkpt><trkpt lat="44.283654" lon="11.1001584"><ele>216.0</ele><time>2026-04-26T07:58:14.096Z</time></trkpt><trkpt lat="44.2836898" lon="11.1000788"><ele>216.0</ele><time>2026-04-26T07:58:16.099Z</time></trkpt><trkpt lat="44.2837264" lon="11.099992"><ele>216.0</ele><time>2026-04-26T07:58:18.097Z</time></trkpt><trkpt lat="44.2837579" lon="11.0999148"><ele>216.0</ele><time>2026-04-26T07:58:20.098Z</time></trkpt><trkpt lat="44.2838108" lon="11.0998041"><ele>216.0</ele><time>2026-04-26T07:58:23.098Z</time></trkpt><trkpt lat="44.2838493" lon="11.0997311"><ele>216.0</ele><time>2026-04-26T07:58:25.098Z</time></trkpt><trkpt lat="44.283914" lon="11.099635"><ele>216.71428571428572</ele><time>2026-04-26T07:58:28.1Z</time></trkpt><trkpt lat="44.2839608" lon="11.0995732"><ele>217.42857142857142</ele><time>2026-04-26T07:58:30.095Z</time></trkpt><trkpt lat="44.2840091" lon="11.0995094"><ele>218.14285714285717</ele><time>2026-04-26T07:58:32.093Z</time></trkpt><trkpt lat="44.2840573" lon="11.099447"><ele>218.85714285714286</ele><time>2026-04-26T07:58:34.093Z</time></trkpt><trkpt lat="44.2841077" lon="11.0993773"><ele>219.57142857142858</ele><time>2026-04-26T07:58:36.101Z</time></trkpt><trkpt lat="44.2841542" lon="11.0993118"><ele>220.2857142857143</ele><time>2026-04-26T07:58:38.097Z</time></trkpt><trkpt lat="44.2841957" lon="11.0992413"><ele>221.0</ele><time>2026-04-26T07:58:40.1Z</time></trkpt><trkpt lat="44.2842355" lon="11.0991678"><ele>221.00000000000003</ele><time>2026-04-26T07:58:42.097Z</time></trkpt><trkpt lat="44.284271" lon="11.0990899"><ele>221.0</ele><time>2026-04-26T07:58:44.102Z</time></trkpt><trkpt lat="44.2843078" lon="11.0990126"><ele>221.0</ele><time>2026-04-26T07:58:46.094Z</time></trkpt><trkpt lat="44.2843454" lon="11.0989346"><ele>221.0</ele><time>2026-04-26T07:58:48.096Z</time></trkpt><trkpt lat="44.2843854" lon="11.0988561"><ele>221.0</ele><time>2026-04-26T07:58:50.087Z</time></trkpt><trkpt lat="44.284446" lon="11.0987659"><ele>221.00000000000003</ele><time>2026-04-26T07:58:53.088Z</time></trkpt><trkpt lat="44.2844956" lon="11.0987084"><ele>221.0</ele><time>2026-04-26T07:58:55.098Z</time></trkpt><trkpt lat="44.2845664" lon="11.0986275"><ele>220.83333333333334</ele><time>2026-04-26T07:58:58.096Z</time></trkpt><trkpt lat="44.2846368" lon="11.0985484"><ele>220.66666666666669</ele><time>2026-04-26T07:59:01.097Z</time></trkpt><trkpt lat="44.2846996" lon="11.098469"><ele>220.5</ele><time>2026-04-26T07:59:04.099Z</time></trkpt><trkpt lat="44.2847533" lon="11.0983699"><ele>220.33333333333331</ele><time>2026-04-26T07:59:07.096Z</time></trkpt><trkpt lat="44.2847914" lon="11.0982973"><ele>220.16666666666666</ele><time>2026-04-26T07:59:09.088Z</time></trkpt><trkpt lat="44.2848413" lon="11.0981895"><ele>220.0</ele><time>2026-04-26T07:59:12.096Z</time></trkpt><trkpt lat="44.2848863" lon="11.098077"><ele>220.7142857142857</ele><time>2026-04-26T07:59:15.098Z</time></trkpt><trkpt lat="44.2849224" lon="11.0980001"><ele>221.42857142857144</ele><time>2026-04-26T07:59:17.095Z</time></trkpt><trkpt lat="44.2849611" lon="11.0979235"><ele>222.14285714285717</ele><time>2026-04-26T07:59:19.097Z</time></trkpt><trkpt lat="44.2850156" lon="11.0978206"><ele>222.85714285714286</ele><time>2026-04-26T07:59:22.1Z</time></trkpt><trkpt lat="44.2850587" lon="11.0977425"><ele>223.57142857142858</ele><time>2026-04-26T07:59:24.098Z</time></trkpt><trkpt lat="44.2851013" lon="11.0976731"><ele>224.2857142857143</ele><time>2026-04-26T07:59:26.099Z</time></trkpt><trkpt lat="44.2851449" lon="11.0975963"><ele>225.00000000000003</ele><time>2026-04-26T07:59:28.093Z</time></trkpt><trkpt lat="44.28518" lon="11.0975125"><ele>225.00000000000003</ele><time>2026-04-26T07:59:30.099Z</time></trkpt><trkpt lat="44.2852141" lon="11.0974279"><ele>225.0</ele><time>2026-04-26T07:59:32.096Z</time></trkpt><trkpt lat="44.285247" lon="11.097344"><ele>225.00000000000003</ele><time>2026-04-26T07:59:34.096Z</time></trkpt><trkpt lat="44.2852765" lon="11.0972468"><ele>225.00000000000003</ele><time>2026-04-26T07:59:36.097Z</time></trkpt><trkpt lat="44.2853146" lon="11.0971539"><ele>225.0</ele><time>2026-04-26T07:59:38.096Z</time></trkpt><trkpt lat="44.2853454" lon="11.0970629"><ele>225.00000000000003</ele><time>2026-04-26T07:59:40.094Z</time></trkpt><trkpt lat="44.2853788" lon="11.096973"><ele>225.00000000000003</ele><time>2026-04-26T07:59:42.098Z</time></trkpt><trkpt lat="44.2854134" lon="11.096882"><ele>224.8571428571429</ele><time>2026-04-26T07:59:44.095Z</time></trkpt><trkpt lat="44.2854416" lon="11.096786"><ele>224.71428571428572</ele><time>2026-04-26T07:59:46.099Z</time></trkpt><trkpt lat="44.2854699" lon="11.096691"><ele>224.57142857142858</ele><time>2026-04-26T07:59:48.094Z</time></trkpt><trkpt lat="44.2855017" lon="11.0966078"><ele>224.42857142857144</ele><time>2026-04-26T07:59:50.097Z</time></trkpt><trkpt lat="44.2855355" lon="11.0965268"><ele>224.28571428571428</ele><time>2026-04-26T07:59:52.095Z</time></trkpt><trkpt lat="44.2855736" lon="11.0964507"><ele>224.14285714285714</ele><time>2026-04-26T07:59:54.097Z</time></trkpt><trkpt lat="44.2856277" lon="11.0963621"><ele>224.0</ele><time>2026-04-26T07:59:57.095Z</time></trkpt><trkpt lat="44.2856922" lon="11.0962919"><ele>225.14285714285714</ele><time>2026-04-26T08:00:00.092Z</time></trkpt><trkpt lat="44.2857551" lon="11.0962415"><ele>226.28571428571428</ele><time>2026-04-26T08:00:03.094Z</time></trkpt><trkpt lat="44.2858243" lon="11.0962091"><ele>227.42857142857144</ele><time>2026-04-26T08:00:06.099Z</time></trkpt><trkpt lat="44.2858908" lon="11.0961652"><ele>228.57142857142858</ele><time>2026-04-26T08:00:09.104Z</time></trkpt><trkpt lat="44.2859577" lon="11.0961432"><ele>229.71428571428572</ele><time>2026-04-26T08:00:12.095Z</time></trkpt><trkpt lat="44.2860271" lon="11.0961061"><ele>230.8571428571429</ele><time>2026-04-26T08:00:15.098Z</time></trkpt><trkpt lat="44.2860936" lon="11.0960577"><ele>232.00000000000003</ele><time>2026-04-26T08:00:18.097Z</time></trkpt><trkpt lat="44.2861551" lon="11.0960026"><ele>232.00000000000003</ele><time>2026-04-26T08:00:21.096Z</time></trkpt><trkpt lat="44.2861959" lon="11.0959311"><ele>232.0</ele><time>2026-04-26T08:00:24.097Z</time></trkpt><trkpt lat="44.2862315" lon="11.0958561"><ele>232.00000000000003</ele><time>2026-04-26T08:00:27.097Z</time></trkpt><trkpt lat="44.2862568" lon="11.095746"><ele>232.00000000000003</ele><time>2026-04-26T08:00:31.11Z</time></trkpt><trkpt lat="44.2862684" lon="11.0956458"><ele>232.0</ele><time>2026-04-26T08:00:34.095Z</time></trkpt><trkpt lat="44.2862823" lon="11.0955475"><ele>232.00000000000003</ele><time>2026-04-26T08:00:37.095Z</time></trkpt><trkpt lat="44.2863049" lon="11.0954536"><ele>232.00000000000003</ele><time>2026-04-26T08:00:40.098Z</time></trkpt><trkpt lat="44.2863219" lon="11.0953595"><ele>231.8571428571429</ele><time>2026-04-26T08:00:43.104Z</time></trkpt><trkpt lat="44.2863456" lon="11.095259"><ele>231.71428571428572</ele><time>2026-04-26T08:00:46.09Z</time></trkpt><trkpt lat="44.2863778" lon="11.0951608"><ele>231.57142857142858</ele><time>2026-04-26T08:00:49.095Z</time></trkpt><trkpt lat="44.286418" lon="11.095077"><ele>231.42857142857144</ele><time>2026-04-26T08:00:52.1Z</time></trkpt><trkpt lat="44.2864667" lon="11.0950126"><ele>231.28571428571428</ele><time>2026-04-26T08:00:55.099Z</time></trkpt><trkpt lat="44.2865189" lon="11.0949505"><ele>231.14285714285714</ele><time>2026-04-26T08:00:58.094Z</time></trkpt><trkpt lat="44.2865798" lon="11.0948966"><ele>231.0</ele><time>2026-04-26T08:01:01.088Z</time></trkpt><trkpt lat="44.2866419" lon="11.0948474"><ele>231.57142857142856</ele><time>2026-04-26T08:01:04.096Z</time></trkpt><trkpt lat="44.2867057" lon="11.0948161"><ele>232.14285714285714</ele><time>2026-04-26T08:01:07.092Z</time></trkpt><trkpt lat="44.2867725" lon="11.0947927"><ele>232.71428571428572</ele><time>2026-04-26T08:01:10.096Z</time></trkpt><trkpt lat="44.2868547" lon="11.0947771"><ele>233.28571428571428</ele><time>2026-04-26T08:01:14.098Z</time></trkpt><trkpt lat="44.2869321" lon="11.094773"><ele>233.85714285714283</ele><time>2026-04-26T08:01:17.102Z</time></trkpt><trkpt lat="44.2870055" lon="11.094758"><ele>234.42857142857142</ele><time>2026-04-26T08:01:20.096Z</time></trkpt><trkpt lat="44.2870736" lon="11.0947419"><ele>235.0</ele><time>2026-04-26T08:01:23.096Z</time></trkpt><trkpt lat="44.2871431" lon="11.0947304"><ele>235.0</ele><time>2026-04-26T08:01:26.094Z</time></trkpt><trkpt lat="44.2872155" lon="11.09473"><ele>234.99999999999997</ele><time>2026-04-26T08:01:29.105Z</time></trkpt><trkpt lat="44.2872828" lon="11.094719"><ele>235.0</ele><time>2026-04-26T08:01:32.091Z</time></trkpt><trkpt lat="44.2873482" lon="11.0947043"><ele>235.0</ele><time>2026-04-26T08:01:35.096Z</time></trkpt><trkpt lat="44.2874217" lon="11.0946897"><ele>234.99999999999997</ele><time>2026-04-26T08:01:38.095Z</time></trkpt><trkpt lat="44.2874865" lon="11.0946738"><ele>235.0</ele><time>2026-04-26T08:01:41.095Z</time></trkpt><trkpt lat="44.2875611" lon="11.0946526"><ele>235.0</ele><time>2026-04-26T08:01:44.095Z</time></trkpt><trkpt lat="44.2876288" lon="11.0945968"><ele>236.99999999999997</ele><time>2026-04-26T08:01:47.093Z</time></trkpt><trkpt lat="44.2876911" lon="11.094539"><ele>239.0</ele><time>2026-04-26T08:01:50.101Z</time></trkpt><trkpt lat="44.2877487" lon="11.0944794"><ele>241.0</ele><time>2026-04-26T08:01:53.096Z</time></trkpt><trkpt lat="44.2877974" lon="11.0943966"><ele>243.0</ele><time>2026-04-26T08:01:56.09Z</time></trkpt><trkpt lat="44.2878402" lon="11.0943168"><ele>244.99999999999997</ele><time>2026-04-26T08:01:59.095Z</time></trkpt><trkpt lat="44.2878869" lon="11.0942229"><ele>247.0</ele><time>2026-04-26T08:02:02.097Z</time></trkpt><trkpt lat="44.2879273" lon="11.0941278"><ele>247.66666666666666</ele><time>2026-04-26T08:02:05.096Z</time></trkpt><trkpt lat="44.2879602" lon="11.0940309"><ele>248.33333333333331</ele><time>2026-04-26T08:02:08.1Z</time></trkpt><trkpt lat="44.2879878" lon="11.0939286"><ele>249.0</ele><time>2026-04-26T08:02:11.096Z</time></trkpt><trkpt lat="44.288021" lon="11.0938324"><ele>249.66666666666669</ele><time>2026-04-26T08:02:14.091Z</time></trkpt><trkpt lat="44.2880623" lon="11.0937427"><ele>250.33333333333334</ele><time>2026-04-26T08:02:17.095Z</time></trkpt><trkpt lat="44.2881021" lon="11.0936533"><ele>251.0</ele><time>2026-04-26T08:02:20.096Z</time></trkpt><trkpt lat="44.2881417" lon="11.0935614"><ele>251.00000000000003</ele><time>2026-04-26T08:02:23.092Z</time></trkpt><trkpt lat="44.2881863" lon="11.0934704"><ele>251.0</ele><time>2026-04-26T08:02:26.101Z</time></trkpt><trkpt lat="44.2882302" lon="11.0933796"><ele>251.0</ele><time>2026-04-26T08:02:29.089Z</time></trkpt><trkpt lat="44.2882689" lon="11.0932845"><ele>251.0</ele><time>2026-04-26T08:02:32.089Z</time></trkpt><trkpt lat="44.2883073" lon="11.0931984"><ele>251.00000000000003</ele><time>2026-04-26T08:02:35.099Z</time></trkpt><trkpt lat="44.2883494" lon="11.0931097"><ele>251.0</ele><time>2026-04-26T08:02:38.098Z</time></trkpt><trkpt lat="44.2883933" lon="11.0930198"><ele>250.00000000000003</ele><time>2026-04-26T08:02:41.111Z</time></trkpt><trkpt lat="44.288443" lon="11.0929353"><ele>249.0</ele><time>2026-04-26T08:02:44.09Z</time></trkpt><trkpt lat="44.2885045" lon="11.0928563"><ele>248.0</ele><time>2026-04-26T08:02:47.099Z</time></trkpt><trkpt lat="44.2885679" lon="11.0927977"><ele>247.0</ele><time>2026-04-26T08:02:50.104Z</time></trkpt><trkpt lat="44.2886415" lon="11.0927576"><ele>246.00000000000003</ele><time>2026-04-26T08:02:53.101Z</time></trkpt><trkpt lat="44.2887156" lon="11.092759"><ele>245.0</ele><time>2026-04-26T08:02:56.116Z</time></trkpt><trkpt lat="44.2887866" lon="11.0927905"><ele>245.0</ele><time>2026-04-26T08:02:59.103Z</time></trkpt><trkpt lat="44.2888378" lon="11.0928543"><ele>245.0</ele><time>2026-04-26T08:03:02.101Z</time></trkpt><trkpt lat="44.2888685" lon="11.0929468"><ele>245.0</ele><time>2026-04-26T08:03:05.094Z</time></trkpt><trkpt lat="44.288891" lon="11.0930422"><ele>245.0</ele><time>2026-04-26T08:03:08.093Z</time></trkpt><trkpt lat="44.2888727" lon="11.0931563"><ele>245.0</ele><time>2026-04-26T08:03:12.097Z</time></trkpt><trkpt lat="44.2888403" lon="11.0932387"><ele>245.0</ele><time>2026-04-26T08:03:15.096Z</time></trkpt><trkpt lat="44.2888132" lon="11.0933257"><ele>245.0</ele><time>2026-04-26T08:03:18.098Z</time></trkpt><trkpt lat="44.2887854" lon="11.09342"><ele>245.85714285714286</ele><time>2026-04-26T08:03:21.094Z</time></trkpt><trkpt lat="44.2887638" lon="11.0935135"><ele>246.71428571428572</ele><time>2026-04-26T08:03:24.09Z</time></trkpt><trkpt lat="44.2887478" lon="11.093602"><ele>247.57142857142856</ele><time>2026-04-26T08:03:27.095Z</time></trkpt><trkpt lat="44.2887432" lon="11.0937042"><ele>248.42857142857142</ele><time>2026-04-26T08:03:30.096Z</time></trkpt><trkpt lat="44.2887494" lon="11.0937977"><ele>249.28571428571428</ele><time>2026-04-26T08:03:33.092Z</time></trkpt><trkpt lat="44.2887611" lon="11.0939121"><ele>250.1428571428571</ele><time>2026-04-26T08:03:37.111Z</time></trkpt><trkpt lat="44.2887838" lon="11.0940005"><ele>250.99999999999997</ele><time>2026-04-26T08:03:40.099Z</time></trkpt><trkpt lat="44.2887998" lon="11.0940907"><ele>251.71428571428567</ele><time>2026-04-26T08:03:43.098Z</time></trkpt><trkpt lat="44.2888033" lon="11.0942001"><ele>252.42857142857142</ele><time>2026-04-26T08:03:47.096Z</time></trkpt><trkpt lat="44.2888027" lon="11.094289"><ele>253.1428571428571</ele><time>2026-04-26T08:03:50.098Z</time></trkpt><trkpt lat="44.2887992" lon="11.0943786"><ele>253.85714285714283</ele><time>2026-04-26T08:03:53.131Z</time></trkpt><trkpt lat="44.2887936" lon="11.094468"><ele>254.57142857142856</ele><time>2026-04-26T08:03:56.092Z</time></trkpt><trkpt lat="44.2887881" lon="11.094558"><ele>255.28571428571428</ele><time>2026-04-26T08:03:59.095Z</time></trkpt><trkpt lat="44.2887784" lon="11.0946488"><ele>256.0</ele><time>2026-04-26T08:04:02.092Z</time></trkpt><trkpt lat="44.2887654" lon="11.0947608"><ele>256.0</ele><time>2026-04-26T08:04:06.1Z</time></trkpt><trkpt lat="44.2887614" lon="11.0948729"><ele>255.99999999999997</ele><time>2026-04-26T08:04:10.1Z</time></trkpt><trkpt lat="44.2887562" lon="11.0949695"><ele>256.0</ele><time>2026-04-26T08:04:13.094Z</time></trkpt><trkpt lat="44.2887483" lon="11.095066"><ele>256.0</ele><time>2026-04-26T08:04:16.102Z</time></trkpt><trkpt lat="44.2887377" lon="11.0951597"><ele>255.99999999999997</ele><time>2026-04-26T08:04:19.098Z</time></trkpt><trkpt lat="44.2887172" lon="11.0952545"><ele>256.0</ele><time>2026-04-26T08:04:22.097Z</time></trkpt><trkpt lat="44.2886933" lon="11.0953435"><ele>256.0</ele><time>2026-04-26T08:04:25.092Z</time></trkpt><trkpt lat="44.2886587" lon="11.0954176"><ele>257.1428571428571</ele><time>2026-04-26T08:04:28.098Z</time></trkpt><trkpt lat="44.2886095" lon="11.0955053"><ele>258.2857142857143</ele><time>2026-04-26T08:04:32.099Z</time></trkpt><trkpt lat="44.2885691" lon="11.095578"><ele>259.42857142857144</ele><time>2026-04-26T08:04:35.095Z</time></trkpt><trkpt lat="44.2885261" lon="11.095647"><ele>260.57142857142856</ele><time>2026-04-26T08:04:38.107Z</time></trkpt><trkpt lat="44.2884711" lon="11.0957289"><ele>261.7142857142857</ele><time>2026-04-26T08:04:42.107Z</time></trkpt><trkpt lat="44.2884228" lon="11.0957946"><ele>262.85714285714283</ele><time>2026-04-26T08:04:45.094Z</time></trkpt><trkpt lat="44.2883776" lon="11.0958689"><ele>264.0</ele><time>2026-04-26T08:04:48.095Z</time></trkpt><trkpt lat="44.2883427" lon="11.0959475"><ele>265.1428571428571</ele><time>2026-04-26T08:04:51.097Z</time></trkpt><trkpt lat="44.2883071" lon="11.0960337"><ele>266.2857142857143</ele><time>2026-04-26T08:04:54.096Z</time></trkpt><trkpt lat="44.2882825" lon="11.0961413"><ele>267.42857142857144</ele><time>2026-04-26T08:04:58.094Z</time></trkpt><trkpt lat="44.2882707" lon="11.0962291"><ele>268.57142857142856</ele><time>2026-04-26T08:05:01.093Z</time></trkpt><trkpt lat="44.2882489" lon="11.096316"><ele>269.7142857142857</ele><time>2026-04-26T08:05:04.095Z</time></trkpt><trkpt lat="44.2882293" lon="11.0964145"><ele>270.85714285714283</ele><time>2026-04-26T08:05:07.089Z</time></trkpt><trkpt lat="44.2882113" lon="11.096507"><ele>272.0</ele><time>2026-04-26T08:05:10.09Z</time></trkpt><trkpt lat="44.2881807" lon="11.0965959"><ele>271.0</ele><time>2026-04-26T08:05:13.083Z</time></trkpt><trkpt lat="44.2881512" lon="11.0966836"><ele>270.0</ele><time>2026-04-26T08:05:16.091Z</time></trkpt><trkpt lat="44.2881225" lon="11.0967861"><ele>269.0</ele><time>2026-04-26T08:05:20.096Z</time></trkpt><trkpt lat="44.2880951" lon="11.096894"><ele>268.0</ele><time>2026-04-26T08:05:24.089Z</time></trkpt><trkpt lat="44.2880674" lon="11.0969767"><ele>267.0</ele><time>2026-04-26T08:05:27.096Z</time></trkpt><trkpt lat="44.2880305" lon="11.0970867"><ele>266.0</ele><time>2026-04-26T08:05:31.094Z</time></trkpt><trkpt lat="44.2880001" lon="11.0971733"><ele>266.0</ele><time>2026-04-26T08:05:34.093Z</time></trkpt><trkpt lat="44.2879787" lon="11.0972613"><ele>266.0</ele><time>2026-04-26T08:05:37.093Z</time></trkpt><trkpt lat="44.2879458" lon="11.0973589"><ele>266.0</ele><time>2026-04-26T08:05:41.084Z</time></trkpt><trkpt lat="44.2879137" lon="11.0974667"><ele>266.0</ele><time>2026-04-26T08:05:45.096Z</time></trkpt><trkpt lat="44.2878945" lon="11.0975784"><ele>266.0</ele><time>2026-04-26T08:05:49.095Z</time></trkpt><trkpt lat="44.2878828" lon="11.0976699"><ele>266.0</ele><time>2026-04-26T08:05:52.1Z</time></trkpt><trkpt lat="44.287873" lon="11.0977771"><ele>266.85714285714283</ele><time>2026-04-26T08:05:56.102Z</time></trkpt><trkpt lat="44.2878637" lon="11.0978736"><ele>267.7142857142857</ele><time>2026-04-26T08:05:59.097Z</time></trkpt><trkpt lat="44.2878493" lon="11.0979614"><ele>268.57142857142856</ele><time>2026-04-26T08:06:02.094Z</time></trkpt><trkpt lat="44.2878497" lon="11.0980768"><ele>269.42857142857144</ele><time>2026-04-26T08:06:06.094Z</time></trkpt><trkpt lat="44.2878368" lon="11.0981676"><ele>270.2857142857143</ele><time>2026-04-26T08:06:09.094Z</time></trkpt><trkpt lat="44.2878336" lon="11.0982557"><ele>271.1428571428571</ele><time>2026-04-26T08:06:12.097Z</time></trkpt><trkpt lat="44.2878196" lon="11.0983654"><ele>272.0</ele><time>2026-04-26T08:06:16.102Z</time></trkpt><trkpt lat="44.2877917" lon="11.0984635"><ele>272.99999999999994</ele><time>2026-04-26T08:06:19.093Z</time></trkpt><trkpt lat="44.2877685" lon="11.0985658"><ele>274.0</ele><time>2026-04-26T08:06:22.092Z</time></trkpt><trkpt lat="44.2877232" lon="11.0986549"><ele>275.0</ele><time>2026-04-26T08:06:26.09Z</time></trkpt><trkpt lat="44.2876804" lon="11.0987323"><ele>276.0</ele><time>2026-04-26T08:06:29.1Z</time></trkpt><trkpt lat="44.2876387" lon="11.0988079"><ele>277.0</ele><time>2026-04-26T08:06:32.104Z</time></trkpt><trkpt lat="44.2875807" lon="11.0988638"><ele>277.99999999999994</ele><time>2026-04-26T08:06:35.093Z</time></trkpt><trkpt lat="44.2875161" lon="11.0989137"><ele>279.0</ele><time>2026-04-26T08:06:39.096Z</time></trkpt><trkpt lat="44.2874529" lon="11.0989524"><ele>278.99999999999994</ele><time>2026-04-26T08:06:42.093Z</time></trkpt><trkpt lat="44.2873867" lon="11.098984"><ele>279.0</ele><time>2026-04-26T08:06:45.095Z</time></trkpt><trkpt lat="44.287318" lon="11.0989917"><ele>279.0</ele><time>2026-04-26T08:06:48.092Z</time></trkpt><trkpt lat="44.2872382" lon="11.0989889"><ele>279.0</ele><time>2026-04-26T08:06:51.096Z</time></trkpt><trkpt lat="44.2871614" lon="11.0989886"><ele>279.0</ele><time>2026-04-26T08:06:54.094Z</time></trkpt><trkpt lat="44.287089" lon="11.0990024"><ele>278.99999999999994</ele><time>2026-04-26T08:06:57.099Z</time></trkpt><trkpt lat="44.287022" lon="11.0990387"><ele>279.0</ele><time>2026-04-26T08:07:00.092Z</time></trkpt><trkpt lat="44.2869579" lon="11.0990918"><ele>278.5</ele><time>2026-04-26T08:07:03.099Z</time></trkpt><trkpt lat="44.2869048" lon="11.0991556"><ele>278.0</ele><time>2026-04-26T08:07:06.097Z</time></trkpt><trkpt lat="44.2868561" lon="11.0992524"><ele>277.5</ele><time>2026-04-26T08:07:09.1Z</time></trkpt><trkpt lat="44.2868153" lon="11.0993739"><ele>277.0</ele><time>2026-04-26T08:07:12.101Z</time></trkpt><trkpt lat="44.2867797" lon="11.0994896"><ele>276.5</ele><time>2026-04-26T08:07:15.094Z</time></trkpt><trkpt lat="44.2867512" lon="11.0996001"><ele>276.0</ele><time>2026-04-26T08:07:18.102Z</time></trkpt><trkpt lat="44.2867139" lon="11.0997127"><ele>276.0</ele><time>2026-04-26T08:07:21.099Z</time></trkpt><trkpt lat="44.286677" lon="11.0998096"><ele>276.0</ele><time>2026-04-26T08:07:24.098Z</time></trkpt><trkpt lat="44.2866237" lon="11.0998858"><ele>276.0</ele><time>2026-04-26T08:07:27.093Z</time></trkpt><trkpt lat="44.2865654" lon="11.0999679"><ele>276.0</ele><time>2026-04-26T08:07:30.092Z</time></trkpt><trkpt lat="44.2865053" lon="11.100061"><ele>276.0</ele><time>2026-04-26T08:07:33.1Z</time></trkpt><trkpt lat="44.2864538" lon="11.1001255"><ele>276.0</ele><time>2026-04-26T08:07:36.096Z</time></trkpt><trkpt lat="44.2864011" lon="11.1001767"><ele>276.0</ele><time>2026-04-26T08:07:39.094Z</time></trkpt><trkpt lat="44.2863524" lon="11.100238"><ele>276.0</ele><time>2026-04-26T08:07:42.084Z</time></trkpt><trkpt lat="44.2863026" lon="11.1003044"><ele>276.0</ele><time>2026-04-26T08:07:45.097Z</time></trkpt><trkpt lat="44.2862485" lon="11.1004103"><ele>276.0</ele><time>2026-04-26T08:07:48.1Z</time></trkpt><trkpt lat="44.2861986" lon="11.1005134"><ele>276.0</ele><time>2026-04-26T08:07:51.099Z</time></trkpt><trkpt lat="44.2861507" lon="11.1005998"><ele>276.0</ele><time>2026-04-26T08:07:54.095Z</time></trkpt><trkpt lat="44.2861091" lon="11.10067"><ele>276.0</ele><time>2026-04-26T08:07:56.097Z</time></trkpt><trkpt lat="44.2860425" lon="11.1007475"><ele>276.0</ele><time>2026-04-26T08:07:59.099Z</time></trkpt><trkpt lat="44.2859797" lon="11.1008083"><ele>276.0</ele><time>2026-04-26T08:08:02.094Z</time></trkpt><trkpt lat="44.2859109" lon="11.1008488"><ele>276.0</ele><time>2026-04-26T08:08:05.095Z</time></trkpt><trkpt lat="44.285842" lon="11.1008833"><ele>276.0</ele><time>2026-04-26T08:08:08.095Z</time></trkpt><trkpt lat="44.2857837" lon="11.1009516"><ele>276.0</ele><time>2026-04-26T08:08:11.093Z</time></trkpt><trkpt lat="44.2857324" lon="11.1010508"><ele>277.57142857142856</ele><time>2026-04-26T08:08:14.099Z</time></trkpt><trkpt lat="44.2856964" lon="11.101142"><ele>279.14285714285717</ele><time>2026-04-26T08:08:17.086Z</time></trkpt><trkpt lat="44.2856709" lon="11.1012304"><ele>280.7142857142857</ele><time>2026-04-26T08:08:20.095Z</time></trkpt><trkpt lat="44.2856733" lon="11.1013301"><ele>282.2857142857143</ele><time>2026-04-26T08:08:23.092Z</time></trkpt><trkpt lat="44.2856887" lon="11.1014202"><ele>283.8571428571429</ele><time>2026-04-26T08:08:26.089Z</time></trkpt><trkpt lat="44.2857141" lon="11.1015072"><ele>285.42857142857144</ele><time>2026-04-26T08:08:29.102Z</time></trkpt><trkpt lat="44.285751" lon="11.1015973"><ele>287.0</ele><time>2026-04-26T08:08:32.11Z</time></trkpt><trkpt lat="44.285796" lon="11.101687"><ele>287.6666666666667</ele><time>2026-04-26T08:08:35.089Z</time></trkpt><trkpt lat="44.2858489" lon="11.10177"><ele>288.33333333333337</ele><time>2026-04-26T08:08:38.09Z</time></trkpt><trkpt lat="44.285902" lon="11.1018374"><ele>289.0</ele><time>2026-04-26T08:08:41.096Z</time></trkpt><trkpt lat="44.2859625" lon="11.1019142"><ele>289.6666666666667</ele><time>2026-04-26T08:08:44.116Z</time></trkpt><trkpt lat="44.2860056" lon="11.1020022"><ele>290.3333333333333</ele><time>2026-04-26T08:08:47.092Z</time></trkpt><trkpt lat="44.2860422" lon="11.1020954"><ele>291.0</ele><time>2026-04-26T08:08:50.098Z</time></trkpt><trkpt lat="44.2860795" lon="11.1021853"><ele>291.0</ele><time>2026-04-26T08:08:53.094Z</time></trkpt><trkpt lat="44.2861306" lon="11.1022654"><ele>291.0</ele><time>2026-04-26T08:08:56.092Z</time></trkpt><trkpt lat="44.2861923" lon="11.1023293"><ele>291.0</ele><time>2026-04-26T08:08:59.094Z</time></trkpt><trkpt lat="44.2862614" lon="11.1023887"><ele>291.0</ele><time>2026-04-26T08:09:03.102Z</time></trkpt><trkpt lat="44.2863242" lon="11.102465"><ele>291.0</ele><time>2026-04-26T08:09:06.093Z</time></trkpt><trkpt lat="44.2863793" lon="11.1025515"><ele>291.0</ele><time>2026-04-26T08:09:09.094Z</time></trkpt><trkpt lat="44.2864146" lon="11.1026477"><ele>290.57142857142856</ele><time>2026-04-26T08:09:12.099Z</time></trkpt><trkpt lat="44.2864317" lon="11.1027511"><ele>290.1428571428571</ele><time>2026-04-26T08:09:15.089Z</time></trkpt><trkpt lat="44.2864332" lon="11.1028534"><ele>289.7142857142857</ele><time>2026-04-26T08:09:18.098Z</time></trkpt><trkpt lat="44.286419" lon="11.102952"><ele>289.2857142857143</ele><time>2026-04-26T08:09:21.094Z</time></trkpt><trkpt lat="44.2863924" lon="11.1030481"><ele>288.8571428571429</ele><time>2026-04-26T08:09:24.097Z</time></trkpt><trkpt lat="44.286375" lon="11.1031507"><ele>288.42857142857144</ele><time>2026-04-26T08:09:27.094Z</time></trkpt><trkpt lat="44.2863695" lon="11.10325"><ele>288.0</ele><time>2026-04-26T08:09:30.107Z</time></trkpt><trkpt lat="44.2863734" lon="11.1033507"><ele>287.5</ele><time>2026-04-26T08:09:33.102Z</time></trkpt><trkpt lat="44.2863803" lon="11.1034529"><ele>287.0</ele><time>2026-04-26T08:09:36.097Z</time></trkpt><trkpt lat="44.286398" lon="11.1035625"><ele>286.5</ele><time>2026-04-26T08:09:39.096Z</time></trkpt><trkpt lat="44.2864192" lon="11.1036659"><ele>286.0</ele><time>2026-04-26T08:09:42.095Z</time></trkpt><trkpt lat="44.2864503" lon="11.1037593"><ele>285.5</ele><time>2026-04-26T08:09:45.091Z</time></trkpt><trkpt lat="44.2864946" lon="11.1038407"><ele>285.0</ele><time>2026-04-26T08:09:48.087Z</time></trkpt><trkpt lat="44.2865479" lon="11.1039131"><ele>287.8333333333333</ele><time>2026-04-26T08:09:51.092Z</time></trkpt><trkpt lat="44.286609" lon="11.1039985"><ele>290.6666666666667</ele><time>2026-04-26T08:09:54.102Z</time></trkpt><trkpt lat="44.2866661" lon="11.1040889"><ele>293.5</ele><time>2026-04-26T08:09:57.089Z</time></trkpt><trkpt lat="44.286712" lon="11.1041816"><ele>296.33333333333337</ele><time>2026-04-26T08:10:00.094Z</time></trkpt><trkpt lat="44.2867576" lon="11.1042709"><ele>299.1666666666667</ele><time>2026-04-26T08:10:03.095Z</time></trkpt><trkpt lat="44.2867973" lon="11.1043527"><ele>302.0</ele><time>2026-04-26T08:10:06.1Z</time></trkpt><trkpt lat="44.2868395" lon="11.1044274"><ele>302.0</ele><time>2026-04-26T08:10:09.096Z</time></trkpt><trkpt lat="44.2868905" lon="11.1045027"><ele>302.0</ele><time>2026-04-26T08:10:12.091Z</time></trkpt><trkpt lat="44.2869423" lon="11.1045564"><ele>302.0</ele><time>2026-04-26T08:10:15.092Z</time></trkpt><trkpt lat="44.2870265" lon="11.104583"><ele>302.0</ele><time>2026-04-26T08:10:19.101Z</time></trkpt><trkpt lat="44.2870998" lon="11.1045567"><ele>302.0</ele><time>2026-04-26T08:10:22.104Z</time></trkpt><trkpt lat="44.287176" lon="11.1045308"><ele>302.0</ele><time>2026-04-26T08:10:25.094Z</time></trkpt><trkpt lat="44.2872512" lon="11.1044987"><ele>303.8571428571429</ele><time>2026-04-26T08:10:28.094Z</time></trkpt><trkpt lat="44.2873207" lon="11.1044779"><ele>305.7142857142857</ele><time>2026-04-26T08:10:31.091Z</time></trkpt><trkpt lat="44.2873913" lon="11.1044831"><ele>307.57142857142856</ele><time>2026-04-26T08:10:34.092Z</time></trkpt><trkpt lat="44.2874665" lon="11.1044909"><ele>309.42857142857144</ele><time>2026-04-26T08:10:37.095Z</time></trkpt><trkpt lat="44.2875364" lon="11.1045235"><ele>311.2857142857143</ele><time>2026-04-26T08:10:40.101Z</time></trkpt><trkpt lat="44.2876045" lon="11.1045726"><ele>313.14285714285717</ele><time>2026-04-26T08:10:43.098Z</time></trkpt><trkpt lat="44.287671" lon="11.104621"><ele>315.0</ele><time>2026-04-26T08:10:46.103Z</time></trkpt><trkpt lat="44.2877485" lon="11.1046569"><ele>315.0</ele><time>2026-04-26T08:10:49.088Z</time></trkpt><trkpt lat="44.2878116" lon="11.1046777"><ele>315.0</ele><time>2026-04-26T08:10:52.098Z</time></trkpt><trkpt lat="44.2878784" lon="11.1046559"><ele>315.0</ele><time>2026-04-26T08:10:55.092Z</time></trkpt><trkpt lat="44.2879301" lon="11.1045974"><ele>315.0</ele><time>2026-04-26T08:10:58.088Z</time></trkpt><trkpt lat="44.2879606" lon="11.1044947"><ele>315.0</ele><time>2026-04-26T08:11:02.093Z</time></trkpt><trkpt lat="44.2879462" lon="11.1043952"><ele>315.0</ele><time>2026-04-26T08:11:05.093Z</time></trkpt><trkpt lat="44.2879058" lon="11.1043058"><ele>315.0</ele><time>2026-04-26T08:11:08.103Z</time></trkpt><trkpt lat="44.2878444" lon="11.1042544"><ele>315.0</ele><time>2026-04-26T08:11:11.095Z</time></trkpt><trkpt lat="44.2877716" lon="11.1042252"><ele>315.0</ele><time>2026-04-26T08:11:14.094Z</time></trkpt><trkpt lat="44.2876994" lon="11.1042023"><ele>315.0</ele><time>2026-04-26T08:11:17.09Z</time></trkpt><trkpt lat="44.287626" lon="11.1041855"><ele>315.0</ele><time>2026-04-26T08:11:20.094Z</time></trkpt><trkpt lat="44.2875478" lon="11.1041825"><ele>315.0</ele><time>2026-04-26T08:11:23.092Z</time></trkpt><trkpt lat="44.2874809" lon="11.1041703"><ele>315.0</ele><time>2026-04-26T08:11:26.094Z</time></trkpt><trkpt lat="44.2874132" lon="11.1041617"><ele>315.0</ele><time>2026-04-26T08:11:29.095Z</time></trkpt><trkpt lat="44.2873435" lon="11.1041427"><ele>315.0</ele><time>2026-04-26T08:11:32.086Z</time></trkpt><trkpt lat="44.2872824" lon="11.1041164"><ele>315.0</ele><time>2026-04-26T08:11:35.098Z</time></trkpt><trkpt lat="44.2872158" lon="11.1040691"><ele>315.0</ele><time>2026-04-26T08:11:39.092Z</time></trkpt><trkpt lat="44.2871644" lon="11.1040099"><ele>315.0</ele><time>2026-04-26T08:11:42.087Z</time></trkpt><trkpt lat="44.2871269" lon="11.1039333"><ele>315.0</ele><time>2026-04-26T08:11:45.095Z</time></trkpt><trkpt lat="44.287099" lon="11.1038489"><ele>315.0</ele><time>2026-04-26T08:11:48.101Z</time></trkpt><trkpt lat="44.2870884" lon="11.1037607"><ele>315.0</ele><time>2026-04-26T08:11:51.094Z</time></trkpt><trkpt lat="44.2871063" lon="11.1036554"><ele>313.85714285714283</ele><time>2026-04-26T08:11:55.098Z</time></trkpt><trkpt lat="44.2871387" lon="11.1035762"><ele>312.7142857142857</ele><time>2026-04-26T08:11:58.103Z</time></trkpt><trkpt lat="44.287177" lon="11.103494"><ele>311.57142857142856</ele><time>2026-04-26T08:12:01.096Z</time></trkpt><trkpt lat="44.287221" lon="11.1034184"><ele>310.42857142857144</ele><time>2026-04-26T08:12:04.099Z</time></trkpt><trkpt lat="44.2872536" lon="11.1033377"><ele>309.2857142857143</ele><time>2026-04-26T08:12:07.095Z</time></trkpt><trkpt lat="44.2872804" lon="11.1032553"><ele>308.1428571428571</ele><time>2026-04-26T08:12:10.087Z</time></trkpt><trkpt lat="44.2873001" lon="11.1031518"><ele>307.0</ele><time>2026-04-26T08:12:14.081Z</time></trkpt><trkpt lat="44.2872935" lon="11.1030468"><ele>307.2857142857143</ele><time>2026-04-26T08:12:18.093Z</time></trkpt><trkpt lat="44.2872775" lon="11.1029309"><ele>307.57142857142856</ele><time>2026-04-26T08:12:22.089Z</time></trkpt><trkpt lat="44.2872548" lon="11.1028375"><ele>307.8571428571429</ele><time>2026-04-26T08:12:25.088Z</time></trkpt><trkpt lat="44.2872299" lon="11.102741"><ele>308.1428571428571</ele><time>2026-04-26T08:12:28.096Z</time></trkpt><trkpt lat="44.2872073" lon="11.1026436"><ele>308.42857142857144</ele><time>2026-04-26T08:12:31.099Z</time></trkpt><trkpt lat="44.2871956" lon="11.1025534"><ele>308.7142857142857</ele><time>2026-04-26T08:12:34.097Z</time></trkpt><trkpt lat="44.2871863" lon="11.1024539"><ele>309.0</ele><time>2026-04-26T08:12:37.092Z</time></trkpt><trkpt lat="44.2871691" lon="11.1023672"><ele>309.5714285714286</ele><time>2026-04-26T08:12:40.086Z</time></trkpt><trkpt lat="44.2871455" lon="11.1022706"><ele>310.14285714285717</ele><time>2026-04-26T08:12:43.099Z</time></trkpt><trkpt lat="44.287134" lon="11.1021815"><ele>310.7142857142857</ele><time>2026-04-26T08:12:46.097Z</time></trkpt><trkpt lat="44.2871232" lon="11.102094"><ele>311.28571428571433</ele><time>2026-04-26T08:12:49.093Z</time></trkpt><trkpt lat="44.2871425" lon="11.1020057"><ele>311.8571428571429</ele><time>2026-04-26T08:12:52.097Z</time></trkpt><trkpt lat="44.2872077" lon="11.1019412"><ele>312.42857142857144</ele><time>2026-04-26T08:12:56.087Z</time></trkpt><trkpt lat="44.2872755" lon="11.1019502"><ele>313.0</ele><time>2026-04-26T08:13:00.101Z</time></trkpt><trkpt lat="44.2872891" lon="11.1020588"><ele>316.0</ele><time>2026-04-26T08:13:05.099Z</time></trkpt><trkpt lat="44.2872807" lon="11.1021707"><ele>319.0</ele><time>2026-04-26T08:13:09.102Z</time></trkpt><trkpt lat="44.2872727" lon="11.1022595"><ele>322.0</ele><time>2026-04-26T08:13:12.104Z</time></trkpt><trkpt lat="44.2872725" lon="11.1023649"><ele>325.0</ele><time>2026-04-26T08:13:15.095Z</time></trkpt><trkpt lat="44.2872845" lon="11.1024609"><ele>328.0</ele><time>2026-04-26T08:13:18.098Z</time></trkpt><trkpt lat="44.2873034" lon="11.1025543"><ele>331.0</ele><time>2026-04-26T08:13:21.093Z</time></trkpt><trkpt lat="44.2873379" lon="11.1026389"><ele>334.0</ele><time>2026-04-26T08:13:24.097Z</time></trkpt><trkpt lat="44.287376" lon="11.1027138"><ele>334.1428571428571</ele><time>2026-04-26T08:13:27.097Z</time></trkpt><trkpt lat="44.2874197" lon="11.1028003"><ele>334.2857142857143</ele><time>2026-04-26T08:13:30.092Z</time></trkpt><trkpt lat="44.2874606" lon="11.1028897"><ele>334.42857142857144</ele><time>2026-04-26T08:13:33.096Z</time></trkpt><trkpt lat="44.2874819" lon="11.1029788"><ele>334.57142857142856</ele><time>2026-04-26T08:13:36.1Z</time></trkpt><trkpt lat="44.2875135" lon="11.1030654"><ele>334.7142857142857</ele><time>2026-04-26T08:13:39.103Z</time></trkpt><trkpt lat="44.2875336" lon="11.103156"><ele>334.85714285714283</ele><time>2026-04-26T08:13:42.093Z</time></trkpt><trkpt lat="44.2875498" lon="11.1032498"><ele>335.0</ele><time>2026-04-26T08:13:45.11Z</time></trkpt><trkpt lat="44.2876002" lon="11.1033732"><ele>334.1428571428571</ele><time>2026-04-26T08:13:49.097Z</time></trkpt><trkpt lat="44.287647" lon="11.1034497"><ele>333.2857142857143</ele><time>2026-04-26T08:13:52.093Z</time></trkpt><trkpt lat="44.2876927" lon="11.1035154"><ele>332.42857142857144</ele><time>2026-04-26T08:13:55.083Z</time></trkpt><trkpt lat="44.2877592" lon="11.1035664"><ele>331.57142857142856</ele><time>2026-04-26T08:13:58.101Z</time></trkpt><trkpt lat="44.2878257" lon="11.103609"><ele>330.7142857142857</ele><time>2026-04-26T08:14:01.095Z</time></trkpt><trkpt lat="44.2878929" lon="11.1036379"><ele>329.85714285714283</ele><time>2026-04-26T08:14:04.096Z</time></trkpt><trkpt lat="44.2879641" lon="11.1036497"><ele>329.0</ele><time>2026-04-26T08:14:07.086Z</time></trkpt><trkpt lat="44.2880449" lon="11.1036626"><ele>331.42857142857144</ele><time>2026-04-26T08:14:10.101Z</time></trkpt><trkpt lat="44.288122" lon="11.1036661"><ele>333.8571428571429</ele><time>2026-04-26T08:14:13.096Z</time></trkpt><trkpt lat="44.2881868" lon="11.1036679"><ele>336.2857142857143</ele><time>2026-04-26T08:14:16.098Z</time></trkpt><trkpt lat="44.2882556" lon="11.1036702"><ele>338.7142857142857</ele><time>2026-04-26T08:14:19.096Z</time></trkpt><trkpt lat="44.2883255" lon="11.103673"><ele>341.14285714285717</ele><time>2026-04-26T08:14:22.093Z</time></trkpt><trkpt lat="44.2883997" lon="11.1036786"><ele>343.57142857142856</ele><time>2026-04-26T08:14:25.102Z</time></trkpt><trkpt lat="44.2884742" lon="11.1036879"><ele>346.0</ele><time>2026-04-26T08:14:28.095Z</time></trkpt><trkpt lat="44.2885483" lon="11.1037202"><ele>346.0</ele><time>2026-04-26T08:14:31.098Z</time></trkpt><trkpt lat="44.2886154" lon="11.1037741"><ele>346.0</ele><time>2026-04-26T08:14:34.09Z</time></trkpt><trkpt lat="44.2886751" lon="11.103833"><ele>346.0</ele><time>2026-04-26T08:14:37.102Z</time></trkpt><trkpt lat="44.2887117" lon="11.1039142"><ele>346.0</ele><time>2026-04-26T08:14:40.096Z</time></trkpt><trkpt lat="44.2887545" lon="11.1039861"><ele>346.0</ele><time>2026-04-26T08:14:43.094Z</time></trkpt><trkpt lat="44.288805" lon="11.1040609"><ele>346.0</ele><time>2026-04-26T08:14:47.092Z</time></trkpt><trkpt lat="44.2888721" lon="11.1041173"><ele>346.0</ele><time>2026-04-26T08:14:50.097Z</time></trkpt><trkpt lat="44.2889456" lon="11.104139"><ele>344.5</ele><time>2026-04-26T08:14:53.093Z</time></trkpt><trkpt lat="44.2890231" lon="11.1041464"><ele>343.0</ele><time>2026-04-26T08:14:56.093Z</time></trkpt><trkpt lat="44.2891064" lon="11.1041577"><ele>341.5</ele><time>2026-04-26T08:14:59.096Z</time></trkpt><trkpt lat="44.289186" lon="11.1041694"><ele>340.0</ele><time>2026-04-26T08:15:02.097Z</time></trkpt><trkpt lat="44.2892624" lon="11.1041663"><ele>338.5</ele><time>2026-04-26T08:15:05.092Z</time></trkpt><trkpt lat="44.2893285" lon="11.1041197"><ele>337.0</ele><time>2026-04-26T08:15:08.097Z</time></trkpt><trkpt lat="44.2893634" lon="11.1040462"><ele>340.5</ele><time>2026-04-26T08:15:11.095Z</time></trkpt><trkpt lat="44.2893715" lon="11.103957"><ele>344.0</ele><time>2026-04-26T08:16:56.096Z</time></trkpt><trkpt lat="44.2893284" lon="11.1038721"><ele>347.5</ele><time>2026-04-26T08:17:00.088Z</time></trkpt><trkpt lat="44.2892457" lon="11.1038277"><ele>351.0</ele><time>2026-04-26T08:17:03.094Z</time></trkpt><trkpt lat="44.2891635" lon="11.1038043"><ele>354.5</ele><time>2026-04-26T08:17:06.095Z</time></trkpt><trkpt lat="44.2890878" lon="11.1037993"><ele>358.0</ele><time>2026-04-26T08:17:09.091Z</time></trkpt><trkpt lat="44.2890155" lon="11.1037675"><ele>358.00000000000006</ele><time>2026-04-26T08:17:12.093Z</time></trkpt><trkpt lat="44.2889596" lon="11.1036988"><ele>358.0</ele><time>2026-04-26T08:17:15.096Z</time></trkpt><trkpt lat="44.2889264" lon="11.1036102"><ele>358.0</ele><time>2026-04-26T08:17:18.096Z</time></trkpt><trkpt lat="44.2888804" lon="11.1035305"><ele>358.0</ele><time>2026-04-26T08:17:21.101Z</time></trkpt><trkpt lat="44.2888183" lon="11.1034609"><ele>358.0</ele><time>2026-04-26T08:17:24.085Z</time></trkpt><trkpt lat="44.2887486" lon="11.1034028"><ele>358.00000000000006</ele><time>2026-04-26T08:17:27.092Z</time></trkpt><trkpt lat="44.2886934" lon="11.1033446"><ele>358.0</ele><time>2026-04-26T08:17:30.095Z</time></trkpt><trkpt lat="44.2886371" lon="11.1032883"><ele>358.28571428571433</ele><time>2026-04-26T08:17:33.1Z</time></trkpt><trkpt lat="44.2885699" lon="11.1032407"><ele>358.57142857142856</ele><time>2026-04-26T08:17:36.095Z</time></trkpt><trkpt lat="44.2885041" lon="11.1031953"><ele>358.8571428571429</ele><time>2026-04-26T08:17:39.092Z</time></trkpt><trkpt lat="44.2884365" lon="11.1031623"><ele>359.14285714285717</ele><time>2026-04-26T08:17:42.096Z</time></trkpt><trkpt lat="44.2883754" lon="11.1031332"><ele>359.42857142857144</ele><time>2026-04-26T08:17:45.093Z</time></trkpt><trkpt lat="44.2883102" lon="11.1031063"><ele>359.7142857142857</ele><time>2026-04-26T08:17:48.095Z</time></trkpt><trkpt lat="44.2882509" lon="11.1030649"><ele>360.0</ele><time>2026-04-26T08:17:51.091Z</time></trkpt><trkpt lat="44.2881976" lon="11.1030102"><ele>360.0</ele><time>2026-04-26T08:17:54.1Z</time></trkpt><trkpt lat="44.2881471" lon="11.1029324"><ele>360.0</ele><time>2026-04-26T08:17:57.096Z</time></trkpt><trkpt lat="44.2881128" lon="11.1028435"><ele>360.0</ele><time>2026-04-26T08:18:00.09Z</time></trkpt><trkpt lat="44.288102" lon="11.102738"><ele>360.0</ele><time>2026-04-26T08:18:03.088Z</time></trkpt><trkpt lat="44.2880824" lon="11.1026333"><ele>360.0</ele><time>2026-04-26T08:18:06.093Z</time></trkpt><trkpt lat="44.2880608" lon="11.1025244"><ele>360.0</ele><time>2026-04-26T08:18:09.1Z</time></trkpt><trkpt lat="44.2880471" lon="11.1024312"><ele>359.1428571428571</ele><time>2026-04-26T08:18:12.099Z</time></trkpt><trkpt lat="44.2880475" lon="11.1023373"><ele>358.28571428571433</ele><time>2026-04-26T08:18:15.098Z</time></trkpt><trkpt lat="44.28806" lon="11.1022367"><ele>357.42857142857144</ele><time>2026-04-26T08:18:18.093Z</time></trkpt><trkpt lat="44.2880866" lon="11.1021356"><ele>356.57142857142856</ele><time>2026-04-26T08:18:21.092Z</time></trkpt><trkpt lat="44.2881186" lon="11.1020475"><ele>355.71428571428567</ele><time>2026-04-26T08:18:24.087Z</time></trkpt><trkpt lat="44.2881567" lon="11.1019616"><ele>354.8571428571429</ele><time>2026-04-26T08:18:27.095Z</time></trkpt><trkpt lat="44.2882009" lon="11.1018857"><ele>354.0</ele><time>2026-04-26T08:18:30.095Z</time></trkpt><trkpt lat="44.2882509" lon="11.1018249"><ele>354.0</ele><time>2026-04-26T08:18:33.092Z</time></trkpt><trkpt lat="44.2883024" lon="11.1017614"><ele>354.0</ele><time>2026-04-26T08:18:36.101Z</time></trkpt><trkpt lat="44.28836" lon="11.101698"><ele>354.0</ele><time>2026-04-26T08:18:39.09Z</time></trkpt><trkpt lat="44.2884251" lon="11.1016512"><ele>354.0</ele><time>2026-04-26T08:18:42.093Z</time></trkpt><trkpt lat="44.2884898" lon="11.1016095"><ele>354.0</ele><time>2026-04-26T08:18:45.093Z</time></trkpt><trkpt lat="44.2885616" lon="11.1015678"><ele>354.0</ele><time>2026-04-26T08:18:48.093Z</time></trkpt><trkpt lat="44.2886265" lon="11.1015227"><ele>354.0</ele><time>2026-04-26T08:18:51.097Z</time></trkpt><trkpt lat="44.288678" lon="11.1014588"><ele>352.0</ele><time>2026-04-26T08:18:54.095Z</time></trkpt><trkpt lat="44.2887203" lon="11.1013612"><ele>350.0</ele><time>2026-04-26T08:18:57.096Z</time></trkpt><trkpt lat="44.2887452" lon="11.1012528"><ele>348.0</ele><time>2026-04-26T08:19:00.095Z</time></trkpt><trkpt lat="44.2887754" lon="11.1011365"><ele>346.0</ele><time>2026-04-26T08:19:03.102Z</time></trkpt><trkpt lat="44.2888007" lon="11.1010318"><ele>344.0</ele><time>2026-04-26T08:19:06.091Z</time></trkpt><trkpt lat="44.2888465" lon="11.100948"><ele>342.0</ele><time>2026-04-26T08:19:09.092Z</time></trkpt><trkpt lat="44.2889209" lon="11.100932"><ele>341.99999999999994</ele><time>2026-04-26T08:19:13.098Z</time></trkpt><trkpt lat="44.2889697" lon="11.1010243"><ele>342.0</ele><time>2026-04-26T08:19:17.094Z</time></trkpt><trkpt lat="44.2889558" lon="11.1011118"><ele>342.0</ele><time>2026-04-26T08:19:20.098Z</time></trkpt><trkpt lat="44.28891" lon="11.101195"><ele>342.0</ele><time>2026-04-26T08:19:23.104Z</time></trkpt><trkpt lat="44.2888645" lon="11.1012602"><ele>342.0</ele><time>2026-04-26T08:19:26.102Z</time></trkpt><trkpt lat="44.2888203" lon="11.1013419"><ele>341.99999999999994</ele><time>2026-04-26T08:19:29.095Z</time></trkpt><trkpt lat="44.288775" lon="11.1014132"><ele>342.0</ele><time>2026-04-26T08:19:32.097Z</time></trkpt><trkpt lat="44.2887246" lon="11.1014828"><ele>341.99999999999994</ele><time>2026-04-26T08:19:35.098Z</time></trkpt><trkpt lat="44.2886806" lon="11.1015526"><ele>342.0</ele><time>2026-04-26T08:19:38.093Z</time></trkpt><trkpt lat="44.2886329" lon="11.1016248"><ele>342.0</ele><time>2026-04-26T08:19:41.09Z</time></trkpt><trkpt lat="44.2885803" lon="11.1016957"><ele>342.0</ele><time>2026-04-26T08:19:44.088Z</time></trkpt><trkpt lat="44.2885261" lon="11.10178"><ele>342.0</ele><time>2026-04-26T08:19:47.088Z</time></trkpt><trkpt lat="44.2884806" lon="11.1018514"><ele>341.99999999999994</ele><time>2026-04-26T08:19:50.093Z</time></trkpt><trkpt lat="44.2884442" lon="11.1019234"><ele>342.0</ele><time>2026-04-26T08:19:53.094Z</time></trkpt><trkpt lat="44.2884129" lon="11.1020063"><ele>343.71428571428567</ele><time>2026-04-26T08:19:56.093Z</time></trkpt><trkpt lat="44.2883881" lon="11.102102"><ele>345.42857142857144</ele><time>2026-04-26T08:19:59.096Z</time></trkpt><trkpt lat="44.2883631" lon="11.1021942"><ele>347.1428571428571</ele><time>2026-04-26T08:20:02.094Z</time></trkpt><trkpt lat="44.2883602" lon="11.1022879"><ele>348.85714285714283</ele><time>2026-04-26T08:20:05.097Z</time></trkpt><trkpt lat="44.2883804" lon="11.1023765"><ele>350.57142857142856</ele><time>2026-04-26T08:20:08.091Z</time></trkpt><trkpt lat="44.2884287" lon="11.1024623"><ele>352.2857142857143</ele><time>2026-04-26T08:20:12.091Z</time></trkpt><trkpt lat="44.2885041" lon="11.1025143"><ele>354.0</ele><time>2026-04-26T08:20:16.1Z</time></trkpt><trkpt lat="44.2885753" lon="11.1025317"><ele>355.0</ele><time>2026-04-26T08:20:19.099Z</time></trkpt><trkpt lat="44.2886546" lon="11.1025423"><ele>356.0</ele><time>2026-04-26T08:20:22.094Z</time></trkpt><trkpt lat="44.2887364" lon="11.1025561"><ele>357.0</ele><time>2026-04-26T08:20:25.095Z</time></trkpt><trkpt lat="44.2888092" lon="11.1025716"><ele>358.0</ele><time>2026-04-26T08:20:28.097Z</time></trkpt><trkpt lat="44.2888797" lon="11.1025792"><ele>359.0</ele><time>2026-04-26T08:20:31.115Z</time></trkpt><trkpt lat="44.2889488" lon="11.1025919"><ele>360.0</ele><time>2026-04-26T08:20:34.094Z</time></trkpt><trkpt lat="44.2890247" lon="11.1026097"><ele>362.0</ele><time>2026-04-26T08:20:37.098Z</time></trkpt><trkpt lat="44.2890894" lon="11.102628"><ele>364.0</ele><time>2026-04-26T08:20:40.087Z</time></trkpt><trkpt lat="44.2891726" lon="11.1026545"><ele>366.0</ele><time>2026-04-26T08:20:44.094Z</time></trkpt><trkpt lat="44.289243" lon="11.1026699"><ele>368.0</ele><time>2026-04-26T08:20:47.088Z</time></trkpt><trkpt lat="44.2894606" lon="11.1026727"><ele>370.0</ele><time>2026-04-26T08:20:56.09Z</time></trkpt><trkpt lat="44.2895267" lon="11.1026652"><ele>369.99999999999994</ele><time>2026-04-26T08:20:59.102Z</time></trkpt><trkpt lat="44.2896052" lon="11.1026545"><ele>370.0</ele><time>2026-04-26T08:21:03.103Z</time></trkpt><trkpt lat="44.2896705" lon="11.1026415"><ele>370.0</ele><time>2026-04-26T08:21:06.087Z</time></trkpt><trkpt lat="44.2897425" lon="11.102636"><ele>370.0</ele><time>2026-04-26T08:21:09.104Z</time></trkpt><trkpt lat="44.2898199" lon="11.102627"><ele>370.0</ele><time>2026-04-26T08:21:12.102Z</time></trkpt><trkpt lat="44.2898937" lon="11.1026222"><ele>369.99999999999994</ele><time>2026-04-26T08:21:15.099Z</time></trkpt><trkpt lat="44.2899642" lon="11.1026226"><ele>370.0</ele><time>2026-04-26T08:21:18.095Z</time></trkpt><trkpt lat="44.2900307" lon="11.1026318"><ele>371.85714285714283</ele><time>2026-04-26T08:21:21.091Z</time></trkpt><trkpt lat="44.2900978" lon="11.1026478"><ele>373.7142857142857</ele><time>2026-04-26T08:21:24.09Z</time></trkpt><trkpt lat="44.2901639" lon="11.1026701"><ele>375.57142857142856</ele><time>2026-04-26T08:21:27.092Z</time></trkpt><trkpt lat="44.290229" lon="11.1026938"><ele>377.42857142857144</ele><time>2026-04-26T08:21:30.094Z</time></trkpt><trkpt lat="44.2903007" lon="11.1027135"><ele>379.2857142857143</ele><time>2026-04-26T08:21:33.087Z</time></trkpt><trkpt lat="44.2903704" lon="11.1027376"><ele>381.1428571428571</ele><time>2026-04-26T08:21:36.1Z</time></trkpt><trkpt lat="44.2904401" lon="11.102767"><ele>383.0</ele><time>2026-04-26T08:21:39.098Z</time></trkpt><trkpt lat="44.290518" lon="11.1027932"><ele>383.0</ele><time>2026-04-26T08:21:42.094Z</time></trkpt><trkpt lat="44.2905873" lon="11.1028348"><ele>383.0</ele><time>2026-04-26T08:21:45.087Z</time></trkpt><trkpt lat="44.2906632" lon="11.1028701"><ele>383.0</ele><time>2026-04-26T08:21:48.089Z</time></trkpt><trkpt lat="44.2907482" lon="11.1028989"><ele>383.0</ele><time>2026-04-26T08:21:51.095Z</time></trkpt><trkpt lat="44.2908141" lon="11.1028889"><ele>383.0</ele><time>2026-04-26T08:21:54.092Z</time></trkpt><trkpt lat="44.2908733" lon="11.1028319"><ele>383.0</ele><time>2026-04-26T08:21:57.096Z</time></trkpt><trkpt lat="44.2909127" lon="11.1027462"><ele>384.83333333333337</ele><time>2026-04-26T08:22:00.116Z</time></trkpt><trkpt lat="44.2909194" lon="11.1026536"><ele>386.6666666666667</ele><time>2026-04-26T08:22:03.089Z</time></trkpt><trkpt lat="44.2908951" lon="11.1025493"><ele>388.5</ele><time>2026-04-26T08:22:06.089Z</time></trkpt><trkpt lat="44.2908474" lon="11.1024789"><ele>390.33333333333337</ele><time>2026-04-26T08:22:09.091Z</time></trkpt><trkpt lat="44.2907659" lon="11.1024339"><ele>392.1666666666667</ele><time>2026-04-26T08:22:13.093Z</time></trkpt><trkpt lat="44.2906918" lon="11.1024172"><ele>394.0</ele><time>2026-04-26T08:22:16.087Z</time></trkpt><trkpt lat="44.2906192" lon="11.1024017"><ele>392.0</ele><time>2026-04-26T08:22:19.091Z</time></trkpt><trkpt lat="44.2905474" lon="11.1023708"><ele>390.0</ele><time>2026-04-26T08:22:22.099Z</time></trkpt><trkpt lat="44.2904805" lon="11.1023281"><ele>388.0</ele><time>2026-04-26T08:22:25.091Z</time></trkpt><trkpt lat="44.2904147" lon="11.102274"><ele>386.0</ele><time>2026-04-26T08:22:28.093Z</time></trkpt><trkpt lat="44.2903574" lon="11.1022179"><ele>384.0</ele><time>2026-04-26T08:22:31.091Z</time></trkpt><trkpt lat="44.2903114" lon="11.1021532"><ele>382.0</ele><time>2026-04-26T08:22:34.092Z</time></trkpt><trkpt lat="44.2902729" lon="11.1020805"><ele>380.0</ele><time>2026-04-26T08:22:37.098Z</time></trkpt><trkpt lat="44.2902342" lon="11.1019785"><ele>380.0</ele><time>2026-04-26T08:22:41.095Z</time></trkpt><trkpt lat="44.2902279" lon="11.1018815"><ele>380.0</ele><time>2026-04-26T08:22:44.087Z</time></trkpt><trkpt lat="44.2902433" lon="11.1017681"><ele>380.0</ele><time>2026-04-26T08:22:48.092Z</time></trkpt><trkpt lat="44.29028" lon="11.1016947"><ele>380.0</ele><time>2026-04-26T08:22:51.12Z</time></trkpt><trkpt lat="44.2903422" lon="11.1016351"><ele>380.0</ele><time>2026-04-26T08:22:55.096Z</time></trkpt><trkpt lat="44.2904156" lon="11.1015776"><ele>380.0</ele><time>2026-04-26T08:22:59.096Z</time></trkpt><trkpt lat="44.2904761" lon="11.1015421"><ele>380.0</ele><time>2026-04-26T08:23:02.094Z</time></trkpt><trkpt lat="44.2905514" lon="11.1014806"><ele>379.57142857142856</ele><time>2026-04-26T08:23:06.097Z</time></trkpt><trkpt lat="44.2906074" lon="11.1014128"><ele>379.14285714285717</ele><time>2026-04-26T08:23:09.1Z</time></trkpt><trkpt lat="44.2906554" lon="11.1013399"><ele>378.71428571428567</ele><time>2026-04-26T08:23:12.102Z</time></trkpt><trkpt lat="44.2907095" lon="11.1012607"><ele>378.2857142857143</ele><time>2026-04-26T08:23:15.088Z</time></trkpt><trkpt lat="44.2907706" lon="11.1011937"><ele>377.85714285714283</ele><time>2026-04-26T08:23:18.092Z</time></trkpt><trkpt lat="44.2908327" lon="11.1011513"><ele>377.4285714285714</ele><time>2026-04-26T08:23:21.089Z</time></trkpt><trkpt lat="44.2908977" lon="11.1011037"><ele>377.0</ele><time>2026-04-26T08:23:24.093Z</time></trkpt><trkpt lat="44.290956" lon="11.1010532"><ele>376.99999999999994</ele><time>2026-04-26T08:23:27.101Z</time></trkpt><trkpt lat="44.2910174" lon="11.1009867"><ele>377.0</ele><time>2026-04-26T08:23:30.098Z</time></trkpt><trkpt lat="44.2910729" lon="11.1009146"><ele>377.0</ele><time>2026-04-26T08:23:33.092Z</time></trkpt><trkpt lat="44.2911258" lon="11.1008536"><ele>377.0</ele><time>2026-04-26T08:23:36.094Z</time></trkpt><trkpt lat="44.2911786" lon="11.1008038"><ele>377.0</ele><time>2026-04-26T08:23:39.087Z</time></trkpt><trkpt lat="44.291226" lon="11.1007434"><ele>376.99999999999994</ele><time>2026-04-26T08:23:42.102Z</time></trkpt><trkpt lat="44.2912763" lon="11.1006698"><ele>377.0</ele><time>2026-04-26T08:23:45.098Z</time></trkpt><trkpt lat="44.2913289" lon="11.1005999"><ele>379.1428571428571</ele><time>2026-04-26T08:23:48.107Z</time></trkpt><trkpt lat="44.2913883" lon="11.1005359"><ele>381.2857142857143</ele><time>2026-04-26T08:23:51.095Z</time></trkpt><trkpt lat="44.2914484" lon="11.1004672"><ele>383.42857142857144</ele><time>2026-04-26T08:23:54.101Z</time></trkpt><trkpt lat="44.2915086" lon="11.1003996"><ele>385.57142857142856</ele><time>2026-04-26T08:23:57.09Z</time></trkpt><trkpt lat="44.2915625" lon="11.1003426"><ele>387.7142857142857</ele><time>2026-04-26T08:24:00.09Z</time></trkpt><trkpt lat="44.2916206" lon="11.1002901"><ele>389.85714285714283</ele><time>2026-04-26T08:24:03.09Z</time></trkpt><trkpt lat="44.2916784" lon="11.1002334"><ele>392.0</ele><time>2026-04-26T08:24:06.096Z</time></trkpt><trkpt lat="44.2917314" lon="11.100166"><ele>392.0</ele><time>2026-04-26T08:24:09.093Z</time></trkpt><trkpt lat="44.2917833" lon="11.1001125"><ele>392.0</ele><time>2026-04-26T08:24:12.093Z</time></trkpt><trkpt lat="44.2918319" lon="11.1000384"><ele>392.0</ele><time>2026-04-26T08:24:15.092Z</time></trkpt><trkpt lat="44.2918989" lon="11.0999873"><ele>392.0</ele><time>2026-04-26T08:24:18.094Z</time></trkpt><trkpt lat="44.2919679" lon="11.0999591"><ele>392.0</ele><time>2026-04-26T08:24:21.09Z</time></trkpt><trkpt lat="44.2920376" lon="11.0999251"><ele>392.0</ele><time>2026-04-26T08:24:24.087Z</time></trkpt><trkpt lat="44.2921086" lon="11.099878"><ele>392.0</ele><time>2026-04-26T08:24:27.094Z</time></trkpt><trkpt lat="44.2921749" lon="11.0998099"><ele>393.49999999999994</ele><time>2026-04-26T08:24:30.087Z</time></trkpt><trkpt lat="44.2922324" lon="11.0997247"><ele>395.0</ele><time>2026-04-26T08:24:33.091Z</time></trkpt><trkpt lat="44.2922822" lon="11.0996412"><ele>396.5</ele><time>2026-04-26T08:24:36.094Z</time></trkpt><trkpt lat="44.2923349" lon="11.0995718"><ele>398.0</ele><time>2026-04-26T08:24:39.089Z</time></trkpt><trkpt lat="44.2923918" lon="11.0994948"><ele>399.49999999999994</ele><time>2026-04-26T08:24:42.099Z</time></trkpt><trkpt lat="44.2924466" lon="11.099408"><ele>401.0</ele><time>2026-04-26T08:24:45.094Z</time></trkpt><trkpt lat="44.2924929" lon="11.0993257"><ele>400.99999999999994</ele><time>2026-04-26T08:24:48.1Z</time></trkpt><trkpt lat="44.2925397" lon="11.0992396"><ele>401.0</ele><time>2026-04-26T08:24:51.102Z</time></trkpt><trkpt lat="44.2925821" lon="11.0991275"><ele>401.0</ele><time>2026-04-26T08:24:54.091Z</time></trkpt><trkpt lat="44.2926174" lon="11.0990104"><ele>401.0</ele><time>2026-04-26T08:24:57.093Z</time></trkpt><trkpt lat="44.2926546" lon="11.0988877"><ele>400.99999999999994</ele><time>2026-04-26T08:25:00.092Z</time></trkpt><trkpt lat="44.2926916" lon="11.0987738"><ele>401.0</ele><time>2026-04-26T08:25:03.096Z</time></trkpt><trkpt lat="44.2927341" lon="11.0986714"><ele>398.3333333333333</ele><time>2026-04-26T08:25:06.093Z</time></trkpt><trkpt lat="44.2927812" lon="11.0985873"><ele>395.66666666666663</ele><time>2026-04-26T08:25:09.094Z</time></trkpt><trkpt lat="44.292825" lon="11.098501"><ele>393.0</ele><time>2026-04-26T08:25:12.095Z</time></trkpt><trkpt lat="44.2928582" lon="11.0984089"><ele>390.33333333333337</ele><time>2026-04-26T08:25:15.097Z</time></trkpt><trkpt lat="44.2928758" lon="11.0982962"><ele>387.6666666666667</ele><time>2026-04-26T08:25:18.088Z</time></trkpt><trkpt lat="44.2928847" lon="11.0981908"><ele>385.0</ele><time>2026-04-26T08:25:21.095Z</time></trkpt><trkpt lat="44.2928997" lon="11.0980878"><ele>384.50000000000006</ele><time>2026-04-26T08:25:24.097Z</time></trkpt><trkpt lat="44.2929216" lon="11.0979836"><ele>384.0</ele><time>2026-04-26T08:25:27.096Z</time></trkpt><trkpt lat="44.2929508" lon="11.0978848"><ele>383.5</ele><time>2026-04-26T08:25:30.092Z</time></trkpt><trkpt lat="44.2929798" lon="11.0977894"><ele>383.0</ele><time>2026-04-26T08:25:33.095Z</time></trkpt><trkpt lat="44.2930096" lon="11.0976904"><ele>382.5</ele><time>2026-04-26T08:25:36.094Z</time></trkpt><trkpt lat="44.2930403" lon="11.0975818"><ele>382.0</ele><time>2026-04-26T08:25:39.097Z</time></trkpt><trkpt lat="44.293057" lon="11.0974704"><ele>380.8333333333333</ele><time>2026-04-26T08:25:42.092Z</time></trkpt><trkpt lat="44.2930708" lon="11.0973591"><ele>379.66666666666663</ele><time>2026-04-26T08:25:45.094Z</time></trkpt><trkpt lat="44.293089" lon="11.0972512"><ele>378.5</ele><time>2026-04-26T08:25:48.093Z</time></trkpt><trkpt lat="44.2931051" lon="11.0971494"><ele>377.3333333333333</ele><time>2026-04-26T08:25:51.098Z</time></trkpt><trkpt lat="44.2931188" lon="11.0970409"><ele>376.1666666666667</ele><time>2026-04-26T08:25:54.093Z</time></trkpt><trkpt lat="44.2931456" lon="11.0969381"><ele>375.0</ele><time>2026-04-26T08:25:57.094Z</time></trkpt><trkpt lat="44.2931784" lon="11.0968465"><ele>377.5</ele><time>2026-04-26T08:26:00.095Z</time></trkpt><trkpt lat="44.2932137" lon="11.0967525"><ele>380.0</ele><time>2026-04-26T08:26:03.097Z</time></trkpt><trkpt lat="44.2932673" lon="11.0966558"><ele>382.5</ele><time>2026-04-26T08:26:06.095Z</time></trkpt><trkpt lat="44.2933107" lon="11.096556"><ele>385.0</ele><time>2026-04-26T08:26:09.096Z</time></trkpt><trkpt lat="44.2933654" lon="11.0964792"><ele>387.5</ele><time>2026-04-26T08:26:12.093Z</time></trkpt><trkpt lat="44.2934184" lon="11.0964037"><ele>390.0</ele><time>2026-04-26T08:26:15.089Z</time></trkpt><trkpt lat="44.293457" lon="11.0963165"><ele>390.0</ele><time>2026-04-26T08:26:18.089Z</time></trkpt><trkpt lat="44.2934989" lon="11.0962315"><ele>390.0</ele><time>2026-04-26T08:26:21.124Z</time></trkpt><trkpt lat="44.2935421" lon="11.0961471"><ele>390.0</ele><time>2026-04-26T08:26:24.093Z</time></trkpt><trkpt lat="44.2935912" lon="11.0960691"><ele>390.0</ele><time>2026-04-26T08:26:27.106Z</time></trkpt><trkpt lat="44.2936323" lon="11.0960004"><ele>390.0</ele><time>2026-04-26T08:26:29.088Z</time></trkpt><trkpt lat="44.2936781" lon="11.0958938"><ele>390.0</ele><time>2026-04-26T08:26:32.095Z</time></trkpt><trkpt lat="44.2937323" lon="11.0958246"><ele>390.0</ele><time>2026-04-26T08:26:35.089Z</time></trkpt><trkpt lat="44.2937961" lon="11.0957786"><ele>386.8333333333333</ele><time>2026-04-26T08:26:38.099Z</time></trkpt><trkpt lat="44.2938586" lon="11.0957447"><ele>383.6666666666667</ele><time>2026-04-26T08:26:41.09Z</time></trkpt><trkpt lat="44.2939146" lon="11.0956684"><ele>380.5</ele><time>2026-04-26T08:26:44.092Z</time></trkpt><trkpt lat="44.2939673" lon="11.0955792"><ele>377.33333333333337</ele><time>2026-04-26T08:26:47.094Z</time></trkpt><trkpt lat="44.2940098" lon="11.0954668"><ele>374.1666666666667</ele><time>2026-04-26T08:26:50.098Z</time></trkpt><trkpt lat="44.2940537" lon="11.0953624"><ele>371.0</ele><time>2026-04-26T08:26:53.094Z</time></trkpt><trkpt lat="44.2940974" lon="11.0952698"><ele>374.33333333333337</ele><time>2026-04-26T08:26:56.093Z</time></trkpt><trkpt lat="44.29415" lon="11.0951791"><ele>377.6666666666667</ele><time>2026-04-26T08:26:59.09Z</time></trkpt><trkpt lat="44.2942073" lon="11.0951015"><ele>381.0</ele><time>2026-04-26T08:27:02.092Z</time></trkpt><trkpt lat="44.2942511" lon="11.0950077"><ele>384.33333333333337</ele><time>2026-04-26T08:27:05.093Z</time></trkpt><trkpt lat="44.2942873" lon="11.0949142"><ele>387.6666666666667</ele><time>2026-04-26T08:27:08.092Z</time></trkpt><trkpt lat="44.294326" lon="11.0948133"><ele>391.0</ele><time>2026-04-26T08:27:11.086Z</time></trkpt><trkpt lat="44.2943693" lon="11.0947451"><ele>390.99999999999994</ele><time>2026-04-26T08:27:13.098Z</time></trkpt><trkpt lat="44.2944234" lon="11.0946608"><ele>391.0</ele><time>2026-04-26T08:27:16.137Z</time></trkpt><trkpt lat="44.2944714" lon="11.0945777"><ele>391.0</ele><time>2026-04-26T08:27:19.095Z</time></trkpt><trkpt lat="44.2945283" lon="11.0945196"><ele>391.0</ele><time>2026-04-26T08:27:22.099Z</time></trkpt><trkpt lat="44.2945978" lon="11.0944827"><ele>391.0</ele><time>2026-04-26T08:27:25.095Z</time></trkpt><trkpt lat="44.2946612" lon="11.0944403"><ele>390.99999999999994</ele><time>2026-04-26T08:27:28.095Z</time></trkpt><trkpt lat="44.294726" lon="11.094394"><ele>391.0</ele><time>2026-04-26T08:27:31.094Z</time></trkpt><trkpt lat="44.2947848" lon="11.0943443"><ele>392.99999999999994</ele><time>2026-04-26T08:27:34.098Z</time></trkpt><trkpt lat="44.2948466" lon="11.0943006"><ele>395.0</ele><time>2026-04-26T08:27:37.093Z</time></trkpt><trkpt lat="44.2949007" lon="11.094234"><ele>397.0</ele><time>2026-04-26T08:27:40.099Z</time></trkpt><trkpt lat="44.294951" lon="11.0941572"><ele>399.0</ele><time>2026-04-26T08:27:43.104Z</time></trkpt><trkpt lat="44.2949998" lon="11.0940873"><ele>401.0</ele><time>2026-04-26T08:27:46.092Z</time></trkpt><trkpt lat="44.2950507" lon="11.0940201"><ele>402.99999999999994</ele><time>2026-04-26T08:27:49.085Z</time></trkpt><trkpt lat="44.2951003" lon="11.0939455"><ele>405.0</ele><time>2026-04-26T08:27:52.09Z</time></trkpt><trkpt lat="44.2951409" lon="11.0938391"><ele>405.0</ele><time>2026-04-26T08:27:56.087Z</time></trkpt><trkpt lat="44.295181" lon="11.0937395"><ele>405.0</ele><time>2026-04-26T08:27:59.098Z</time></trkpt><trkpt lat="44.2952275" lon="11.0936458"><ele>405.0</ele><time>2026-04-26T08:28:02.094Z</time></trkpt><trkpt lat="44.2952663" lon="11.0935536"><ele>405.0</ele><time>2026-04-26T08:28:05.088Z</time></trkpt><trkpt lat="44.2953243" lon="11.0934633"><ele>405.0</ele><time>2026-04-26T08:28:08.093Z</time></trkpt><trkpt lat="44.2953858" lon="11.0933909"><ele>405.0</ele><time>2026-04-26T08:28:11.093Z</time></trkpt><trkpt lat="44.2954322" lon="11.0933045"><ele>403.1666666666667</ele><time>2026-04-26T08:28:14.089Z</time></trkpt><trkpt lat="44.2954692" lon="11.0932099"><ele>401.33333333333337</ele><time>2026-04-26T08:28:17.086Z</time></trkpt><trkpt lat="44.295504" lon="11.0931092"><ele>399.5</ele><time>2026-04-26T08:28:20.087Z</time></trkpt><trkpt lat="44.2955435" lon="11.09302"><ele>397.6666666666667</ele><time>2026-04-26T08:28:23.091Z</time></trkpt><trkpt lat="44.2956005" lon="11.0929425"><ele>395.83333333333337</ele><time>2026-04-26T08:28:26.093Z</time></trkpt><trkpt lat="44.2956662" lon="11.0928933"><ele>394.0</ele><time>2026-04-26T08:28:29.097Z</time></trkpt><trkpt lat="44.2957359" lon="11.0928822"><ele>397.57142857142856</ele><time>2026-04-26T08:28:32.092Z</time></trkpt><trkpt lat="44.2958026" lon="11.0929185"><ele>401.14285714285717</ele><time>2026-04-26T08:28:35.095Z</time></trkpt><trkpt lat="44.2958607" lon="11.0929796"><ele>404.71428571428567</ele><time>2026-04-26T08:28:38.092Z</time></trkpt><trkpt lat="44.2959206" lon="11.0930454"><ele>408.2857142857143</ele><time>2026-04-26T08:28:42.095Z</time></trkpt><trkpt lat="44.2959666" lon="11.0931065"><ele>411.85714285714283</ele><time>2026-04-26T08:28:45.093Z</time></trkpt><trkpt lat="44.296013" lon="11.0931714"><ele>415.4285714285714</ele><time>2026-04-26T08:28:48.095Z</time></trkpt><trkpt lat="44.2960599" lon="11.0932432"><ele>419.0</ele><time>2026-04-26T08:28:51.098Z</time></trkpt><trkpt lat="44.2961216" lon="11.093297"><ele>418.99999999999994</ele><time>2026-04-26T08:28:54.093Z</time></trkpt><trkpt lat="44.2962015" lon="11.0933266"><ele>419.0</ele><time>2026-04-26T08:28:57.094Z</time></trkpt><trkpt lat="44.2962855" lon="11.0932956"><ele>419.0</ele><time>2026-04-26T08:29:00.09Z</time></trkpt><trkpt lat="44.2963584" lon="11.0932225"><ele>419.0</ele><time>2026-04-26T08:29:03.104Z</time></trkpt><trkpt lat="44.2963899" lon="11.0931434"><ele>418.99999999999994</ele><time>2026-04-26T08:29:06.087Z</time></trkpt><trkpt lat="44.2963756" lon="11.09304"><ele>419.0</ele><time>2026-04-26T08:29:09.093Z</time></trkpt><trkpt lat="44.2963401" lon="11.0929613"><ele>418.99999999999994</ele><time>2026-04-26T08:29:11.097Z</time></trkpt><trkpt lat="44.2962974" lon="11.0928636"><ele>419.0</ele><time>2026-04-26T08:29:14.085Z</time></trkpt><trkpt lat="44.2962622" lon="11.0927568"><ele>419.0</ele><time>2026-04-26T08:29:17.09Z</time></trkpt><trkpt lat="44.2962448" lon="11.0926537"><ele>419.0</ele><time>2026-04-26T08:29:20.09Z</time></trkpt><trkpt lat="44.2962354" lon="11.0925472"><ele>418.99999999999994</ele><time>2026-04-26T08:29:23.092Z</time></trkpt><trkpt lat="44.2962505" lon="11.0924483"><ele>419.0</ele><time>2026-04-26T08:29:26.091Z</time></trkpt><trkpt lat="44.2962555" lon="11.0923526"><ele>417.1428571428571</ele><time>2026-04-26T08:29:29.094Z</time></trkpt><trkpt lat="44.2962672" lon="11.0922611"><ele>415.2857142857143</ele><time>2026-04-26T08:29:32.093Z</time></trkpt><trkpt lat="44.2962795" lon="11.0921658"><ele>413.42857142857144</ele><time>2026-04-26T08:29:35.088Z</time></trkpt><trkpt lat="44.296304" lon="11.0920776"><ele>411.57142857142856</ele><time>2026-04-26T08:29:38.095Z</time></trkpt><trkpt lat="44.2963261" lon="11.0919912"><ele>409.7142857142857</ele><time>2026-04-26T08:29:41.095Z</time></trkpt><trkpt lat="44.2963722" lon="11.0919016"><ele>407.85714285714283</ele><time>2026-04-26T08:29:45.091Z</time></trkpt><trkpt lat="44.2964227" lon="11.0918443"><ele>406.0</ele><time>2026-04-26T08:29:48.095Z</time></trkpt><trkpt lat="44.296495" lon="11.0917906"><ele>409.85714285714283</ele><time>2026-04-26T08:29:52.098Z</time></trkpt><trkpt lat="44.2965711" lon="11.0917682"><ele>413.7142857142857</ele><time>2026-04-26T08:29:56.098Z</time></trkpt><trkpt lat="44.2966424" lon="11.0917642"><ele>417.57142857142856</ele><time>2026-04-26T08:29:59.092Z</time></trkpt><trkpt lat="44.2967152" lon="11.0917811"><ele>421.42857142857144</ele><time>2026-04-26T08:30:02.101Z</time></trkpt><trkpt lat="44.2967807" lon="11.0917865"><ele>425.2857142857143</ele><time>2026-04-26T08:30:05.084Z</time></trkpt><trkpt lat="44.296844" lon="11.0917913"><ele>429.1428571428571</ele><time>2026-04-26T08:30:08.092Z</time></trkpt><trkpt lat="44.296911" lon="11.0917906"><ele>433.0</ele><time>2026-04-26T08:30:11.09Z</time></trkpt><trkpt lat="44.2969794" lon="11.0917946"><ele>432.99999999999994</ele><time>2026-04-26T08:30:14.094Z</time></trkpt><trkpt lat="44.2970474" lon="11.0917806"><ele>433.0</ele><time>2026-04-26T08:30:17.091Z</time></trkpt><trkpt lat="44.2971225" lon="11.0917675"><ele>433.0</ele><time>2026-04-26T08:30:20.095Z</time></trkpt><trkpt lat="44.297195" lon="11.0917527"><ele>433.0</ele><time>2026-04-26T08:30:23.096Z</time></trkpt><trkpt lat="44.2972682" lon="11.0917477"><ele>433.0</ele><time>2026-04-26T08:30:26.092Z</time></trkpt><trkpt lat="44.2973352" lon="11.0917589"><ele>432.99999999999994</ele><time>2026-04-26T08:30:29.092Z</time></trkpt><trkpt lat="44.2974057" lon="11.091781"><ele>433.0</ele><time>2026-04-26T08:30:32.091Z</time></trkpt><trkpt lat="44.2974733" lon="11.0918042"><ele>435.4285714285714</ele><time>2026-04-26T08:30:35.09Z</time></trkpt><trkpt lat="44.2975368" lon="11.0918253"><ele>437.8571428571429</ele><time>2026-04-26T08:30:38.087Z</time></trkpt><trkpt lat="44.2976015" lon="11.0918383"><ele>440.28571428571433</ele><time>2026-04-26T08:30:41.091Z</time></trkpt><trkpt lat="44.2976744" lon="11.0918531"><ele>442.7142857142857</ele><time>2026-04-26T08:30:44.093Z</time></trkpt><trkpt lat="44.2977475" lon="11.0918928"><ele>445.14285714285717</ele><time>2026-04-26T08:30:48.093Z</time></trkpt><trkpt lat="44.2978215" lon="11.0919465"><ele>447.5714285714286</ele><time>2026-04-26T08:30:52.091Z</time></trkpt><trkpt lat="44.2978983" lon="11.0919817"><ele>450.00000000000006</ele><time>2026-04-26T08:30:55.093Z</time></trkpt><trkpt lat="44.2979707" lon="11.0919729"><ele>450.00000000000006</ele><time>2026-04-26T08:30:58.089Z</time></trkpt><trkpt lat="44.2980347" lon="11.0919275"><ele>450.0</ele><time>2026-04-26T08:31:01.085Z</time></trkpt><trkpt lat="44.2980797" lon="11.0918647"><ele>450.00000000000006</ele><time>2026-04-26T08:31:20.092Z</time></trkpt><trkpt lat="44.29809" lon="11.0917682"><ele>450.00000000000006</ele><time>2026-04-26T08:33:29.088Z</time></trkpt><trkpt lat="44.2981055" lon="11.0916767"><ele>450.0</ele><time>2026-04-26T08:33:34.086Z</time></trkpt><trkpt lat="44.2980696" lon="11.0916038"><ele>450.00000000000006</ele><time>2026-04-26T08:33:37.088Z</time></trkpt><trkpt lat="44.2980298" lon="11.0915224"><ele>450.00000000000006</ele><time>2026-04-26T08:33:40.085Z</time></trkpt><trkpt lat="44.2979894" lon="11.0914546"><ele>450.7142857142858</ele><time>2026-04-26T08:33:43.091Z</time></trkpt><trkpt lat="44.2979352" lon="11.0913785"><ele>451.42857142857144</ele><time>2026-04-26T08:33:47.085Z</time></trkpt><trkpt lat="44.2978797" lon="11.0913025"><ele>452.14285714285717</ele><time>2026-04-26T08:33:51.092Z</time></trkpt><trkpt lat="44.2978181" lon="11.0912549"><ele>452.8571428571429</ele><time>2026-04-26T08:33:54.089Z</time></trkpt><trkpt lat="44.2977545" lon="11.0911943"><ele>453.57142857142856</ele><time>2026-04-26T08:33:57.09Z</time></trkpt><trkpt lat="44.2976954" lon="11.0911315"><ele>454.2857142857143</ele><time>2026-04-26T08:34:00.088Z</time></trkpt><trkpt lat="44.2976541" lon="11.0910601"><ele>455.0</ele><time>2026-04-26T08:34:03.092Z</time></trkpt><trkpt lat="44.2976131" lon="11.0909915"><ele>455.0</ele><time>2026-04-26T08:34:06.089Z</time></trkpt><trkpt lat="44.2975647" lon="11.0909275"><ele>455.0</ele><time>2026-04-26T08:34:09.088Z</time></trkpt><trkpt lat="44.2975295" lon="11.0908495"><ele>455.0</ele><time>2026-04-26T08:34:12.095Z</time></trkpt><trkpt lat="44.2974947" lon="11.0907482"><ele>455.0</ele><time>2026-04-26T08:34:15.098Z</time></trkpt><trkpt lat="44.2974716" lon="11.0906458"><ele>455.0</ele><time>2026-04-26T08:34:18.093Z</time></trkpt><trkpt lat="44.2974698" lon="11.0905388"><ele>455.0</ele><time>2026-04-26T08:34:21.096Z</time></trkpt><trkpt lat="44.2974817" lon="11.0904464"><ele>455.0</ele><time>2026-04-26T08:34:24.101Z</time></trkpt><trkpt lat="44.2975012" lon="11.090357"><ele>454.57142857142856</ele><time>2026-04-26T08:34:27.097Z</time></trkpt><trkpt lat="44.2975314" lon="11.0902788"><ele>454.1428571428571</ele><time>2026-04-26T08:34:30.092Z</time></trkpt><trkpt lat="44.2975662" lon="11.0901963"><ele>453.7142857142857</ele><time>2026-04-26T08:34:33.096Z</time></trkpt><trkpt lat="44.2975986" lon="11.0901171"><ele>453.2857142857143</ele><time>2026-04-26T08:34:36.09Z</time></trkpt><trkpt lat="44.2976361" lon="11.0900216"><ele>452.85714285714283</ele><time>2026-04-26T08:34:39.097Z</time></trkpt><trkpt lat="44.2976785" lon="11.0899267"><ele>452.42857142857144</ele><time>2026-04-26T08:34:42.086Z</time></trkpt><trkpt lat="44.2976997" lon="11.0898122"><ele>452.0</ele><time>2026-04-26T08:34:46.091Z</time></trkpt><trkpt lat="44.2976904" lon="11.0897133"><ele>451.8571428571429</ele><time>2026-04-26T08:34:49.092Z</time></trkpt><trkpt lat="44.2976595" lon="11.08962"><ele>451.71428571428567</ele><time>2026-04-26T08:34:52.091Z</time></trkpt><trkpt lat="44.2976304" lon="11.0895392"><ele>451.57142857142856</ele><time>2026-04-26T08:34:55.091Z</time></trkpt><trkpt lat="44.2975995" lon="11.0894577"><ele>451.42857142857144</ele><time>2026-04-26T08:34:58.091Z</time></trkpt><trkpt lat="44.2975645" lon="11.089361"><ele>451.28571428571433</ele><time>2026-04-26T08:35:01.088Z</time></trkpt><trkpt lat="44.2975212" lon="11.0892774"><ele>451.1428571428571</ele><time>2026-04-26T08:35:04.095Z</time></trkpt><trkpt lat="44.2974944" lon="11.0891862"><ele>451.0</ele><time>2026-04-26T08:35:07.094Z</time></trkpt><trkpt lat="44.2974693" lon="11.0890922"><ele>451.85714285714283</ele><time>2026-04-26T08:35:10.11Z</time></trkpt><trkpt lat="44.2974605" lon="11.0889927"><ele>452.7142857142858</ele><time>2026-04-26T08:35:13.094Z</time></trkpt><trkpt lat="44.2974703" lon="11.088902"><ele>453.5714285714286</ele><time>2026-04-26T08:35:16.094Z</time></trkpt><trkpt lat="44.2975062" lon="11.0888033"><ele>454.42857142857144</ele><time>2026-04-26T08:35:20.096Z</time></trkpt><trkpt lat="44.2975463" lon="11.08873"><ele>455.28571428571433</ele><time>2026-04-26T08:35:23.098Z</time></trkpt><trkpt lat="44.2975874" lon="11.088644"><ele>456.1428571428572</ele><time>2026-04-26T08:35:26.088Z</time></trkpt><trkpt lat="44.2976263" lon="11.0885617"><ele>457.00000000000006</ele><time>2026-04-26T08:35:29.091Z</time></trkpt><trkpt lat="44.2976705" lon="11.0884886"><ele>457.00000000000006</ele><time>2026-04-26T08:35:32.095Z</time></trkpt><trkpt lat="44.2977087" lon="11.0884128"><ele>457.0</ele><time>2026-04-26T08:35:35.089Z</time></trkpt><trkpt lat="44.2977534" lon="11.0883336"><ele>457.00000000000006</ele><time>2026-04-26T08:35:38.094Z</time></trkpt><trkpt lat="44.297799" lon="11.0882478"><ele>457.00000000000006</ele><time>2026-04-26T08:35:41.092Z</time></trkpt><trkpt lat="44.2978368" lon="11.0881771"><ele>457.0</ele><time>2026-04-26T08:35:44.094Z</time></trkpt><trkpt lat="44.2978858" lon="11.0880888"><ele>457.00000000000006</ele><time>2026-04-26T08:35:48.09Z</time></trkpt><trkpt lat="44.2979225" lon="11.0880047"><ele>457.00000000000006</ele><time>2026-04-26T08:35:51.091Z</time></trkpt><trkpt lat="44.2979585" lon="11.0879263"><ele>456.8571428571429</ele><time>2026-04-26T08:35:54.088Z</time></trkpt><trkpt lat="44.2979996" lon="11.0878579"><ele>456.7142857142857</ele><time>2026-04-26T08:35:57.092Z</time></trkpt><trkpt lat="44.298048" lon="11.087787"><ele>456.57142857142856</ele><time>2026-04-26T08:36:00.09Z</time></trkpt><trkpt lat="44.298087" lon="11.0877141"><ele>456.42857142857144</ele><time>2026-04-26T08:36:03.09Z</time></trkpt><trkpt lat="44.2981358" lon="11.0876227"><ele>456.2857142857142</ele><time>2026-04-26T08:36:06.092Z</time></trkpt><trkpt lat="44.2981896" lon="11.0875274"><ele>456.1428571428571</ele><time>2026-04-26T08:36:09.092Z</time></trkpt><trkpt lat="44.2982587" lon="11.0874838"><ele>456.0</ele><time>2026-04-26T08:36:12.091Z</time></trkpt><trkpt lat="44.2983194" lon="11.0874264"><ele>456.0</ele><time>2026-04-26T08:36:15.092Z</time></trkpt><trkpt lat="44.2983839" lon="11.0873913"><ele>455.99999999999994</ele><time>2026-04-26T08:36:18.088Z</time></trkpt><trkpt lat="44.2984453" lon="11.0873689"><ele>456.0</ele><time>2026-04-26T08:36:21.088Z</time></trkpt><trkpt lat="44.2985182" lon="11.08735"><ele>456.0</ele><time>2026-04-26T08:36:24.085Z</time></trkpt><trkpt lat="44.2985904" lon="11.0873598"><ele>455.99999999999994</ele><time>2026-04-26T08:36:27.092Z</time></trkpt><trkpt lat="44.2986567" lon="11.0873636"><ele>456.0</ele><time>2026-04-26T08:36:30.104Z</time></trkpt><trkpt lat="44.2987292" lon="11.087379"><ele>456.0</ele><time>2026-04-26T08:36:33.099Z</time></trkpt><trkpt lat="44.2987959" lon="11.0873833"><ele>456.0</ele><time>2026-04-26T08:36:36.089Z</time></trkpt><trkpt lat="44.2988677" lon="11.0873934"><ele>455.99999999999994</ele><time>2026-04-26T08:36:39.092Z</time></trkpt><trkpt lat="44.2989381" lon="11.0873956"><ele>456.0</ele><time>2026-04-26T08:36:42.089Z</time></trkpt><trkpt lat="44.2990079" lon="11.0874039"><ele>456.0</ele><time>2026-04-26T08:36:45.091Z</time></trkpt><trkpt lat="44.2990805" lon="11.0874149"><ele>455.99999999999994</ele><time>2026-04-26T08:36:48.094Z</time></trkpt><trkpt lat="44.2991588" lon="11.087417"><ele>456.0</ele><time>2026-04-26T08:36:51.092Z</time></trkpt><trkpt lat="44.2992254" lon="11.0874321"><ele>456.0</ele><time>2026-04-26T08:36:54.091Z</time></trkpt><trkpt lat="44.2993074" lon="11.0874264"><ele>457.1428571428571</ele><time>2026-04-26T08:36:58.094Z</time></trkpt><trkpt lat="44.2993702" lon="11.0874089"><ele>458.2857142857142</ele><time>2026-04-26T08:37:01.086Z</time></trkpt><trkpt lat="44.299431" lon="11.0873789"><ele>459.42857142857144</ele><time>2026-04-26T08:37:04.089Z</time></trkpt><trkpt lat="44.2994943" lon="11.0873399"><ele>460.57142857142856</ele><time>2026-04-26T08:37:07.095Z</time></trkpt><trkpt lat="44.2995575" lon="11.0873049"><ele>461.7142857142857</ele><time>2026-04-26T08:37:10.083Z</time></trkpt><trkpt lat="44.299622" lon="11.0872512"><ele>462.8571428571429</ele><time>2026-04-26T08:37:13.092Z</time></trkpt><trkpt lat="44.2996876" lon="11.087206"><ele>464.00000000000006</ele><time>2026-04-26T08:37:16.092Z</time></trkpt><trkpt lat="44.2997455" lon="11.087168"><ele>467.66666666666663</ele><time>2026-04-26T08:37:19.086Z</time></trkpt><trkpt lat="44.2998123" lon="11.0871065"><ele>471.3333333333333</ele><time>2026-04-26T08:37:23.09Z</time></trkpt><trkpt lat="44.2998599" lon="11.0870417"><ele>475.0</ele><time>2026-04-26T08:37:26.092Z</time></trkpt><trkpt lat="44.2999068" lon="11.0869691"><ele>478.66666666666663</ele><time>2026-04-26T08:37:29.088Z</time></trkpt><trkpt lat="44.2999717" lon="11.0868981"><ele>482.3333333333333</ele><time>2026-04-26T08:37:33.097Z</time></trkpt><trkpt lat="44.3000282" lon="11.0868308"><ele>486.0</ele><time>2026-04-26T08:37:36.095Z</time></trkpt><trkpt lat="44.3000992" lon="11.086767"><ele>486.0</ele><time>2026-04-26T08:37:39.093Z</time></trkpt><trkpt lat="44.3001714" lon="11.0867293"><ele>486.0</ele><time>2026-04-26T08:37:42.087Z</time></trkpt><trkpt lat="44.3002373" lon="11.0866835"><ele>486.0</ele><time>2026-04-26T08:37:45.09Z</time></trkpt><trkpt lat="44.3003023" lon="11.0866318"><ele>486.0</ele><time>2026-04-26T08:37:48.093Z</time></trkpt><trkpt lat="44.3003511" lon="11.0865543"><ele>486.0</ele><time>2026-04-26T08:37:51.095Z</time></trkpt><trkpt lat="44.3003647" lon="11.0864652"><ele>486.0</ele><time>2026-04-26T08:37:53.092Z</time></trkpt><trkpt lat="44.3003588" lon="11.0863548"><ele>486.0</ele><time>2026-04-26T08:37:56.092Z</time></trkpt><trkpt lat="44.3003261" lon="11.0862773"><ele>485.6666666666667</ele><time>2026-04-26T08:37:59.085Z</time></trkpt><trkpt lat="44.3002527" lon="11.0862307"><ele>485.33333333333337</ele><time>2026-04-26T08:38:02.095Z</time></trkpt><trkpt lat="44.3001714" lon="11.0862011"><ele>485.0</ele><time>2026-04-26T08:38:05.086Z</time></trkpt><trkpt lat="44.3000865" lon="11.0861828"><ele>484.6666666666667</ele><time>2026-04-26T08:38:09.101Z</time></trkpt><trkpt lat="44.3000296" lon="11.0861372"><ele>484.33333333333337</ele><time>2026-04-26T08:38:12.092Z</time></trkpt><trkpt lat="44.2999633" lon="11.0860893"><ele>484.0</ele><time>2026-04-26T08:38:15.083Z</time></trkpt><trkpt lat="44.2998904" lon="11.0860429"><ele>484.0</ele><time>2026-04-26T08:38:18.094Z</time></trkpt><trkpt lat="44.2998222" lon="11.0859988"><ele>483.99999999999994</ele><time>2026-04-26T08:38:21.093Z</time></trkpt><trkpt lat="44.2997794" lon="11.0859282"><ele>484.0</ele><time>2026-04-26T08:38:24.093Z</time></trkpt><trkpt lat="44.2997596" lon="11.0858272"><ele>484.0</ele><time>2026-04-26T08:38:27.088Z</time></trkpt><trkpt lat="44.2997683" lon="11.0857298"><ele>483.99999999999994</ele><time>2026-04-26T08:38:30.093Z</time></trkpt><trkpt lat="44.2998078" lon="11.0856482"><ele>484.0</ele><time>2026-04-26T08:38:33.097Z</time></trkpt><trkpt lat="44.2998628" lon="11.085558"><ele>484.0</ele><time>2026-04-26T08:38:37.092Z</time></trkpt><trkpt lat="44.2999166" lon="11.0854719"><ele>483.83333333333337</ele><time>2026-04-26T08:38:41.092Z</time></trkpt><trkpt lat="44.2999735" lon="11.0854197"><ele>483.6666666666667</ele><time>2026-04-26T08:38:44.089Z</time></trkpt><trkpt lat="44.3000226" lon="11.085332"><ele>483.5</ele><time>2026-04-26T08:38:47.092Z</time></trkpt><trkpt lat="44.3000688" lon="11.0852335"><ele>483.33333333333337</ele><time>2026-04-26T08:38:51.087Z</time></trkpt><trkpt lat="44.3001135" lon="11.0851387"><ele>483.1666666666667</ele><time>2026-04-26T08:38:54.093Z</time></trkpt><trkpt lat="44.3001483" lon="11.0850392"><ele>483.0</ele><time>2026-04-26T08:38:57.094Z</time></trkpt><trkpt lat="44.3001644" lon="11.0849339"><ele>482.8333333333333</ele><time>2026-04-26T08:39:00.09Z</time></trkpt><trkpt lat="44.3001661" lon="11.0848252"><ele>482.66666666666663</ele><time>2026-04-26T08:39:03.091Z</time></trkpt><trkpt lat="44.3001552" lon="11.084712"><ele>482.5</ele><time>2026-04-26T08:39:06.096Z</time></trkpt><trkpt lat="44.3001593" lon="11.0846055"><ele>482.3333333333333</ele><time>2026-04-26T08:39:09.092Z</time></trkpt><trkpt lat="44.3001781" lon="11.0845102"><ele>482.16666666666663</ele><time>2026-04-26T08:39:12.084Z</time></trkpt><trkpt lat="44.3002075" lon="11.0844123"><ele>482.0</ele><time>2026-04-26T08:39:15.093Z</time></trkpt><trkpt lat="44.3002293" lon="11.084318"><ele>482.0</ele><time>2026-04-26T08:39:18.09Z</time></trkpt><trkpt lat="44.3002645" lon="11.0842355"><ele>482.00000000000006</ele><time>2026-04-26T08:39:21.092Z</time></trkpt><trkpt lat="44.3003014" lon="11.0841557"><ele>482.0</ele><time>2026-04-26T08:39:24.09Z</time></trkpt><trkpt lat="44.3003483" lon="11.0840742"><ele>482.0</ele><time>2026-04-26T08:39:27.093Z</time></trkpt><trkpt lat="44.3003876" lon="11.0839918"><ele>482.00000000000006</ele><time>2026-04-26T08:39:30.089Z</time></trkpt><trkpt lat="44.3004213" lon="11.0838974"><ele>482.0</ele><time>2026-04-26T08:39:33.094Z</time></trkpt><trkpt lat="44.3004538" lon="11.0837975"><ele>482.0</ele><time>2026-04-26T08:39:36.091Z</time></trkpt><trkpt lat="44.3004762" lon="11.0837007"><ele>481.28571428571433</ele><time>2026-04-26T08:39:39.084Z</time></trkpt><trkpt lat="44.300498" lon="11.0835958"><ele>480.5714285714286</ele><time>2026-04-26T08:39:42.091Z</time></trkpt><trkpt lat="44.3005151" lon="11.08349"><ele>479.8571428571429</ele><time>2026-04-26T08:39:45.089Z</time></trkpt><trkpt lat="44.3005211" lon="11.0833879"><ele>479.1428571428571</ele><time>2026-04-26T08:39:48.091Z</time></trkpt><trkpt lat="44.3005263" lon="11.08328"><ele>478.4285714285714</ele><time>2026-04-26T08:39:51.093Z</time></trkpt><trkpt lat="44.3005183" lon="11.0831813"><ele>477.71428571428567</ele><time>2026-04-26T08:39:54.092Z</time></trkpt><trkpt lat="44.300515" lon="11.0830843"><ele>477.0</ele><time>2026-04-26T08:39:57.089Z</time></trkpt><trkpt lat="44.300521" lon="11.0829758"><ele>476.3333333333333</ele><time>2026-04-26T08:40:00.089Z</time></trkpt><trkpt lat="44.3005062" lon="11.0828698"><ele>475.66666666666663</ele><time>2026-04-26T08:40:03.09Z</time></trkpt><trkpt lat="44.3005136" lon="11.0827604"><ele>475.0</ele><time>2026-04-26T08:40:08.093Z</time></trkpt><trkpt lat="44.3005787" lon="11.0826758"><ele>474.3333333333333</ele><time>2026-04-26T08:40:12.092Z</time></trkpt><trkpt lat="44.3006393" lon="11.0826184"><ele>473.66666666666663</ele><time>2026-04-26T08:40:15.085Z</time></trkpt><trkpt lat="44.3007027" lon="11.0825645"><ele>473.0</ele><time>2026-04-26T08:40:18.097Z</time></trkpt><trkpt lat="44.3007779" lon="11.0825375"><ele>476.7142857142857</ele><time>2026-04-26T08:40:21.088Z</time></trkpt><trkpt lat="44.3008519" lon="11.082521"><ele>480.42857142857144</ele><time>2026-04-26T08:40:24.084Z</time></trkpt><trkpt lat="44.300923" lon="11.0824973"><ele>484.14285714285717</ele><time>2026-04-26T08:40:27.092Z</time></trkpt><trkpt lat="44.3009905" lon="11.0824582"><ele>487.8571428571429</ele><time>2026-04-26T08:40:30.09Z</time></trkpt><trkpt lat="44.3010533" lon="11.0824113"><ele>491.57142857142856</ele><time>2026-04-26T08:40:33.092Z</time></trkpt><trkpt lat="44.3011132" lon="11.082358"><ele>495.28571428571433</ele><time>2026-04-26T08:40:36.089Z</time></trkpt><trkpt lat="44.3011736" lon="11.082311"><ele>499.00000000000006</ele><time>2026-04-26T08:40:39.089Z</time></trkpt><trkpt lat="44.3012209" lon="11.0822431"><ele>499.4285714285715</ele><time>2026-04-26T08:40:42.094Z</time></trkpt><trkpt lat="44.3012655" lon="11.0821626"><ele>499.8571428571429</ele><time>2026-04-26T08:40:45.084Z</time></trkpt><trkpt lat="44.3013272" lon="11.0821016"><ele>500.2857142857143</ele><time>2026-04-26T08:40:49.088Z</time></trkpt><trkpt lat="44.3014016" lon="11.0820445"><ele>500.7142857142857</ele><time>2026-04-26T08:40:53.089Z</time></trkpt><trkpt lat="44.301454" lon="11.0819865"><ele>501.1428571428571</ele><time>2026-04-26T08:40:56.088Z</time></trkpt><trkpt lat="44.3015023" lon="11.0819241"><ele>501.5714285714285</ele><time>2026-04-26T08:40:59.089Z</time></trkpt><trkpt lat="44.3015277" lon="11.0818303"><ele>501.99999999999994</ele><time>2026-04-26T08:41:02.092Z</time></trkpt><trkpt lat="44.3015136" lon="11.0817144"><ele>502.00000000000006</ele><time>2026-04-26T08:41:05.091Z</time></trkpt><trkpt lat="44.3014914" lon="11.0816276"><ele>502.0</ele><time>2026-04-26T08:41:09.096Z</time></trkpt><trkpt lat="44.3014074" lon="11.0815995"><ele>502.0</ele><time>2026-04-26T08:41:13.092Z</time></trkpt><trkpt lat="44.3013337" lon="11.08161"><ele>502.0</ele><time>2026-04-26T08:41:16.089Z</time></trkpt><trkpt lat="44.3012599" lon="11.0816497"><ele>502.00000000000006</ele><time>2026-04-26T08:41:19.093Z</time></trkpt><trkpt lat="44.3011781" lon="11.0816932"><ele>502.0</ele><time>2026-04-26T08:41:22.092Z</time></trkpt><trkpt lat="44.3011078" lon="11.08171"><ele>502.00000000000006</ele><time>2026-04-26T08:41:25.094Z</time></trkpt><trkpt lat="44.3010299" lon="11.0816935"><ele>502.0</ele><time>2026-04-26T08:41:28.089Z</time></trkpt><trkpt lat="44.3009592" lon="11.081655"><ele>502.0</ele><time>2026-04-26T08:41:31.096Z</time></trkpt><trkpt lat="44.3008938" lon="11.0815995"><ele>502.0</ele><time>2026-04-26T08:41:34.091Z</time></trkpt><trkpt lat="44.3008374" lon="11.0815273"><ele>502.00000000000006</ele><time>2026-04-26T08:41:37.094Z</time></trkpt><trkpt lat="44.3007948" lon="11.081436"><ele>502.0</ele><time>2026-04-26T08:41:40.089Z</time></trkpt><trkpt lat="44.3007598" lon="11.0813365"><ele>504.8571428571428</ele><time>2026-04-26T08:41:43.088Z</time></trkpt><trkpt lat="44.300736" lon="11.0812441"><ele>507.71428571428567</ele><time>2026-04-26T08:41:46.09Z</time></trkpt><trkpt lat="44.300721" lon="11.081138"><ele>510.57142857142856</ele><time>2026-04-26T08:41:49.09Z</time></trkpt><trkpt lat="44.3007052" lon="11.0810504"><ele>513.4285714285713</ele><time>2026-04-26T08:41:52.087Z</time></trkpt><trkpt lat="44.3006949" lon="11.0809572"><ele>516.2857142857142</ele><time>2026-04-26T08:41:55.087Z</time></trkpt><trkpt lat="44.3006893" lon="11.0808626"><ele>519.1428571428571</ele><time>2026-04-26T08:41:58.088Z</time></trkpt><trkpt lat="44.3006647" lon="11.0807731"><ele>522.0</ele><time>2026-04-26T08:42:01.095Z</time></trkpt><trkpt lat="44.3006352" lon="11.0806903"><ele>524.1428571428571</ele><time>2026-04-26T08:42:04.083Z</time></trkpt><trkpt lat="44.3005919" lon="11.0806044"><ele>526.2857142857142</ele><time>2026-04-26T08:42:07.096Z</time></trkpt><trkpt lat="44.300554" lon="11.0805309"><ele>528.4285714285713</ele><time>2026-04-26T08:42:10.093Z</time></trkpt><trkpt lat="44.3005208" lon="11.0804467"><ele>530.5714285714286</ele><time>2026-04-26T08:42:13.094Z</time></trkpt><trkpt lat="44.3004826" lon="11.080359"><ele>532.7142857142857</ele><time>2026-04-26T08:42:16.089Z</time></trkpt><trkpt lat="44.3004391" lon="11.080284"><ele>534.8571428571428</ele><time>2026-04-26T08:42:19.088Z</time></trkpt><trkpt lat="44.3003901" lon="11.080212"><ele>537.0</ele><time>2026-04-26T08:42:22.089Z</time></trkpt><trkpt lat="44.300352" lon="11.0801406"><ele>531.1666666666666</ele><time>2026-04-26T08:42:25.089Z</time></trkpt><trkpt lat="44.3003068" lon="11.0800654"><ele>525.3333333333334</ele><time>2026-04-26T08:42:28.087Z</time></trkpt><trkpt lat="44.3002711" lon="11.0799787"><ele>519.5</ele><time>2026-04-26T08:42:31.094Z</time></trkpt><trkpt lat="44.3002426" lon="11.0798791"><ele>513.6666666666667</ele><time>2026-04-26T08:42:34.093Z</time></trkpt><trkpt lat="44.3002278" lon="11.0797677"><ele>507.83333333333337</ele><time>2026-04-26T08:42:37.098Z</time></trkpt><trkpt lat="44.3002546" lon="11.0796527"><ele>502.0</ele><time>2026-04-26T08:42:41.089Z</time></trkpt><trkpt lat="44.3002925" lon="11.07957"><ele>501.8571428571428</ele><time>2026-04-26T08:42:44.087Z</time></trkpt><trkpt lat="44.3003496" lon="11.0794815"><ele>501.71428571428567</ele><time>2026-04-26T08:42:47.09Z</time></trkpt><trkpt lat="44.3004009" lon="11.0794075"><ele>501.57142857142856</ele><time>2026-04-26T08:42:50.09Z</time></trkpt><trkpt lat="44.3004363" lon="11.0793156"><ele>501.4285714285714</ele><time>2026-04-26T08:42:53.096Z</time></trkpt><trkpt lat="44.3004685" lon="11.0792303"><ele>501.2857142857142</ele><time>2026-04-26T08:42:56.093Z</time></trkpt><trkpt lat="44.3004939" lon="11.0791401"><ele>501.14285714285717</ele><time>2026-04-26T08:42:59.087Z</time></trkpt><trkpt lat="44.3005065" lon="11.0790511"><ele>501.0</ele><time>2026-04-26T08:43:02.096Z</time></trkpt><trkpt lat="44.3005442" lon="11.078954"><ele>500.8571428571429</ele><time>2026-04-26T08:43:05.093Z</time></trkpt><trkpt lat="44.3005827" lon="11.0788661"><ele>500.71428571428567</ele><time>2026-04-26T08:43:08.089Z</time></trkpt><trkpt lat="44.3006117" lon="11.0787708"><ele>500.57142857142856</ele><time>2026-04-26T08:43:12.095Z</time></trkpt><trkpt lat="44.3006446" lon="11.0786718"><ele>500.42857142857144</ele><time>2026-04-26T08:43:15.091Z</time></trkpt><trkpt lat="44.3006616" lon="11.0785826"><ele>500.28571428571433</ele><time>2026-04-26T08:43:18.137Z</time></trkpt><trkpt lat="44.3006537" lon="11.0784917"><ele>500.1428571428571</ele><time>2026-04-26T08:43:21.091Z</time></trkpt><trkpt lat="44.3006363" lon="11.0783996"><ele>500.0</ele><time>2026-04-26T08:43:24.092Z</time></trkpt><trkpt lat="44.3006077" lon="11.0783077"><ele>502.0</ele><time>2026-04-26T08:43:27.094Z</time></trkpt><trkpt lat="44.3005703" lon="11.078231"><ele>504.0</ele><time>2026-04-26T08:43:30.088Z</time></trkpt><trkpt lat="44.3005176" lon="11.0781545"><ele>506.0</ele><time>2026-04-26T08:43:33.089Z</time></trkpt><trkpt lat="44.3004859" lon="11.0780663"><ele>508.0</ele><time>2026-04-26T08:43:36.091Z</time></trkpt><trkpt lat="44.3004653" lon="11.077972"><ele>510.0</ele><time>2026-04-26T08:43:39.088Z</time></trkpt><trkpt lat="44.3004341" lon="11.077883"><ele>512.0</ele><time>2026-04-26T08:43:42.09Z</time></trkpt><trkpt lat="44.3004013" lon="11.0777896"><ele>514.0</ele><time>2026-04-26T08:43:45.088Z</time></trkpt><trkpt lat="44.3003812" lon="11.0777005"><ele>514.0</ele><time>2026-04-26T08:43:48.092Z</time></trkpt><trkpt lat="44.3003748" lon="11.0776075"><ele>514.0</ele><time>2026-04-26T08:43:51.094Z</time></trkpt><trkpt lat="44.3003693" lon="11.0775144"><ele>514.0</ele><time>2026-04-26T08:43:54.102Z</time></trkpt><trkpt lat="44.300351" lon="11.0774249"><ele>514.0</ele><time>2026-04-26T08:43:57.121Z</time></trkpt><trkpt lat="44.3003365" lon="11.0773192"><ele>514.0</ele><time>2026-04-26T08:44:00.169Z</time></trkpt><trkpt lat="44.3003165" lon="11.0772246"><ele>514.0</ele><time>2026-04-26T08:44:03.087Z</time></trkpt><trkpt lat="44.3002836" lon="11.0771313"><ele>514.0</ele><time>2026-04-26T08:44:06.085Z</time></trkpt><trkpt lat="44.300246" lon="11.0770335"><ele>516.4285714285714</ele><time>2026-04-26T08:44:09.095Z</time></trkpt><trkpt lat="44.3002127" lon="11.0769318"><ele>518.8571428571429</ele><time>2026-04-26T08:44:13.091Z</time></trkpt><trkpt lat="44.3001644" lon="11.0768709"><ele>521.2857142857143</ele><time>2026-04-26T08:44:16.097Z</time></trkpt><trkpt lat="44.3001014" lon="11.0768007"><ele>523.7142857142858</ele><time>2026-04-26T08:44:20.084Z</time></trkpt><trkpt lat="44.300038" lon="11.0767587"><ele>526.1428571428572</ele><time>2026-04-26T08:44:23.087Z</time></trkpt><trkpt lat="44.2999652" lon="11.0767262"><ele>528.5714285714286</ele><time>2026-04-26T08:44:26.092Z</time></trkpt><trkpt lat="44.2999074" lon="11.0766824"><ele>531.0</ele><time>2026-04-26T08:44:29.089Z</time></trkpt><trkpt lat="44.2998407" lon="11.076626"><ele>529.1428571428571</ele><time>2026-04-26T08:44:33.093Z</time></trkpt><trkpt lat="44.2997761" lon="11.0765999"><ele>527.2857142857143</ele><time>2026-04-26T08:44:36.092Z</time></trkpt><trkpt lat="44.2997008" lon="11.0765617"><ele>525.4285714285714</ele><time>2026-04-26T08:44:39.095Z</time></trkpt><trkpt lat="44.2996217" lon="11.076521"><ele>523.5714285714286</ele><time>2026-04-26T08:44:42.092Z</time></trkpt><trkpt lat="44.2995564" lon="11.0764757"><ele>521.7142857142858</ele><time>2026-04-26T08:44:45.087Z</time></trkpt><trkpt lat="44.2995032" lon="11.0764232"><ele>519.8571428571429</ele><time>2026-04-26T08:44:48.087Z</time></trkpt><trkpt lat="44.2994358" lon="11.0763701"><ele>518.0</ele><time>2026-04-26T08:44:51.088Z</time></trkpt><trkpt lat="44.299372" lon="11.0763021"><ele>518.0</ele><time>2026-04-26T08:44:54.089Z</time></trkpt><trkpt lat="44.2993281" lon="11.0762143"><ele>518.0</ele><time>2026-04-26T08:44:57.091Z</time></trkpt><trkpt lat="44.299325" lon="11.0761223"><ele>518.0</ele><time>2026-04-26T08:44:59.089Z</time></trkpt><trkpt lat="44.2993501" lon="11.0760028"><ele>518.0</ele><time>2026-04-26T08:45:02.089Z</time></trkpt><trkpt lat="44.2993717" lon="11.0758953"><ele>518.0</ele><time>2026-04-26T08:45:05.09Z</time></trkpt><trkpt lat="44.2993808" lon="11.0758031"><ele>518.0</ele><time>2026-04-26T08:45:08.093Z</time></trkpt><trkpt lat="44.2994118" lon="11.0756986"><ele>517.3333333333333</ele><time>2026-04-26T08:45:11.088Z</time></trkpt><trkpt lat="44.2994729" lon="11.0756137"><ele>516.6666666666666</ele><time>2026-04-26T08:45:14.095Z</time></trkpt><trkpt lat="44.2995326" lon="11.0755374"><ele>516.0</ele><time>2026-04-26T08:45:17.087Z</time></trkpt><trkpt lat="44.2995844" lon="11.0754461"><ele>515.3333333333334</ele><time>2026-04-26T08:45:20.085Z</time></trkpt><trkpt lat="44.299626" lon="11.0753427"><ele>514.6666666666667</ele><time>2026-04-26T08:45:23.088Z</time></trkpt><trkpt lat="44.2996634" lon="11.0752652"><ele>514.0</ele><time>2026-04-26T08:45:26.094Z</time></trkpt><trkpt lat="44.2997055" lon="11.0751889"><ele>514.0</ele><time>2026-04-26T08:45:29.089Z</time></trkpt><trkpt lat="44.29974" lon="11.0750972"><ele>514.0</ele><time>2026-04-26T08:45:32.09Z</time></trkpt><trkpt lat="44.2997783" lon="11.074977"><ele>514.0</ele><time>2026-04-26T08:45:35.095Z</time></trkpt><trkpt lat="44.2998057" lon="11.0748627"><ele>514.0</ele><time>2026-04-26T08:45:38.084Z</time></trkpt><trkpt lat="44.2998234" lon="11.0747585"><ele>514.0</ele><time>2026-04-26T08:45:41.086Z</time></trkpt><trkpt lat="44.2998183" lon="11.0746351"><ele>514.0</ele><time>2026-04-26T08:45:44.094Z</time></trkpt><trkpt lat="44.2998166" lon="11.0745338"><ele>515.0</ele><time>2026-04-26T08:45:47.091Z</time></trkpt><trkpt lat="44.2998068" lon="11.074424"><ele>516.0</ele><time>2026-04-26T08:45:50.1Z</time></trkpt><trkpt lat="44.2997836" lon="11.0743186"><ele>517.0</ele><time>2026-04-26T08:45:53.09Z</time></trkpt><trkpt lat="44.2997384" lon="11.0742136"><ele>518.0</ele><time>2026-04-26T08:45:56.088Z</time></trkpt><trkpt lat="44.299697" lon="11.074107"><ele>519.0</ele><time>2026-04-26T08:45:59.092Z</time></trkpt><trkpt lat="44.2996758" lon="11.0740211"><ele>520.0</ele><time>2026-04-26T08:46:01.089Z</time></trkpt><trkpt lat="44.2996565" lon="11.0738992"><ele>521.1428571428572</ele><time>2026-04-26T08:46:04.088Z</time></trkpt><trkpt lat="44.2996406" lon="11.0738073"><ele>522.2857142857143</ele><time>2026-04-26T08:46:07.093Z</time></trkpt><trkpt lat="44.2996259" lon="11.0737091"><ele>523.4285714285714</ele><time>2026-04-26T08:46:11.081Z</time></trkpt><trkpt lat="44.2996208" lon="11.0736196"><ele>524.5714285714287</ele><time>2026-04-26T08:46:13.091Z</time></trkpt><trkpt lat="44.299621" lon="11.0735254"><ele>525.7142857142858</ele><time>2026-04-26T08:46:15.089Z</time></trkpt><trkpt lat="44.2996048" lon="11.0734383"><ele>526.8571428571429</ele><time>2026-04-26T08:46:17.094Z</time></trkpt><trkpt lat="44.2995608" lon="11.0733389"><ele>528.0</ele><time>2026-04-26T08:46:20.09Z</time></trkpt><trkpt lat="44.2995126" lon="11.0732425"><ele>528.5714285714286</ele><time>2026-04-26T08:46:23.085Z</time></trkpt><trkpt lat="44.2994801" lon="11.0731652"><ele>529.1428571428571</ele><time>2026-04-26T08:46:26.087Z</time></trkpt><trkpt lat="44.2994499" lon="11.0730829"><ele>529.7142857142858</ele><time>2026-04-26T08:46:30.089Z</time></trkpt><trkpt lat="44.2994093" lon="11.0729982"><ele>530.2857142857142</ele><time>2026-04-26T08:46:35.097Z</time></trkpt><trkpt lat="44.2993788" lon="11.0729018"><ele>530.8571428571429</ele><time>2026-04-26T08:46:40.092Z</time></trkpt><trkpt lat="44.2993484" lon="11.0728161"><ele>531.4285714285714</ele><time>2026-04-26T08:46:44.077Z</time></trkpt><trkpt lat="44.2993301" lon="11.0727276"><ele>532.0</ele><time>2026-04-26T08:46:48.111Z</time></trkpt><trkpt lat="44.2993417" lon="11.0726304"><ele>532.0</ele><time>2026-04-26T08:46:52.09Z</time></trkpt><trkpt lat="44.299365" lon="11.0725474"><ele>532.0</ele><time>2026-04-26T08:46:55.097Z</time></trkpt><trkpt lat="44.2993989" lon="11.0724706"><ele>532.0</ele><time>2026-04-26T08:46:59.091Z</time></trkpt><trkpt lat="44.2994618" lon="11.0724098"><ele>532.0</ele><time>2026-04-26T08:47:04.086Z</time></trkpt><trkpt lat="44.299514" lon="11.072347"><ele>532.0</ele><time>2026-04-26T08:47:08.117Z</time></trkpt><trkpt lat="44.2995714" lon="11.0722878"><ele>532.0</ele><time>2026-04-26T08:47:12.088Z</time></trkpt><trkpt lat="44.2996214" lon="11.0722002"><ele>532.0</ele><time>2026-04-26T08:47:16.092Z</time></trkpt><trkpt lat="44.2996779" lon="11.0721186"><ele>530.7142857142857</ele><time>2026-04-26T08:47:20.091Z</time></trkpt><trkpt lat="44.2997425" lon="11.0720543"><ele>529.4285714285714</ele><time>2026-04-26T08:47:24.087Z</time></trkpt><trkpt lat="44.2998097" lon="11.0720002"><ele>528.1428571428571</ele><time>2026-04-26T08:47:29.093Z</time></trkpt><trkpt lat="44.2998705" lon="11.0719418"><ele>526.8571428571429</ele><time>2026-04-26T08:47:33.093Z</time></trkpt><trkpt lat="44.2999425" lon="11.0718937"><ele>525.5714285714286</ele><time>2026-04-26T08:47:38.089Z</time></trkpt><trkpt lat="44.2999935" lon="11.071836"><ele>524.2857142857142</ele><time>2026-04-26T08:47:41.09Z</time></trkpt><trkpt lat="44.3000378" lon="11.0717699"><ele>523.0</ele><time>2026-04-26T08:47:44.092Z</time></trkpt><trkpt lat="44.3000874" lon="11.0716968"><ele>525.1666666666667</ele><time>2026-04-26T08:47:48.094Z</time></trkpt><trkpt lat="44.3001394" lon="11.0716069"><ele>527.3333333333334</ele><time>2026-04-26T08:47:52.09Z</time></trkpt><trkpt lat="44.3001966" lon="11.0715209"><ele>529.5</ele><time>2026-04-26T08:47:56.089Z</time></trkpt><trkpt lat="44.3002509" lon="11.0714365"><ele>531.6666666666666</ele><time>2026-04-26T08:48:00.106Z</time></trkpt><trkpt lat="44.3003075" lon="11.0713522"><ele>533.8333333333333</ele><time>2026-04-26T08:48:04.09Z</time></trkpt><trkpt lat="44.300349" lon="11.0712739"><ele>536.0</ele><time>2026-04-26T08:48:07.092Z</time></trkpt><trkpt lat="44.3004115" lon="11.071209"><ele>536.0</ele><time>2026-04-26T08:48:11.097Z</time></trkpt><trkpt lat="44.3004677" lon="11.0711246"><ele>536.0</ele><time>2026-04-26T08:48:15.091Z</time></trkpt><trkpt lat="44.3005233" lon="11.0710427"><ele>536.0</ele><time>2026-04-26T08:48:19.09Z</time></trkpt><trkpt lat="44.3005634" lon="11.0709694"><ele>536.0</ele><time>2026-04-26T08:48:22.086Z</time></trkpt><trkpt lat="44.3005897" lon="11.0708778"><ele>536.0</ele><time>2026-04-26T08:48:25.086Z</time></trkpt><trkpt lat="44.3006086" lon="11.070782"><ele>536.0</ele><time>2026-04-26T08:48:28.09Z</time></trkpt><trkpt lat="44.3006216" lon="11.0706706"><ele>536.8571428571429</ele><time>2026-04-26T08:48:32.088Z</time></trkpt><trkpt lat="44.3006299" lon="11.0705602"><ele>537.7142857142857</ele><time>2026-04-26T08:48:36.092Z</time></trkpt><trkpt lat="44.3006344" lon="11.0704705"><ele>538.5714285714286</ele><time>2026-04-26T08:48:39.093Z</time></trkpt><trkpt lat="44.3006328" lon="11.0703723"><ele>539.4285714285714</ele><time>2026-04-26T08:48:42.091Z</time></trkpt><trkpt lat="44.3006257" lon="11.0702767"><ele>540.2857142857143</ele><time>2026-04-26T08:48:45.092Z</time></trkpt><trkpt lat="44.3006049" lon="11.0701788"><ele>541.1428571428571</ele><time>2026-04-26T08:48:48.092Z</time></trkpt><trkpt lat="44.3005776" lon="11.070092"><ele>542.0</ele><time>2026-04-26T08:48:51.094Z</time></trkpt><trkpt lat="44.3005341" lon="11.069992"><ele>545.3333333333333</ele><time>2026-04-26T08:48:55.09Z</time></trkpt><trkpt lat="44.3004106" lon="11.0699251"><ele>548.6666666666666</ele><time>2026-04-26T08:50:35.096Z</time></trkpt><trkpt lat="44.3003431" lon="11.0698574"><ele>552.0</ele><time>2026-04-26T08:50:38.089Z</time></trkpt><trkpt lat="44.3002764" lon="11.0697985"><ele>555.3333333333334</ele><time>2026-04-26T08:50:41.089Z</time></trkpt><trkpt lat="44.3002161" lon="11.0697548"><ele>558.6666666666667</ele><time>2026-04-26T08:50:44.09Z</time></trkpt><trkpt lat="44.3001573" lon="11.0697188"><ele>562.0</ele><time>2026-04-26T08:50:47.088Z</time></trkpt><trkpt lat="44.3000993" lon="11.0696796"><ele>562.0</ele><time>2026-04-26T08:50:50.092Z</time></trkpt><trkpt lat="44.3000334" lon="11.0696131"><ele>562.0</ele><time>2026-04-26T08:50:54.087Z</time></trkpt><trkpt lat="44.2999954" lon="11.0695164"><ele>562.0</ele><time>2026-04-26T08:50:58.087Z</time></trkpt><trkpt lat="44.2999737" lon="11.0694096"><ele>562.0</ele><time>2026-04-26T08:51:02.092Z</time></trkpt><trkpt lat="44.2999411" lon="11.0693333"><ele>562.0</ele><time>2026-04-26T08:51:05.089Z</time></trkpt><trkpt lat="44.2999103" lon="11.0692342"><ele>562.0</ele><time>2026-04-26T08:51:09.092Z</time></trkpt><trkpt lat="44.2998717" lon="11.0691328"><ele>562.5714285714287</ele><time>2026-04-26T08:51:13.09Z</time></trkpt><trkpt lat="44.2998286" lon="11.0690567"><ele>563.1428571428571</ele><time>2026-04-26T08:51:16.084Z</time></trkpt><trkpt lat="44.2997855" lon="11.0689915"><ele>563.7142857142858</ele><time>2026-04-26T08:51:19.089Z</time></trkpt><trkpt lat="44.2997369" lon="11.0689237"><ele>564.2857142857143</ele><time>2026-04-26T08:51:22.09Z</time></trkpt><trkpt lat="44.2996745" lon="11.0688516"><ele>564.8571428571429</ele><time>2026-04-26T08:51:26.086Z</time></trkpt><trkpt lat="44.2996062" lon="11.0687928"><ele>565.4285714285714</ele><time>2026-04-26T08:51:30.09Z</time></trkpt><trkpt lat="44.2995385" lon="11.0687275"><ele>566.0</ele><time>2026-04-26T08:51:34.086Z</time></trkpt><trkpt lat="44.2994957" lon="11.0686546"><ele>566.0</ele><time>2026-04-26T08:51:37.084Z</time></trkpt><trkpt lat="44.2994379" lon="11.068606"><ele>566.0</ele><time>2026-04-26T08:51:40.085Z</time></trkpt><trkpt lat="44.2993691" lon="11.0685643"><ele>566.0</ele><time>2026-04-26T08:51:44.108Z</time></trkpt><trkpt lat="44.2992909" lon="11.0685588"><ele>566.0</ele><time>2026-04-26T08:51:48.083Z</time></trkpt><trkpt lat="44.2992089" lon="11.0685611"><ele>566.0</ele><time>2026-04-26T08:51:52.085Z</time></trkpt><trkpt lat="44.2991276" lon="11.0685328"><ele>566.0</ele><time>2026-04-26T08:51:56.094Z</time></trkpt><trkpt lat="44.2990678" lon="11.0684895"><ele>566.0</ele><time>2026-04-26T08:51:59.088Z</time></trkpt><trkpt lat="44.2990529" lon="11.0683736"><ele>566.0</ele><time>2026-04-26T08:52:03.088Z</time></trkpt><trkpt lat="44.2990937" lon="11.0682883"><ele>566.0</ele><time>2026-04-26T08:52:06.09Z</time></trkpt><trkpt lat="44.2991585" lon="11.0682467"><ele>566.0</ele><time>2026-04-26T08:52:09.101Z</time></trkpt><trkpt lat="44.2992278" lon="11.0682535"><ele>566.0</ele><time>2026-04-26T08:52:12.083Z</time></trkpt><trkpt lat="44.2993074" lon="11.0682809"><ele>566.0</ele><time>2026-04-26T08:52:16.093Z</time></trkpt><trkpt lat="44.299368" lon="11.0683072"><ele>566.0</ele><time>2026-04-26T08:52:19.091Z</time></trkpt><trkpt lat="44.2994306" lon="11.0683229"><ele>566.0</ele><time>2026-04-26T08:52:22.089Z</time></trkpt><trkpt lat="44.2994935" lon="11.0683392"><ele>566.0</ele><time>2026-04-26T08:52:25.085Z</time></trkpt><trkpt lat="44.2995548" lon="11.068369"><ele>566.0</ele><time>2026-04-26T08:52:28.088Z</time></trkpt><trkpt lat="44.2996274" lon="11.0684271"><ele>566.0</ele><time>2026-04-26T08:52:32.083Z</time></trkpt><trkpt lat="44.2996844" lon="11.0684756"><ele>566.0</ele><time>2026-04-26T08:52:35.082Z</time></trkpt><trkpt lat="44.2997438" lon="11.0685489"><ele>566.0</ele><time>2026-04-26T08:52:39.094Z</time></trkpt><trkpt lat="44.2998169" lon="11.0686156"><ele>566.0</ele><time>2026-04-26T08:52:43.093Z</time></trkpt><trkpt lat="44.2998653" lon="11.068676"><ele>566.5714285714286</ele><time>2026-04-26T08:52:46.097Z</time></trkpt><trkpt lat="44.2999129" lon="11.0687437"><ele>567.1428571428572</ele><time>2026-04-26T08:52:49.092Z</time></trkpt><trkpt lat="44.2999528" lon="11.0688201"><ele>567.7142857142858</ele><time>2026-04-26T08:52:53.091Z</time></trkpt><trkpt lat="44.2999991" lon="11.0688913"><ele>568.2857142857143</ele><time>2026-04-26T08:52:57.087Z</time></trkpt><trkpt lat="44.3000597" lon="11.0689641"><ele>568.8571428571429</ele><time>2026-04-26T08:53:01.089Z</time></trkpt><trkpt lat="44.3001189" lon="11.0690428"><ele>569.4285714285714</ele><time>2026-04-26T08:53:05.086Z</time></trkpt><trkpt lat="44.3001731" lon="11.0690977"><ele>570.0</ele><time>2026-04-26T08:53:08.082Z</time></trkpt><trkpt lat="44.3002323" lon="11.0691379"><ele>570.4285714285714</ele><time>2026-04-26T08:53:11.09Z</time></trkpt><trkpt lat="44.3003104" lon="11.0691738"><ele>570.8571428571429</ele><time>2026-04-26T08:53:15.094Z</time></trkpt><trkpt lat="44.3003791" lon="11.0691835"><ele>571.2857142857143</ele><time>2026-04-26T08:53:18.093Z</time></trkpt><trkpt lat="44.3004524" lon="11.0691747"><ele>571.7142857142858</ele><time>2026-04-26T08:53:21.092Z</time></trkpt><trkpt lat="44.3005155" lon="11.0691615"><ele>572.1428571428572</ele><time>2026-04-26T08:53:24.087Z</time></trkpt><trkpt lat="44.3005967" lon="11.0691304"><ele>572.5714285714286</ele><time>2026-04-26T08:53:28.097Z</time></trkpt><trkpt lat="44.3006598" lon="11.069114"><ele>573.0</ele><time>2026-04-26T08:53:31.107Z</time></trkpt><trkpt lat="44.3007336" lon="11.069127"><ele>573.0</ele><time>2026-04-26T08:53:34.096Z</time></trkpt><trkpt lat="44.3008009" lon="11.0691457"><ele>573.0</ele><time>2026-04-26T08:53:37.092Z</time></trkpt><trkpt lat="44.3008636" lon="11.0691641"><ele>573.0</ele><time>2026-04-26T08:53:40.098Z</time></trkpt><trkpt lat="44.3009408" lon="11.0692154"><ele>573.0</ele><time>2026-04-26T08:53:44.095Z</time></trkpt><trkpt lat="44.3010082" lon="11.0692677"><ele>573.0</ele><time>2026-04-26T08:53:48.085Z</time></trkpt><trkpt lat="44.301074" lon="11.0693282"><ele>573.0</ele><time>2026-04-26T08:53:52.091Z</time></trkpt><trkpt lat="44.3011354" lon="11.0693849"><ele>573.0</ele><time>2026-04-26T08:53:56.092Z</time></trkpt><trkpt lat="44.3012075" lon="11.0694333"><ele>573.0</ele><time>2026-04-26T08:54:00.09Z</time></trkpt><trkpt lat="44.3012672" lon="11.0694825"><ele>573.0</ele><time>2026-04-26T08:54:03.09Z</time></trkpt><trkpt lat="44.3013455" lon="11.0695408"><ele>573.0</ele><time>2026-04-26T08:54:07.089Z</time></trkpt><trkpt lat="44.301405" lon="11.0695822"><ele>573.0</ele><time>2026-04-26T08:54:10.094Z</time></trkpt><trkpt lat="44.3014722" lon="11.0696231"><ele>573.0</ele><time>2026-04-26T08:54:13.088Z</time></trkpt><trkpt lat="44.3015306" lon="11.069691"><ele>573.0</ele><time>2026-04-26T08:54:17.086Z</time></trkpt><trkpt lat="44.3015777" lon="11.0697499"><ele>573.0</ele><time>2026-04-26T08:54:20.091Z</time></trkpt><trkpt lat="44.3016184" lon="11.0698414"><ele>574.4285714285714</ele><time>2026-04-26T08:54:24.093Z</time></trkpt><trkpt lat="44.3016574" lon="11.0699425"><ele>575.8571428571429</ele><time>2026-04-26T08:54:28.088Z</time></trkpt><trkpt lat="44.3017001" lon="11.0700407"><ele>577.2857142857143</ele><time>2026-04-26T08:54:32.087Z</time></trkpt><trkpt lat="44.3017307" lon="11.0701258"><ele>578.7142857142858</ele><time>2026-04-26T08:54:35.084Z</time></trkpt><trkpt lat="44.3017533" lon="11.070238"><ele>580.1428571428571</ele><time>2026-04-26T08:54:39.089Z</time></trkpt><trkpt lat="44.3017719" lon="11.0703284"><ele>581.5714285714287</ele><time>2026-04-26T08:54:42.089Z</time></trkpt><trkpt lat="44.3017871" lon="11.0704154"><ele>583.0</ele><time>2026-04-26T08:54:45.085Z</time></trkpt><trkpt lat="44.3017981" lon="11.0705028"><ele>583.0000000000001</ele><time>2026-04-26T08:54:48.084Z</time></trkpt><trkpt lat="44.3017953" lon="11.0705944"><ele>583.0</ele><time>2026-04-26T08:54:51.092Z</time></trkpt><trkpt lat="44.3017892" lon="11.0706863"><ele>583.0</ele><time>2026-04-26T08:54:54.091Z</time></trkpt><trkpt lat="44.3017918" lon="11.0707966"><ele>583.0</ele><time>2026-04-26T08:54:58.084Z</time></trkpt><trkpt lat="44.3017916" lon="11.0709008"><ele>583.0</ele><time>2026-04-26T08:55:02.08Z</time></trkpt><trkpt lat="44.3017813" lon="11.0710121"><ele>583.0000000000001</ele><time>2026-04-26T08:55:06.093Z</time></trkpt><trkpt lat="44.3017788" lon="11.0711073"><ele>583.0</ele><time>2026-04-26T08:55:09.083Z</time></trkpt><trkpt lat="44.3017672" lon="11.0712071"><ele>582.4285714285714</ele><time>2026-04-26T08:55:12.084Z</time></trkpt><trkpt lat="44.3017501" lon="11.0712961"><ele>581.8571428571429</ele><time>2026-04-26T08:55:15.08Z</time></trkpt><trkpt lat="44.3017191" lon="11.071396"><ele>581.2857142857142</ele><time>2026-04-26T08:55:19.086Z</time></trkpt><trkpt lat="44.301692" lon="11.0714809"><ele>580.7142857142858</ele><time>2026-04-26T08:55:23.087Z</time></trkpt><trkpt lat="44.3016727" lon="11.0715794"><ele>580.1428571428571</ele><time>2026-04-26T08:55:27.081Z</time></trkpt><trkpt lat="44.30165" lon="11.0716658"><ele>579.5714285714286</ele><time>2026-04-26T08:55:30.087Z</time></trkpt><trkpt lat="44.3016223" lon="11.0717721"><ele>579.0</ele><time>2026-04-26T08:55:34.092Z</time></trkpt><trkpt lat="44.301582" lon="11.0718682"><ele>580.5</ele><time>2026-04-26T08:55:38.091Z</time></trkpt><trkpt lat="44.3015551" lon="11.0719683"><ele>582.0</ele><time>2026-04-26T08:55:41.092Z</time></trkpt><trkpt lat="44.3015262" lon="11.0720623"><ele>583.5</ele><time>2026-04-26T08:55:44.087Z</time></trkpt><trkpt lat="44.3014934" lon="11.0721527"><ele>585.0</ele><time>2026-04-26T08:55:47.097Z</time></trkpt><trkpt lat="44.3014606" lon="11.0722331"><ele>586.5</ele><time>2026-04-26T08:55:50.088Z</time></trkpt><trkpt lat="44.3014127" lon="11.0723222"><ele>588.0</ele><time>2026-04-26T08:55:54.083Z</time></trkpt><trkpt lat="44.3013578" lon="11.0724125"><ele>586.4285714285714</ele><time>2026-04-26T08:55:58.089Z</time></trkpt><trkpt lat="44.301306" lon="11.0724788"><ele>584.8571428571429</ele><time>2026-04-26T08:56:01.096Z</time></trkpt><trkpt lat="44.301244" lon="11.0725462"><ele>583.2857142857142</ele><time>2026-04-26T08:56:05.096Z</time></trkpt><trkpt lat="44.3011911" lon="11.0726228"><ele>581.7142857142858</ele><time>2026-04-26T08:56:08.091Z</time></trkpt><trkpt lat="44.3011436" lon="11.0727028"><ele>580.1428571428571</ele><time>2026-04-26T08:56:11.113Z</time></trkpt><trkpt lat="44.3011021" lon="11.0727718"><ele>578.5714285714286</ele><time>2026-04-26T08:56:14.097Z</time></trkpt><trkpt lat="44.301059" lon="11.0728609"><ele>577.0</ele><time>2026-04-26T08:56:17.091Z</time></trkpt><trkpt lat="44.3010192" lon="11.07295"><ele>577.0</ele><time>2026-04-26T08:56:20.092Z</time></trkpt><trkpt lat="44.301" lon="11.0730439"><ele>577.0</ele><time>2026-04-26T08:56:23.093Z</time></trkpt><trkpt lat="44.3009806" lon="11.0731347"><ele>577.0</ele><time>2026-04-26T08:56:26.089Z</time></trkpt><trkpt lat="44.300977" lon="11.0732482"><ele>577.0</ele><time>2026-04-26T08:56:30.09Z</time></trkpt><trkpt lat="44.3009741" lon="11.0733607"><ele>577.0</ele><time>2026-04-26T08:56:34.089Z</time></trkpt><trkpt lat="44.3009576" lon="11.0734595"><ele>577.0</ele><time>2026-04-26T08:56:37.083Z</time></trkpt><trkpt lat="44.3009332" lon="11.0735743"><ele>578.0</ele><time>2026-04-26T08:56:41.088Z</time></trkpt><trkpt lat="44.3009118" lon="11.0736755"><ele>579.0</ele><time>2026-04-26T08:56:45.092Z</time></trkpt><trkpt lat="44.3008997" lon="11.0737763"><ele>580.0</ele><time>2026-04-26T08:56:48.09Z</time></trkpt><trkpt lat="44.3008933" lon="11.0738734"><ele>581.0</ele><time>2026-04-26T08:56:51.094Z</time></trkpt><trkpt lat="44.3008989" lon="11.0739658"><ele>582.0</ele><time>2026-04-26T08:56:54.09Z</time></trkpt><trkpt lat="44.3009296" lon="11.0740534"><ele>583.0</ele><time>2026-04-26T08:56:57.085Z</time></trkpt><trkpt lat="44.3009879" lon="11.0741294"><ele>584.0</ele><time>2026-04-26T08:57:01.093Z</time></trkpt><trkpt lat="44.3010577" lon="11.074145"><ele>584.0</ele><time>2026-04-26T08:57:04.088Z</time></trkpt><trkpt lat="44.3011206" lon="11.0741251"><ele>584.0</ele><time>2026-04-26T08:57:07.09Z</time></trkpt><trkpt lat="44.3011819" lon="11.0740653"><ele>584.0</ele><time>2026-04-26T08:57:10.093Z</time></trkpt><trkpt lat="44.3012102" lon="11.0739832"><ele>584.0</ele><time>2026-04-26T08:57:13.088Z</time></trkpt><trkpt lat="44.301211" lon="11.0738816"><ele>584.0</ele><time>2026-04-26T08:57:16.089Z</time></trkpt><trkpt lat="44.3012087" lon="11.0737829"><ele>584.0</ele><time>2026-04-26T08:57:19.09Z</time></trkpt><trkpt lat="44.3012075" lon="11.0736889"><ele>584.0</ele><time>2026-04-26T08:57:22.085Z</time></trkpt><trkpt lat="44.3012048" lon="11.073597"><ele>584.0</ele><time>2026-04-26T08:57:25.094Z</time></trkpt><trkpt lat="44.3012022" lon="11.073494"><ele>584.0</ele><time>2026-04-26T08:57:28.087Z</time></trkpt><trkpt lat="44.3012006" lon="11.0733866"><ele>584.0</ele><time>2026-04-26T08:57:31.089Z</time></trkpt><trkpt lat="44.3012063" lon="11.0732859"><ele>584.0</ele><time>2026-04-26T08:57:34.089Z</time></trkpt><trkpt lat="44.3012252" lon="11.0731853"><ele>584.0</ele><time>2026-04-26T08:57:37.09Z</time></trkpt><trkpt lat="44.3012534" lon="11.0730787"><ele>584.0</ele><time>2026-04-26T08:57:40.087Z</time></trkpt><trkpt lat="44.3012879" lon="11.0729812"><ele>582.8333333333333</ele><time>2026-04-26T08:57:43.092Z</time></trkpt><trkpt lat="44.3013364" lon="11.072905"><ele>581.6666666666666</ele><time>2026-04-26T08:57:46.097Z</time></trkpt><trkpt lat="44.3013924" lon="11.0728293"><ele>580.5</ele><time>2026-04-26T08:57:49.092Z</time></trkpt><trkpt lat="44.3014687" lon="11.0727799"><ele>579.3333333333334</ele><time>2026-04-26T08:57:52.09Z</time></trkpt><trkpt lat="44.3015459" lon="11.0727166"><ele>578.1666666666667</ele><time>2026-04-26T08:57:55.088Z</time></trkpt><trkpt lat="44.3016017" lon="11.0726695"><ele>577.0</ele><time>2026-04-26T08:57:57.091Z</time></trkpt><trkpt lat="44.3016577" lon="11.0726087"><ele>578.5714285714286</ele><time>2026-04-26T08:57:59.092Z</time></trkpt><trkpt lat="44.3017051" lon="11.0725329"><ele>580.1428571428571</ele><time>2026-04-26T08:58:01.096Z</time></trkpt><trkpt lat="44.3017475" lon="11.0724541"><ele>581.7142857142858</ele><time>2026-04-26T08:58:03.097Z</time></trkpt><trkpt lat="44.301787" lon="11.0723724"><ele>583.2857142857142</ele><time>2026-04-26T08:58:05.085Z</time></trkpt><trkpt lat="44.3018164" lon="11.0722909"><ele>584.8571428571429</ele><time>2026-04-26T08:58:07.088Z</time></trkpt><trkpt lat="44.3018491" lon="11.0722103"><ele>586.4285714285714</ele><time>2026-04-26T08:58:09.095Z</time></trkpt><trkpt lat="44.3018905" lon="11.0721351"><ele>588.0</ele><time>2026-04-26T08:58:11.089Z</time></trkpt><trkpt lat="44.3019606" lon="11.0720426"><ele>588.0</ele><time>2026-04-26T08:58:14.089Z</time></trkpt><trkpt lat="44.3020204" lon="11.0719976"><ele>588.0</ele><time>2026-04-26T08:58:16.093Z</time></trkpt><trkpt lat="44.3020849" lon="11.0719611"><ele>588.0</ele><time>2026-04-26T08:58:18.083Z</time></trkpt><trkpt lat="44.3021524" lon="11.07192"><ele>588.0</ele><time>2026-04-26T08:58:20.091Z</time></trkpt><trkpt lat="44.3022172" lon="11.071899"><ele>588.0</ele><time>2026-04-26T08:58:22.09Z</time></trkpt><trkpt lat="44.3022788" lon="11.0718584"><ele>588.0</ele><time>2026-04-26T08:58:24.107Z</time></trkpt><trkpt lat="44.3023442" lon="11.071812"><ele>588.0</ele><time>2026-04-26T08:58:26.093Z</time></trkpt><trkpt lat="44.3024079" lon="11.07176"><ele>589.8571428571429</ele><time>2026-04-26T08:58:28.089Z</time></trkpt><trkpt lat="44.3024701" lon="11.0717215"><ele>591.7142857142858</ele><time>2026-04-26T08:58:30.09Z</time></trkpt><trkpt lat="44.3025323" lon="11.0716658"><ele>593.5714285714286</ele><time>2026-04-26T08:58:32.088Z</time></trkpt><trkpt lat="44.3025893" lon="11.0715926"><ele>595.4285714285714</ele><time>2026-04-26T08:58:34.088Z</time></trkpt><trkpt lat="44.3026471" lon="11.0715189"><ele>597.2857142857143</ele><time>2026-04-26T08:58:36.086Z</time></trkpt><trkpt lat="44.3026998" lon="11.0714478"><ele>599.1428571428571</ele><time>2026-04-26T08:58:38.089Z</time></trkpt><trkpt lat="44.30275" lon="11.07138"><ele>601.0</ele><time>2026-04-26T08:58:40.086Z</time></trkpt><trkpt lat="44.3028054" lon="11.0712757"><ele>601.0</ele><time>2026-04-26T08:58:43.081Z</time></trkpt><trkpt lat="44.3028227" lon="11.071181"><ele>601.0</ele><time>2026-04-26T08:58:45.098Z</time></trkpt><trkpt lat="44.3028286" lon="11.0710845"><ele>601.0</ele><time>2026-04-26T08:58:47.087Z</time></trkpt><trkpt lat="44.3028282" lon="11.0709925"><ele>601.0</ele><time>2026-04-26T08:58:49.089Z</time></trkpt><trkpt lat="44.3028189" lon="11.0708954"><ele>601.0</ele><time>2026-04-26T08:58:51.088Z</time></trkpt><trkpt lat="44.3028199" lon="11.070802"><ele>601.0</ele><time>2026-04-26T08:58:53.098Z</time></trkpt><trkpt lat="44.3028189" lon="11.0706939"><ele>601.0</ele><time>2026-04-26T08:58:55.086Z</time></trkpt><trkpt lat="44.3028214" lon="11.0705625"><ele>601.0</ele><time>2026-04-26T08:58:58.096Z</time></trkpt><trkpt lat="44.3028248" lon="11.0704713"><ele>601.0</ele><time>2026-04-26T08:59:00.081Z</time></trkpt><trkpt lat="44.3028448" lon="11.0703411"><ele>601.0</ele><time>2026-04-26T08:59:03.088Z</time></trkpt><trkpt lat="44.3028753" lon="11.070259"><ele>601.0</ele><time>2026-04-26T08:59:05.107Z</time></trkpt><trkpt lat="44.3029467" lon="11.0701866"><ele>601.0</ele><time>2026-04-26T08:59:08.095Z</time></trkpt><trkpt lat="44.3030395" lon="11.0701451"><ele>601.0</ele><time>2026-04-26T08:59:11.087Z</time></trkpt><trkpt lat="44.303122" lon="11.0701593"><ele>602.6666666666667</ele><time>2026-04-26T08:59:14.091Z</time></trkpt><trkpt lat="44.3032101" lon="11.0701983"><ele>604.3333333333334</ele><time>2026-04-26T08:59:17.094Z</time></trkpt><trkpt lat="44.3032753" lon="11.0702245"><ele>606.0</ele><time>2026-04-26T08:59:19.088Z</time></trkpt><trkpt lat="44.3033689" lon="11.0702501"><ele>607.6666666666666</ele><time>2026-04-26T08:59:22.091Z</time></trkpt><trkpt lat="44.3034633" lon="11.0702515"><ele>609.3333333333333</ele><time>2026-04-26T08:59:25.082Z</time></trkpt><trkpt lat="44.3035561" lon="11.0702388"><ele>611.0</ele><time>2026-04-26T08:59:28.095Z</time></trkpt><trkpt lat="44.3036467" lon="11.0702264"><ele>611.0</ele><time>2026-04-26T08:59:31.086Z</time></trkpt><trkpt lat="44.3037342" lon="11.0702147"><ele>611.0</ele><time>2026-04-26T08:59:34.107Z</time></trkpt><trkpt lat="44.3037977" lon="11.0702111"><ele>611.0</ele><time>2026-04-26T08:59:36.124Z</time></trkpt><trkpt lat="44.3038813" lon="11.070173"><ele>611.0</ele><time>2026-04-26T08:59:39.087Z</time></trkpt><trkpt lat="44.3039682" lon="11.07018"><ele>611.0</ele><time>2026-04-26T08:59:42.089Z</time></trkpt><trkpt lat="44.304056" lon="11.0701956"><ele>611.0</ele><time>2026-04-26T08:59:45.087Z</time></trkpt><trkpt lat="44.3041196" lon="11.0702123"><ele>611.5714285714287</ele><time>2026-04-26T08:59:47.087Z</time></trkpt><trkpt lat="44.304195" lon="11.0702223"><ele>612.1428571428571</ele><time>2026-04-26T08:59:50.089Z</time></trkpt><trkpt lat="44.3042749" lon="11.0702962"><ele>612.7142857142858</ele><time>2026-04-26T08:59:53.088Z</time></trkpt><trkpt lat="44.3043352" lon="11.0703245"><ele>613.2857142857143</ele><time>2026-04-26T08:59:55.088Z</time></trkpt><trkpt lat="44.304399" lon="11.0703648"><ele>613.8571428571429</ele><time>2026-04-26T08:59:57.09Z</time></trkpt><trkpt lat="44.3044623" lon="11.0703971"><ele>614.4285714285714</ele><time>2026-04-26T08:59:59.085Z</time></trkpt><trkpt lat="44.3045262" lon="11.0704125"><ele>615.0</ele><time>2026-04-26T09:00:01.086Z</time></trkpt><trkpt lat="44.3046163" lon="11.0704351"><ele>615.0</ele><time>2026-04-26T09:00:04.088Z</time></trkpt><trkpt lat="44.3046799" lon="11.0704453"><ele>615.0</ele><time>2026-04-26T09:00:06.088Z</time></trkpt><trkpt lat="44.3047669" lon="11.0704782"><ele>615.0</ele><time>2026-04-26T09:00:09.089Z</time></trkpt><trkpt lat="44.3048558" lon="11.0704976"><ele>615.0</ele><time>2026-04-26T09:00:12.09Z</time></trkpt><trkpt lat="44.30493" lon="11.0704935"><ele>615.0</ele><time>2026-04-26T09:00:15.082Z</time></trkpt><trkpt lat="44.3050072" lon="11.0705272"><ele>615.0</ele><time>2026-04-26T09:00:18.08Z</time></trkpt><trkpt lat="44.3050776" lon="11.0705115"><ele>616.3333333333334</ele><time>2026-04-26T09:00:21.083Z</time></trkpt><trkpt lat="44.3051566" lon="11.0704801"><ele>617.6666666666666</ele><time>2026-04-26T09:00:24.089Z</time></trkpt><trkpt lat="44.3052488" lon="11.0704725"><ele>619.0</ele><time>2026-04-26T09:00:27.081Z</time></trkpt><trkpt lat="44.3053099" lon="11.0704508"><ele>620.3333333333333</ele><time>2026-04-26T09:00:29.089Z</time></trkpt><trkpt lat="44.3054109" lon="11.0704381"><ele>621.6666666666666</ele><time>2026-04-26T09:00:33.083Z</time></trkpt><trkpt lat="44.3054956" lon="11.0704219"><ele>623.0</ele><time>2026-04-26T09:00:36.093Z</time></trkpt><trkpt lat="44.3055809" lon="11.0703927"><ele>623.2857142857143</ele><time>2026-04-26T09:00:39.093Z</time></trkpt><trkpt lat="44.3056485" lon="11.070349"><ele>623.5714285714286</ele><time>2026-04-26T09:00:42.081Z</time></trkpt><trkpt lat="44.305726" lon="11.0702842"><ele>623.8571428571429</ele><time>2026-04-26T09:00:45.085Z</time></trkpt><trkpt lat="44.3057917" lon="11.0702217"><ele>624.1428571428571</ele><time>2026-04-26T09:00:48.096Z</time></trkpt><trkpt lat="44.3058362" lon="11.0701574"><ele>624.4285714285714</ele><time>2026-04-26T09:00:50.081Z</time></trkpt><trkpt lat="44.3058778" lon="11.0700859"><ele>624.7142857142858</ele><time>2026-04-26T09:00:52.085Z</time></trkpt><trkpt lat="44.3059156" lon="11.0700094"><ele>625.0</ele><time>2026-04-26T09:00:54.088Z</time></trkpt><trkpt lat="44.3059667" lon="11.069905"><ele>625.0</ele><time>2026-04-26T09:00:57.083Z</time></trkpt><trkpt lat="44.3060158" lon="11.069817"><ele>625.0</ele><time>2026-04-26T09:01:00.097Z</time></trkpt><trkpt lat="44.3060701" lon="11.0697248"><ele>625.0</ele><time>2026-04-26T09:01:03.088Z</time></trkpt><trkpt lat="44.3061229" lon="11.0696266"><ele>625.0</ele><time>2026-04-26T09:01:06.095Z</time></trkpt><trkpt lat="44.3061831" lon="11.0695271"><ele>625.0</ele><time>2026-04-26T09:01:09.088Z</time></trkpt><trkpt lat="44.306238" lon="11.0694484"><ele>625.0</ele><time>2026-04-26T09:01:12.082Z</time></trkpt><trkpt lat="44.3062774" lon="11.0693416"><ele>625.0</ele><time>2026-04-26T09:01:15.086Z</time></trkpt><trkpt lat="44.3063209" lon="11.0692319"><ele>625.0</ele><time>2026-04-26T09:01:18.094Z</time></trkpt><trkpt lat="44.3063754" lon="11.0691398"><ele>625.0</ele><time>2026-04-26T09:01:21.082Z</time></trkpt><trkpt lat="44.3064228" lon="11.0690498"><ele>625.0</ele><time>2026-04-26T09:01:24.082Z</time></trkpt><trkpt lat="44.306475" lon="11.0689827"><ele>625.0</ele><time>2026-04-26T09:01:27.086Z</time></trkpt><trkpt lat="44.3065321" lon="11.068871"><ele>625.0</ele><time>2026-04-26T09:01:30.091Z</time></trkpt><trkpt lat="44.3065806" lon="11.0687714"><ele>626.3333333333334</ele><time>2026-04-26T09:01:33.088Z</time></trkpt><trkpt lat="44.3066263" lon="11.0686746"><ele>627.6666666666667</ele><time>2026-04-26T09:01:36.082Z</time></trkpt><trkpt lat="44.3066706" lon="11.0685655"><ele>629.0</ele><time>2026-04-26T09:01:39.089Z</time></trkpt><trkpt lat="44.3067097" lon="11.0684518"><ele>630.3333333333334</ele><time>2026-04-26T09:01:42.089Z</time></trkpt><trkpt lat="44.3067411" lon="11.068371"><ele>631.6666666666666</ele><time>2026-04-26T09:01:44.088Z</time></trkpt><trkpt lat="44.3067845" lon="11.0682758"><ele>633.0</ele><time>2026-04-26T09:01:47.089Z</time></trkpt><trkpt lat="44.3068315" lon="11.0681689"><ele>633.0</ele><time>2026-04-26T09:01:50.097Z</time></trkpt><trkpt lat="44.3068837" lon="11.0680628"><ele>633.0</ele><time>2026-04-26T09:01:53.091Z</time></trkpt><trkpt lat="44.3069309" lon="11.0679735"><ele>633.0</ele><time>2026-04-26T09:01:56.09Z</time></trkpt><trkpt lat="44.3069766" lon="11.0678748"><ele>633.0</ele><time>2026-04-26T09:01:59.091Z</time></trkpt><trkpt lat="44.3070061" lon="11.0677901"><ele>633.0</ele><time>2026-04-26T09:02:01.088Z</time></trkpt><trkpt lat="44.3070572" lon="11.0676867"><ele>633.0</ele><time>2026-04-26T09:02:04.088Z</time></trkpt><trkpt lat="44.3070937" lon="11.0675978"><ele>633.0</ele><time>2026-04-26T09:02:07.095Z</time></trkpt><trkpt lat="44.3071172" lon="11.0675056"><ele>633.0</ele><time>2026-04-26T09:02:10.09Z</time></trkpt><trkpt lat="44.3071157" lon="11.0676214"><ele>633.0</ele><time>2026-04-26T09:05:52.087Z</time></trkpt><trkpt lat="44.3071093" lon="11.0677148"><ele>633.0</ele><time>2026-04-26T09:05:54.087Z</time></trkpt><trkpt lat="44.3070919" lon="11.0678099"><ele>633.0</ele><time>2026-04-26T09:05:56.088Z</time></trkpt><trkpt lat="44.3070627" lon="11.0678897"><ele>633.0</ele><time>2026-04-26T09:05:58.086Z</time></trkpt><trkpt lat="44.306999" lon="11.0679849"><ele>633.0</ele><time>2026-04-26T09:06:01.088Z</time></trkpt><trkpt lat="44.306949" lon="11.0680407"><ele>633.0</ele><time>2026-04-26T09:06:03.095Z</time></trkpt><trkpt lat="44.3068862" lon="11.0681089"><ele>633.0</ele><time>2026-04-26T09:06:05.088Z</time></trkpt><trkpt lat="44.3068369" lon="11.0681967"><ele>633.0</ele><time>2026-04-26T09:06:07.097Z</time></trkpt><trkpt lat="44.3067802" lon="11.0683097"><ele>633.0</ele><time>2026-04-26T09:06:09.088Z</time></trkpt><trkpt lat="44.3067208" lon="11.0684107"><ele>633.0</ele><time>2026-04-26T09:06:11.087Z</time></trkpt><trkpt lat="44.306658" lon="11.0685055"><ele>633.0</ele><time>2026-04-26T09:06:13.091Z</time></trkpt><trkpt lat="44.3066178" lon="11.0685853"><ele>633.3333333333334</ele><time>2026-04-26T09:06:14.086Z</time></trkpt><trkpt lat="44.3065793" lon="11.0686563"><ele>633.6666666666666</ele><time>2026-04-26T09:06:15.09Z</time></trkpt><trkpt lat="44.3065207" lon="11.0687702"><ele>634.0</ele><time>2026-04-26T09:06:17.099Z</time></trkpt><trkpt lat="44.306484" lon="11.0688495"><ele>634.3333333333333</ele><time>2026-04-26T09:06:18.091Z</time></trkpt><trkpt lat="44.3064525" lon="11.0689315"><ele>634.6666666666666</ele><time>2026-04-26T09:06:19.088Z</time></trkpt><trkpt lat="44.3063745" lon="11.069065"><ele>635.0</ele><time>2026-04-26T09:06:21.086Z</time></trkpt><trkpt lat="44.3063261" lon="11.0691417"><ele>633.5714285714286</ele><time>2026-04-26T09:06:22.088Z</time></trkpt><trkpt lat="44.3062799" lon="11.0692075"><ele>632.1428571428571</ele><time>2026-04-26T09:06:23.085Z</time></trkpt><trkpt lat="44.3062394" lon="11.0692861"><ele>630.7142857142858</ele><time>2026-04-26T09:06:24.085Z</time></trkpt><trkpt lat="44.3061848" lon="11.0693713"><ele>629.2857142857142</ele><time>2026-04-26T09:06:25.09Z</time></trkpt><trkpt lat="44.3061345" lon="11.0694435"><ele>627.8571428571429</ele><time>2026-04-26T09:06:26.088Z</time></trkpt><trkpt lat="44.3060946" lon="11.0695321"><ele>626.4285714285714</ele><time>2026-04-26T09:06:27.085Z</time></trkpt><trkpt lat="44.306056" lon="11.0696292"><ele>625.0</ele><time>2026-04-26T09:06:28.086Z</time></trkpt><trkpt lat="44.3060043" lon="11.0697163"><ele>625.0</ele><time>2026-04-26T09:06:29.094Z</time></trkpt><trkpt lat="44.305957" lon="11.0698004"><ele>625.0</ele><time>2026-04-26T09:06:30.088Z</time></trkpt><trkpt lat="44.3059031" lon="11.0698879"><ele>625.0</ele><time>2026-04-26T09:06:31.09Z</time></trkpt><trkpt lat="44.3058463" lon="11.0699703"><ele>625.0</ele><time>2026-04-26T09:06:32.09Z</time></trkpt><trkpt lat="44.3057918" lon="11.0700526"><ele>625.0</ele><time>2026-04-26T09:06:33.085Z</time></trkpt><trkpt lat="44.3057273" lon="11.0701261"><ele>625.0</ele><time>2026-04-26T09:06:34.086Z</time></trkpt><trkpt lat="44.3056564" lon="11.0701964"><ele>624.6666666666667</ele><time>2026-04-26T09:06:35.09Z</time></trkpt><trkpt lat="44.3055816" lon="11.0702568"><ele>624.3333333333334</ele><time>2026-04-26T09:06:36.088Z</time></trkpt><trkpt lat="44.3055085" lon="11.0703069"><ele>624.0</ele><time>2026-04-26T09:06:37.088Z</time></trkpt><trkpt lat="44.3054298" lon="11.0703545"><ele>623.6666666666666</ele><time>2026-04-26T09:06:38.088Z</time></trkpt><trkpt lat="44.3053524" lon="11.0703855"><ele>623.3333333333333</ele><time>2026-04-26T09:06:39.084Z</time></trkpt><trkpt lat="44.3052654" lon="11.0704076"><ele>623.0</ele><time>2026-04-26T09:06:40.089Z</time></trkpt><trkpt lat="44.3051846" lon="11.0704296"><ele>623.0</ele><time>2026-04-26T09:06:41.088Z</time></trkpt><trkpt lat="44.3050945" lon="11.0704382"><ele>623.0</ele><time>2026-04-26T09:06:42.085Z</time></trkpt><trkpt lat="44.3050053" lon="11.0704314"><ele>623.0</ele><time>2026-04-26T09:06:43.086Z</time></trkpt><trkpt lat="44.3049074" lon="11.0704141"><ele>623.0</ele><time>2026-04-26T09:06:44.098Z</time></trkpt><trkpt lat="44.3048046" lon="11.0704151"><ele>623.0</ele><time>2026-04-26T09:06:45.089Z</time></trkpt><trkpt lat="44.3047039" lon="11.0703918"><ele>621.4</ele><time>2026-04-26T09:06:46.096Z</time></trkpt><trkpt lat="44.3046115" lon="11.0703712"><ele>619.8</ele><time>2026-04-26T09:06:47.081Z</time></trkpt><trkpt lat="44.304512" lon="11.0703407"><ele>618.2</ele><time>2026-04-26T09:06:48.09Z</time></trkpt><trkpt lat="44.3044139" lon="11.0703092"><ele>616.6</ele><time>2026-04-26T09:06:49.092Z</time></trkpt><trkpt lat="44.3042973" lon="11.0702788"><ele>615.0</ele><time>2026-04-26T09:06:50.091Z</time></trkpt><trkpt lat="44.3041995" lon="11.0702501"><ele>615.0</ele><time>2026-04-26T09:06:51.086Z</time></trkpt><trkpt lat="44.3041063" lon="11.0702234"><ele>615.0</ele><time>2026-04-26T09:06:52.094Z</time></trkpt><trkpt lat="44.3039979" lon="11.0701766"><ele>615.0</ele><time>2026-04-26T09:06:53.087Z</time></trkpt><trkpt lat="44.3038864" lon="11.0701418"><ele>615.0</ele><time>2026-04-26T09:06:54.087Z</time></trkpt><trkpt lat="44.3037799" lon="11.0700941"><ele>615.0</ele><time>2026-04-26T09:06:55.087Z</time></trkpt><trkpt lat="44.3036643" lon="11.0700785"><ele>614.2</ele><time>2026-04-26T09:06:56.089Z</time></trkpt><trkpt lat="44.3035533" lon="11.0700584"><ele>613.4</ele><time>2026-04-26T09:06:57.107Z</time></trkpt><trkpt lat="44.3034229" lon="11.0700706"><ele>612.6</ele><time>2026-04-26T09:06:58.097Z</time></trkpt><trkpt lat="44.3033282" lon="11.0701558"><ele>611.8</ele><time>2026-04-26T09:06:59.085Z</time></trkpt><trkpt lat="44.3032618" lon="11.0702278"><ele>611.0</ele><time>2026-04-26T09:07:00.086Z</time></trkpt><trkpt lat="44.3031783" lon="11.0701754"><ele>611.0</ele><time>2026-04-26T09:07:01.098Z</time></trkpt><trkpt lat="44.303106" lon="11.0701024"><ele>611.0</ele><time>2026-04-26T09:07:02.083Z</time></trkpt><trkpt lat="44.3030361" lon="11.0700872"><ele>611.0</ele><time>2026-04-26T09:07:03.091Z</time></trkpt><trkpt lat="44.3029722" lon="11.0700724"><ele>611.0</ele><time>2026-04-26T09:07:05.084Z</time></trkpt><trkpt lat="44.3029024" lon="11.0700762"><ele>611.0</ele><time>2026-04-26T09:07:07.088Z</time></trkpt><trkpt lat="44.3028373" lon="11.0701884"><ele>611.0</ele><time>2026-04-26T09:08:27.086Z</time></trkpt><trkpt lat="44.3028" lon="11.0703212"><ele>609.0</ele><time>2026-04-26T09:08:30.094Z</time></trkpt><trkpt lat="44.3027848" lon="11.0704218"><ele>607.0</ele><time>2026-04-26T09:08:31.097Z</time></trkpt><trkpt lat="44.3027846" lon="11.0705356"><ele>605.0</ele><time>2026-04-26T09:08:32.087Z</time></trkpt><trkpt lat="44.3027991" lon="11.0707079"><ele>603.0</ele><time>2026-04-26T09:08:34.094Z</time></trkpt><trkpt lat="44.3028183" lon="11.0708954"><ele>601.0</ele><time>2026-04-26T09:08:36.096Z</time></trkpt><trkpt lat="44.3028257" lon="11.0709933"><ele>601.0</ele><time>2026-04-26T09:08:37.091Z</time></trkpt><trkpt lat="44.302808" lon="11.0710837"><ele>601.0</ele><time>2026-04-26T09:08:38.087Z</time></trkpt><trkpt lat="44.3027827" lon="11.0711807"><ele>601.0</ele><time>2026-04-26T09:08:39.085Z</time></trkpt><trkpt lat="44.3027429" lon="11.0712695"><ele>601.0</ele><time>2026-04-26T09:08:40.094Z</time></trkpt><trkpt lat="44.3026889" lon="11.0713632"><ele>601.0</ele><time>2026-04-26T09:08:41.097Z</time></trkpt><trkpt lat="44.3026282" lon="11.0714425"><ele>601.0</ele><time>2026-04-26T09:08:42.089Z</time></trkpt><trkpt lat="44.3025655" lon="11.0715197"><ele>601.0</ele><time>2026-04-26T09:08:43.091Z</time></trkpt><trkpt lat="44.3025026" lon="11.0715827"><ele>601.0</ele><time>2026-04-26T09:08:44.095Z</time></trkpt><trkpt lat="44.3024328" lon="11.0716493"><ele>601.0</ele><time>2026-04-26T09:08:45.09Z</time></trkpt><trkpt lat="44.3023607" lon="11.0717018"><ele>601.0</ele><time>2026-04-26T09:08:46.085Z</time></trkpt><trkpt lat="44.3022872" lon="11.0717721"><ele>601.0</ele><time>2026-04-26T09:08:47.086Z</time></trkpt><trkpt lat="44.3022125" lon="11.0718143"><ele>601.0</ele><time>2026-04-26T09:08:48.092Z</time></trkpt><trkpt lat="44.3021502" lon="11.0718669"><ele>598.8333333333334</ele><time>2026-04-26T09:08:49.089Z</time></trkpt><trkpt lat="44.3020875" lon="11.0719132"><ele>596.6666666666667</ele><time>2026-04-26T09:08:50.097Z</time></trkpt><trkpt lat="44.3020181" lon="11.0719565"><ele>594.5</ele><time>2026-04-26T09:08:51.082Z</time></trkpt><trkpt lat="44.301957" lon="11.0720084"><ele>592.3333333333334</ele><time>2026-04-26T09:08:52.083Z</time></trkpt><trkpt lat="44.3019055" lon="11.0720877"><ele>590.1666666666666</ele><time>2026-04-26T09:08:53.085Z</time></trkpt><trkpt lat="44.3018611" lon="11.0721815"><ele>588.0</ele><time>2026-04-26T09:08:54.092Z</time></trkpt><trkpt lat="44.3018105" lon="11.0722607"><ele>588.0</ele><time>2026-04-26T09:08:55.092Z</time></trkpt><trkpt lat="44.3017624" lon="11.0723567"><ele>588.0</ele><time>2026-04-26T09:08:56.085Z</time></trkpt><trkpt lat="44.3016618" lon="11.0724713"><ele>588.0</ele><time>2026-04-26T09:08:58.09Z</time></trkpt><trkpt lat="44.3015969" lon="11.0725484"><ele>588.0</ele><time>2026-04-26T09:08:59.084Z</time></trkpt><trkpt lat="44.3015446" lon="11.0726212"><ele>588.0</ele><time>2026-04-26T09:09:00.083Z</time></trkpt><trkpt lat="44.3014907" lon="11.0726866"><ele>588.0</ele><time>2026-04-26T09:09:01.088Z</time></trkpt><trkpt lat="44.3014358" lon="11.0727463"><ele>586.1666666666666</ele><time>2026-04-26T09:09:02.092Z</time></trkpt><trkpt lat="44.301385" lon="11.0728093"><ele>584.3333333333334</ele><time>2026-04-26T09:09:03.084Z</time></trkpt><trkpt lat="44.3013307" lon="11.0728756"><ele>582.5</ele><time>2026-04-26T09:09:04.095Z</time></trkpt><trkpt lat="44.3012849" lon="11.0729621"><ele>580.6666666666667</ele><time>2026-04-26T09:09:05.086Z</time></trkpt><trkpt lat="44.3012352" lon="11.0730433"><ele>578.8333333333334</ele><time>2026-04-26T09:09:06.097Z</time></trkpt><trkpt lat="44.3012006" lon="11.0731596"><ele>577.0</ele><time>2026-04-26T09:09:08.092Z</time></trkpt><trkpt lat="44.3011677" lon="11.0732525"><ele>578.1666666666667</ele><time>2026-04-26T09:09:09.096Z</time></trkpt><trkpt lat="44.3011555" lon="11.073347"><ele>579.3333333333334</ele><time>2026-04-26T09:09:10.085Z</time></trkpt><trkpt lat="44.3011576" lon="11.0735208"><ele>580.5</ele><time>2026-04-26T09:09:12.085Z</time></trkpt><trkpt lat="44.3011664" lon="11.0736106"><ele>581.6666666666666</ele><time>2026-04-26T09:09:13.093Z</time></trkpt><trkpt lat="44.3011683" lon="11.0737076"><ele>582.8333333333333</ele><time>2026-04-26T09:09:14.094Z</time></trkpt><trkpt lat="44.301164" lon="11.0738016"><ele>584.0</ele><time>2026-04-26T09:09:15.086Z</time></trkpt><trkpt lat="44.301168" lon="11.0739035"><ele>584.0</ele><time>2026-04-26T09:09:16.091Z</time></trkpt><trkpt lat="44.3011445" lon="11.0739919"><ele>584.0</ele><time>2026-04-26T09:09:17.088Z</time></trkpt><trkpt lat="44.3010999" lon="11.0740549"><ele>584.0</ele><time>2026-04-26T09:09:18.092Z</time></trkpt><trkpt lat="44.3009798" lon="11.0740387"><ele>584.0</ele><time>2026-04-26T09:09:20.086Z</time></trkpt><trkpt lat="44.3009495" lon="11.0739597"><ele>584.0</ele><time>2026-04-26T09:09:21.092Z</time></trkpt><trkpt lat="44.3009427" lon="11.0737906"><ele>584.0</ele><time>2026-04-26T09:09:23.088Z</time></trkpt><trkpt lat="44.3009487" lon="11.0737011"><ele>584.0</ele><time>2026-04-26T09:09:24.087Z</time></trkpt><trkpt lat="44.3009598" lon="11.0736101"><ele>584.0</ele><time>2026-04-26T09:09:25.087Z</time></trkpt><trkpt lat="44.3009714" lon="11.0735225"><ele>584.0</ele><time>2026-04-26T09:09:26.088Z</time></trkpt><trkpt lat="44.3009956" lon="11.0733567"><ele>584.0</ele><time>2026-04-26T09:09:28.092Z</time></trkpt><trkpt lat="44.3010008" lon="11.073269"><ele>584.0</ele><time>2026-04-26T09:09:29.086Z</time></trkpt><trkpt lat="44.3010114" lon="11.0731753"><ele>584.0</ele><time>2026-04-26T09:09:30.09Z</time></trkpt><trkpt lat="44.3010292" lon="11.0730759"><ele>583.0</ele><time>2026-04-26T09:09:31.095Z</time></trkpt><trkpt lat="44.3010538" lon="11.0729844"><ele>582.0</ele><time>2026-04-26T09:09:32.087Z</time></trkpt><trkpt lat="44.3010828" lon="11.0728861"><ele>581.0</ele><time>2026-04-26T09:09:33.095Z</time></trkpt><trkpt lat="44.3011278" lon="11.0727944"><ele>580.0</ele><time>2026-04-26T09:09:34.09Z</time></trkpt><trkpt lat="44.30117" lon="11.0727237"><ele>579.0</ele><time>2026-04-26T09:09:35.099Z</time></trkpt><trkpt lat="44.3012124" lon="11.0726359"><ele>578.0</ele><time>2026-04-26T09:09:36.085Z</time></trkpt><trkpt lat="44.3012628" lon="11.0725689"><ele>577.0</ele><time>2026-04-26T09:09:37.085Z</time></trkpt><trkpt lat="44.3013168" lon="11.0724981"><ele>578.8333333333334</ele><time>2026-04-26T09:09:38.091Z</time></trkpt><trkpt lat="44.301373" lon="11.0724314"><ele>580.6666666666667</ele><time>2026-04-26T09:09:39.085Z</time></trkpt><trkpt lat="44.3014299" lon="11.0723544"><ele>582.5</ele><time>2026-04-26T09:09:40.085Z</time></trkpt><trkpt lat="44.3014791" lon="11.0722731"><ele>584.3333333333334</ele><time>2026-04-26T09:09:41.087Z</time></trkpt><trkpt lat="44.3015244" lon="11.0721942"><ele>586.1666666666666</ele><time>2026-04-26T09:09:42.086Z</time></trkpt><trkpt lat="44.301592" lon="11.0720141"><ele>588.0</ele><time>2026-04-26T09:09:44.096Z</time></trkpt><trkpt lat="44.3016306" lon="11.0719238"><ele>588.0</ele><time>2026-04-26T09:09:45.086Z</time></trkpt><trkpt lat="44.3016684" lon="11.071819"><ele>588.0</ele><time>2026-04-26T09:09:46.086Z</time></trkpt><trkpt lat="44.3016967" lon="11.0716819"><ele>588.0</ele><time>2026-04-26T09:09:47.088Z</time></trkpt><trkpt lat="44.3017309" lon="11.0715744"><ele>588.0</ele><time>2026-04-26T09:09:48.091Z</time></trkpt><trkpt lat="44.3017592" lon="11.0714582"><ele>588.0</ele><time>2026-04-26T09:09:49.117Z</time></trkpt><trkpt lat="44.3017704" lon="11.0713348"><ele>588.0</ele><time>2026-04-26T09:09:50.086Z</time></trkpt><trkpt lat="44.3017849" lon="11.0712079"><ele>587.0</ele><time>2026-04-26T09:09:51.085Z</time></trkpt><trkpt lat="44.301792" lon="11.0710828"><ele>586.0</ele><time>2026-04-26T09:09:52.086Z</time></trkpt><trkpt lat="44.3017963" lon="11.0709547"><ele>585.0</ele><time>2026-04-26T09:09:53.084Z</time></trkpt><trkpt lat="44.3017997" lon="11.070819"><ele>584.0</ele><time>2026-04-26T09:09:54.095Z</time></trkpt><trkpt lat="44.3018093" lon="11.0706827"><ele>583.0</ele><time>2026-04-26T09:09:55.084Z</time></trkpt><trkpt lat="44.3018303" lon="11.0705591"><ele>583.0</ele><time>2026-04-26T09:09:56.095Z</time></trkpt><trkpt lat="44.3018225" lon="11.0704214"><ele>583.0</ele><time>2026-04-26T09:09:57.084Z</time></trkpt><trkpt lat="44.3017998" lon="11.070302"><ele>583.0</ele><time>2026-04-26T09:09:58.086Z</time></trkpt><trkpt lat="44.3017755" lon="11.0701741"><ele>583.0</ele><time>2026-04-26T09:09:59.088Z</time></trkpt><trkpt lat="44.3017587" lon="11.0700611"><ele>583.0</ele><time>2026-04-26T09:10:00.086Z</time></trkpt><trkpt lat="44.3017189" lon="11.069929"><ele>583.8</ele><time>2026-04-26T09:10:01.089Z</time></trkpt><trkpt lat="44.3016673" lon="11.0698133"><ele>584.5999999999999</ele><time>2026-04-26T09:10:02.092Z</time></trkpt><trkpt lat="44.3016062" lon="11.0697039"><ele>585.4000000000001</ele><time>2026-04-26T09:10:03.091Z</time></trkpt><trkpt lat="44.3015153" lon="11.0696139"><ele>586.2</ele><time>2026-04-26T09:10:04.093Z</time></trkpt><trkpt lat="44.3014313" lon="11.0695403"><ele>587.0</ele><time>2026-04-26T09:10:05.087Z</time></trkpt><trkpt lat="44.3013486" lon="11.0694658"><ele>584.2</ele><time>2026-04-26T09:10:06.088Z</time></trkpt><trkpt lat="44.3012747" lon="11.0693929"><ele>581.4000000000001</ele><time>2026-04-26T09:10:07.083Z</time></trkpt><trkpt lat="44.3011947" lon="11.069324"><ele>578.5999999999999</ele><time>2026-04-26T09:10:08.089Z</time></trkpt><trkpt lat="44.3011105" lon="11.0692625"><ele>575.8</ele><time>2026-04-26T09:10:09.09Z</time></trkpt><trkpt lat="44.3010152" lon="11.0692062"><ele>573.0</ele><time>2026-04-26T09:10:10.085Z</time></trkpt><trkpt lat="44.3009217" lon="11.0691495"><ele>573.6</ele><time>2026-04-26T09:10:11.088Z</time></trkpt><trkpt lat="44.3008306" lon="11.0691037"><ele>574.1999999999999</ele><time>2026-04-26T09:10:12.091Z</time></trkpt><trkpt lat="44.300729" lon="11.0690766"><ele>574.8</ele><time>2026-04-26T09:10:13.087Z</time></trkpt><trkpt lat="44.3006326" lon="11.0690777"><ele>575.4</ele><time>2026-04-26T09:10:14.087Z</time></trkpt><trkpt lat="44.3005264" lon="11.0691096"><ele>576.0</ele><time>2026-04-26T09:10:15.091Z</time></trkpt><trkpt lat="44.3004197" lon="11.0691131"><ele>574.8</ele><time>2026-04-26T09:10:16.093Z</time></trkpt><trkpt lat="44.3003181" lon="11.069079"><ele>573.6</ele><time>2026-04-26T09:10:17.089Z</time></trkpt><trkpt lat="44.300225" lon="11.0690014"><ele>572.4</ele><time>2026-04-26T09:10:18.088Z</time></trkpt><trkpt lat="44.3001404" lon="11.0689138"><ele>571.2</ele><time>2026-04-26T09:10:19.089Z</time></trkpt><trkpt lat="44.300057" lon="11.0688241"><ele>570.0</ele><time>2026-04-26T09:10:20.092Z</time></trkpt><trkpt lat="44.2999799" lon="11.0687265"><ele>570.0</ele><time>2026-04-26T09:10:21.085Z</time></trkpt><trkpt lat="44.2999" lon="11.0686272"><ele>570.0</ele><time>2026-04-26T09:10:22.084Z</time></trkpt><trkpt lat="44.2998199" lon="11.0685242"><ele>570.0</ele><time>2026-04-26T09:10:23.084Z</time></trkpt><trkpt lat="44.299738" lon="11.0684231"><ele>570.0</ele><time>2026-04-26T09:10:24.086Z</time></trkpt><trkpt lat="44.2996486" lon="11.0683424"><ele>570.0</ele><time>2026-04-26T09:10:25.088Z</time></trkpt><trkpt lat="44.2995477" lon="11.0682883"><ele>570.0</ele><time>2026-04-26T09:10:26.088Z</time></trkpt><trkpt lat="44.2994377" lon="11.0682535"><ele>570.0</ele><time>2026-04-26T09:10:27.09Z</time></trkpt><trkpt lat="44.2993332" lon="11.0682118"><ele>570.0</ele><time>2026-04-26T09:10:28.086Z</time></trkpt><trkpt lat="44.2992401" lon="11.068183"><ele>570.0</ele><time>2026-04-26T09:10:29.084Z</time></trkpt><trkpt lat="44.2991597" lon="11.0681715"><ele>570.0</ele><time>2026-04-26T09:10:30.087Z</time></trkpt><trkpt lat="44.2990901" lon="11.0682327"><ele>569.3333333333334</ele><time>2026-04-26T09:10:31.089Z</time></trkpt><trkpt lat="44.2990508" lon="11.0683071"><ele>568.6666666666666</ele><time>2026-04-26T09:10:32.087Z</time></trkpt><trkpt lat="44.2990377" lon="11.0684022"><ele>568.0</ele><time>2026-04-26T09:10:33.09Z</time></trkpt><trkpt lat="44.299029" lon="11.0685029"><ele>567.3333333333333</ele><time>2026-04-26T09:10:34.086Z</time></trkpt><trkpt lat="44.2991488" lon="11.068595"><ele>566.6666666666666</ele><time>2026-04-26T09:10:36.084Z</time></trkpt><trkpt lat="44.2992245" lon="11.0686313"><ele>566.0</ele><time>2026-04-26T09:10:37.087Z</time></trkpt><trkpt lat="44.2992894" lon="11.0686152"><ele>566.0</ele><time>2026-04-26T09:10:38.087Z</time></trkpt><trkpt lat="44.2993641" lon="11.0686347"><ele>566.0</ele><time>2026-04-26T09:10:39.107Z</time></trkpt><trkpt lat="44.2994458" lon="11.068647"><ele>566.0</ele><time>2026-04-26T09:10:40.096Z</time></trkpt><trkpt lat="44.2995263" lon="11.0686886"><ele>566.0</ele><time>2026-04-26T09:10:41.08Z</time></trkpt><trkpt lat="44.2995921" lon="11.068766"><ele>566.0</ele><time>2026-04-26T09:10:42.082Z</time></trkpt><trkpt lat="44.299665" lon="11.0688404"><ele>566.0</ele><time>2026-04-26T09:10:43.087Z</time></trkpt><trkpt lat="44.2997199" lon="11.0689228"><ele>566.8</ele><time>2026-04-26T09:10:44.085Z</time></trkpt><trkpt lat="44.299775" lon="11.0690242"><ele>567.6</ele><time>2026-04-26T09:10:45.084Z</time></trkpt><trkpt lat="44.2998347" lon="11.0691312"><ele>568.4</ele><time>2026-04-26T09:10:46.09Z</time></trkpt><trkpt lat="44.299867" lon="11.069247"><ele>569.2</ele><time>2026-04-26T09:10:47.087Z</time></trkpt><trkpt lat="44.2999086" lon="11.0693557"><ele>570.0</ele><time>2026-04-26T09:10:48.085Z</time></trkpt><trkpt lat="44.2999522" lon="11.0694595"><ele>568.4</ele><time>2026-04-26T09:10:49.09Z</time></trkpt><trkpt lat="44.2999989" lon="11.0695571"><ele>566.8</ele><time>2026-04-26T09:10:50.085Z</time></trkpt><trkpt lat="44.3000845" lon="11.0697129"><ele>565.2</ele><time>2026-04-26T09:10:52.09Z</time></trkpt><trkpt lat="44.3001526" lon="11.0697767"><ele>563.6</ele><time>2026-04-26T09:10:53.079Z</time></trkpt><trkpt lat="44.3002379" lon="11.0698284"><ele>562.0</ele><time>2026-04-26T09:10:54.085Z</time></trkpt><trkpt lat="44.3003277" lon="11.0698838"><ele>558.0</ele><time>2026-04-26T09:10:55.088Z</time></trkpt><trkpt lat="44.3003976" lon="11.0699614"><ele>554.0</ele><time>2026-04-26T09:10:56.091Z</time></trkpt><trkpt lat="44.3004619" lon="11.0700677"><ele>550.0</ele><time>2026-04-26T09:10:57.086Z</time></trkpt><trkpt lat="44.3005147" lon="11.0701797"><ele>546.0</ele><time>2026-04-26T09:10:58.09Z</time></trkpt><trkpt lat="44.3005492" lon="11.0703126"><ele>542.0</ele><time>2026-04-26T09:10:59.086Z</time></trkpt><trkpt lat="44.3005548" lon="11.070446"><ele>542.0</ele><time>2026-04-26T09:11:00.087Z</time></trkpt><trkpt lat="44.3005525" lon="11.0705787"><ele>542.0</ele><time>2026-04-26T09:11:01.09Z</time></trkpt><trkpt lat="44.300551" lon="11.0707168"><ele>542.0</ele><time>2026-04-26T09:11:02.089Z</time></trkpt><trkpt lat="44.3005329" lon="11.0708517"><ele>542.0</ele><time>2026-04-26T09:11:03.089Z</time></trkpt><trkpt lat="44.3004953" lon="11.0709888"><ele>542.0</ele><time>2026-04-26T09:11:04.088Z</time></trkpt><trkpt lat="44.3004374" lon="11.0710956"><ele>540.8000000000001</ele><time>2026-04-26T09:11:05.084Z</time></trkpt><trkpt lat="44.3003677" lon="11.0711967"><ele>539.6</ele><time>2026-04-26T09:11:06.088Z</time></trkpt><trkpt lat="44.3002963" lon="11.0712915"><ele>538.4000000000001</ele><time>2026-04-26T09:11:07.095Z</time></trkpt><trkpt lat="44.3002228" lon="11.0713958"><ele>537.2</ele><time>2026-04-26T09:11:08.086Z</time></trkpt><trkpt lat="44.3001487" lon="11.0715033"><ele>536.0</ele><time>2026-04-26T09:11:09.088Z</time></trkpt><trkpt lat="44.3000909" lon="11.0716069"><ele>537.4</ele><time>2026-04-26T09:11:10.086Z</time></trkpt><trkpt lat="44.3000262" lon="11.0717208"><ele>538.8</ele><time>2026-04-26T09:11:11.086Z</time></trkpt><trkpt lat="44.2999553" lon="11.0718226"><ele>540.1999999999999</ele><time>2026-04-26T09:11:12.088Z</time></trkpt><trkpt lat="44.2998752" lon="11.0719194"><ele>541.6</ele><time>2026-04-26T09:11:13.092Z</time></trkpt><trkpt lat="44.2997877" lon="11.0720099"><ele>543.0</ele><time>2026-04-26T09:11:14.088Z</time></trkpt><trkpt lat="44.2996974" lon="11.0721006"><ele>540.8</ele><time>2026-04-26T09:11:15.094Z</time></trkpt><trkpt lat="44.2996149" lon="11.0721833"><ele>538.5999999999999</ele><time>2026-04-26T09:11:16.086Z</time></trkpt><trkpt lat="44.2995228" lon="11.0722609"><ele>536.4000000000001</ele><time>2026-04-26T09:11:17.09Z</time></trkpt><trkpt lat="44.2994432" lon="11.0723404"><ele>534.2</ele><time>2026-04-26T09:11:18.092Z</time></trkpt><trkpt lat="44.2993705" lon="11.0724078"><ele>532.0</ele><time>2026-04-26T09:11:19.091Z</time></trkpt><trkpt lat="44.2993084" lon="11.0724882"><ele>532.0</ele><time>2026-04-26T09:11:20.092Z</time></trkpt><trkpt lat="44.2992615" lon="11.0725911"><ele>532.0</ele><time>2026-04-26T09:11:21.089Z</time></trkpt><trkpt lat="44.2992557" lon="11.0727155"><ele>532.0</ele><time>2026-04-26T09:11:22.09Z</time></trkpt><trkpt lat="44.2992672" lon="11.072833"><ele>532.0</ele><time>2026-04-26T09:11:23.091Z</time></trkpt><trkpt lat="44.2993141" lon="11.0729325"><ele>532.0</ele><time>2026-04-26T09:11:24.091Z</time></trkpt><trkpt lat="44.2993659" lon="11.0730486"><ele>532.0</ele><time>2026-04-26T09:11:25.106Z</time></trkpt><trkpt lat="44.2994189" lon="11.0731632"><ele>531.2</ele><time>2026-04-26T09:11:26.086Z</time></trkpt><trkpt lat="44.2994708" lon="11.0732909"><ele>530.4000000000001</ele><time>2026-04-26T09:11:27.092Z</time></trkpt><trkpt lat="44.2995262" lon="11.0734266"><ele>529.5999999999999</ele><time>2026-04-26T09:11:28.086Z</time></trkpt><trkpt lat="44.2995733" lon="11.0735588"><ele>528.8</ele><time>2026-04-26T09:11:29.09Z</time></trkpt><trkpt lat="44.2995755" lon="11.0737091"><ele>528.0</ele><time>2026-04-26T09:11:30.085Z</time></trkpt><trkpt lat="44.2995867" lon="11.0738587"><ele>528.0</ele><time>2026-04-26T09:11:31.087Z</time></trkpt><trkpt lat="44.299607" lon="11.0740039"><ele>528.0</ele><time>2026-04-26T09:11:32.084Z</time></trkpt><trkpt lat="44.2996324" lon="11.0741377"><ele>528.0</ele><time>2026-04-26T09:11:33.092Z</time></trkpt><trkpt lat="44.2996689" lon="11.0742584"><ele>528.0</ele><time>2026-04-26T09:11:34.085Z</time></trkpt><trkpt lat="44.2997061" lon="11.0743607"><ele>528.0</ele><time>2026-04-26T09:11:35.094Z</time></trkpt><trkpt lat="44.2997186" lon="11.0744876"><ele>526.4</ele><time>2026-04-26T09:11:36.085Z</time></trkpt><trkpt lat="44.2997355" lon="11.0746328"><ele>524.8</ele><time>2026-04-26T09:11:37.088Z</time></trkpt><trkpt lat="44.2997349" lon="11.0747701"><ele>523.2</ele><time>2026-04-26T09:11:38.091Z</time></trkpt><trkpt lat="44.2997233" lon="11.0748988"><ele>521.6</ele><time>2026-04-26T09:11:39.09Z</time></trkpt><trkpt lat="44.2997034" lon="11.0750282"><ele>520.0</ele><time>2026-04-26T09:11:40.089Z</time></trkpt><trkpt lat="44.2996573" lon="11.0751393"><ele>518.8</ele><time>2026-04-26T09:11:41.092Z</time></trkpt><trkpt lat="44.2995935" lon="11.0752561"><ele>517.6</ele><time>2026-04-26T09:11:42.084Z</time></trkpt><trkpt lat="44.2995296" lon="11.0753739"><ele>516.4</ele><time>2026-04-26T09:11:43.087Z</time></trkpt><trkpt lat="44.2994601" lon="11.0754917"><ele>515.2</ele><time>2026-04-26T09:11:44.092Z</time></trkpt><trkpt lat="44.2993864" lon="11.0756057"><ele>514.0</ele><time>2026-04-26T09:11:45.087Z</time></trkpt><trkpt lat="44.2992998" lon="11.0757175"><ele>514.8</ele><time>2026-04-26T09:11:46.092Z</time></trkpt><trkpt lat="44.2992953" lon="11.0758674"><ele>515.5999999999999</ele><time>2026-04-26T09:11:47.091Z</time></trkpt><trkpt lat="44.2992634" lon="11.0759958"><ele>516.4</ele><time>2026-04-26T09:11:48.093Z</time></trkpt><trkpt lat="44.299253" lon="11.0761327"><ele>517.1999999999999</ele><time>2026-04-26T09:11:49.091Z</time></trkpt><trkpt lat="44.2992408" lon="11.0762517"><ele>518.0</ele><time>2026-04-26T09:11:50.089Z</time></trkpt><trkpt lat="44.2993697" lon="11.0763199"><ele>518.0</ele><time>2026-04-26T09:11:51.086Z</time></trkpt><trkpt lat="44.2994405" lon="11.0764003"><ele>518.0</ele><time>2026-04-26T09:11:52.084Z</time></trkpt><trkpt lat="44.2995213" lon="11.0764753"><ele>518.0</ele><time>2026-04-26T09:11:53.084Z</time></trkpt><trkpt lat="44.299608" lon="11.0765398"><ele>518.0</ele><time>2026-04-26T09:11:54.082Z</time></trkpt><trkpt lat="44.2996992" lon="11.0766033"><ele>518.0</ele><time>2026-04-26T09:11:55.089Z</time></trkpt><trkpt lat="44.2997987" lon="11.0766562"><ele>520.6</ele><time>2026-04-26T09:11:56.085Z</time></trkpt><trkpt lat="44.2998725" lon="11.0767153"><ele>523.1999999999999</ele><time>2026-04-26T09:11:57.088Z</time></trkpt><trkpt lat="44.299955" lon="11.0767846"><ele>525.8</ele><time>2026-04-26T09:11:58.091Z</time></trkpt><trkpt lat="44.3000486" lon="11.0768403"><ele>528.4</ele><time>2026-04-26T09:11:59.092Z</time></trkpt><trkpt lat="44.3001386" lon="11.076914"><ele>531.0</ele><time>2026-04-26T09:12:00.087Z</time></trkpt><trkpt lat="44.3002185" lon="11.0769991"><ele>531.0</ele><time>2026-04-26T09:12:01.084Z</time></trkpt><trkpt lat="44.3002868" lon="11.0771102"><ele>531.0</ele><time>2026-04-26T09:12:02.088Z</time></trkpt><trkpt lat="44.3003028" lon="11.0772518"><ele>531.0</ele><time>2026-04-26T09:12:03.087Z</time></trkpt><trkpt lat="44.3003283" lon="11.0773839"><ele>531.0</ele><time>2026-04-26T09:12:04.077Z</time></trkpt><trkpt lat="44.3003589" lon="11.0775156"><ele>531.0</ele><time>2026-04-26T09:12:05.081Z</time></trkpt><trkpt lat="44.3003727" lon="11.0776521"><ele>527.6</ele><time>2026-04-26T09:12:06.087Z</time></trkpt><trkpt lat="44.3003892" lon="11.0777853"><ele>524.2</ele><time>2026-04-26T09:12:07.091Z</time></trkpt><trkpt lat="44.3004386" lon="11.0779221"><ele>520.8</ele><time>2026-04-26T09:12:08.088Z</time></trkpt><trkpt lat="44.3004618" lon="11.0780394"><ele>517.4</ele><time>2026-04-26T09:12:09.092Z</time></trkpt><trkpt lat="44.3005035" lon="11.0781793"><ele>514.0</ele><time>2026-04-26T09:12:10.088Z</time></trkpt><trkpt lat="44.3005481" lon="11.0782892"><ele>511.2</ele><time>2026-04-26T09:12:11.089Z</time></trkpt><trkpt lat="44.3005934" lon="11.0784136"><ele>508.4</ele><time>2026-04-26T09:12:12.083Z</time></trkpt><trkpt lat="44.3006183" lon="11.0785467"><ele>505.6</ele><time>2026-04-26T09:12:13.089Z</time></trkpt><trkpt lat="44.300639" lon="11.0786853"><ele>502.8</ele><time>2026-04-26T09:12:14.085Z</time></trkpt><trkpt lat="44.3005664" lon="11.0788074"><ele>500.0</ele><time>2026-04-26T09:12:15.086Z</time></trkpt><trkpt lat="44.3005104" lon="11.0789279"><ele>500.0</ele><time>2026-04-26T09:12:16.09Z</time></trkpt><trkpt lat="44.3004813" lon="11.079046"><ele>500.0</ele><time>2026-04-26T09:12:17.09Z</time></trkpt><trkpt lat="44.3004062" lon="11.0791655"><ele>500.0</ele><time>2026-04-26T09:12:18.09Z</time></trkpt><trkpt lat="44.300354" lon="11.0792895"><ele>500.0</ele><time>2026-04-26T09:12:19.08Z</time></trkpt><trkpt lat="44.3002613" lon="11.0793942"><ele>500.0</ele><time>2026-04-26T09:12:20.091Z</time></trkpt><trkpt lat="44.3002244" lon="11.0795051"><ele>500.16666666666663</ele><time>2026-04-26T09:12:21.081Z</time></trkpt><trkpt lat="44.3001781" lon="11.079616"><ele>500.3333333333333</ele><time>2026-04-26T09:12:22.089Z</time></trkpt><trkpt lat="44.3001767" lon="11.0797338"><ele>500.5</ele><time>2026-04-26T09:12:23.087Z</time></trkpt><trkpt lat="44.3001636" lon="11.0798472"><ele>500.66666666666663</ele><time>2026-04-26T09:12:24.086Z</time></trkpt><trkpt lat="44.3001665" lon="11.0799666"><ele>500.8333333333333</ele><time>2026-04-26T09:12:25.09Z</time></trkpt><trkpt lat="44.3001602" lon="11.0801072"><ele>501.0</ele><time>2026-04-26T09:12:26.096Z</time></trkpt><trkpt lat="44.3002301" lon="11.0802036"><ele>501.20000000000005</ele><time>2026-04-26T09:12:27.085Z</time></trkpt><trkpt lat="44.3002842" lon="11.0803139"><ele>501.40000000000003</ele><time>2026-04-26T09:12:28.091Z</time></trkpt><trkpt lat="44.3003589" lon="11.0804179"><ele>501.6</ele><time>2026-04-26T09:12:29.084Z</time></trkpt><trkpt lat="44.3004326" lon="11.0805198"><ele>501.8</ele><time>2026-04-26T09:12:30.098Z</time></trkpt><trkpt lat="44.3004756" lon="11.0806078"><ele>502.0</ele><time>2026-04-26T09:12:31.081Z</time></trkpt><trkpt lat="44.3005336" lon="11.0807108"><ele>500.33333333333337</ele><time>2026-04-26T09:12:32.081Z</time></trkpt><trkpt lat="44.300575" lon="11.0808109"><ele>498.6666666666667</ele><time>2026-04-26T09:12:33.081Z</time></trkpt><trkpt lat="44.3005292" lon="11.0808804"><ele>497.0</ele><time>2026-04-26T09:12:34.084Z</time></trkpt><trkpt lat="44.3006088" lon="11.0810114"><ele>495.33333333333337</ele><time>2026-04-26T09:12:36.087Z</time></trkpt><trkpt lat="44.3006324" lon="11.0810941"><ele>493.6666666666667</ele><time>2026-04-26T09:12:38.085Z</time></trkpt><trkpt lat="44.3006525" lon="11.0811958"><ele>492.0</ele><time>2026-04-26T09:12:40.09Z</time></trkpt><trkpt lat="44.3006983" lon="11.0812736"><ele>494.0</ele><time>2026-04-26T09:12:42.086Z</time></trkpt><trkpt lat="44.3007586" lon="11.0813604"><ele>496.00000000000006</ele><time>2026-04-26T09:13:25.092Z</time></trkpt><trkpt lat="44.3008102" lon="11.0814534"><ele>498.00000000000006</ele><time>2026-04-26T09:13:27.09Z</time></trkpt><trkpt lat="44.3009269" lon="11.0815691"><ele>500.0</ele><time>2026-04-26T09:13:28.09Z</time></trkpt><trkpt lat="44.3009622" lon="11.0816441"><ele>502.0</ele><time>2026-04-26T09:13:29.089Z</time></trkpt><trkpt lat="44.301028" lon="11.0816948"><ele>502.0</ele><time>2026-04-26T09:13:30.092Z</time></trkpt><trkpt lat="44.3010901" lon="11.081745"><ele>502.00000000000006</ele><time>2026-04-26T09:13:31.085Z</time></trkpt><trkpt lat="44.3012074" lon="11.0817766"><ele>502.00000000000006</ele><time>2026-04-26T09:13:34.09Z</time></trkpt><trkpt lat="44.3013058" lon="11.0816881"><ele>502.0</ele><time>2026-04-26T09:13:35.085Z</time></trkpt><trkpt lat="44.3013641" lon="11.0816435"><ele>502.0</ele><time>2026-04-26T09:13:36.091Z</time></trkpt><trkpt lat="44.3014808" lon="11.0816163"><ele>502.0</ele><time>2026-04-26T09:13:38.092Z</time></trkpt><trkpt lat="44.3015073" lon="11.0816998"><ele>502.00000000000006</ele><time>2026-04-26T09:13:40.091Z</time></trkpt><trkpt lat="44.3013731" lon="11.0817765"><ele>502.00000000000006</ele><time>2026-04-26T09:13:42.083Z</time></trkpt><trkpt lat="44.3013024" lon="11.081887"><ele>502.0</ele><time>2026-04-26T09:13:44.093Z</time></trkpt><trkpt lat="44.30121" lon="11.0819954"><ele>502.0</ele><time>2026-04-26T09:13:46.094Z</time></trkpt><trkpt lat="44.3011465" lon="11.0821454"><ele>501.99999999999994</ele><time>2026-04-26T09:13:48.086Z</time></trkpt><trkpt lat="44.3010887" lon="11.0822172"><ele>502.0</ele><time>2026-04-26T09:13:49.099Z</time></trkpt><trkpt lat="44.3010275" lon="11.0822753"><ele>501.99999999999994</ele><time>2026-04-26T09:13:50.09Z</time></trkpt><trkpt lat="44.3009778" lon="11.0823468"><ele>501.99999999999994</ele><time>2026-04-26T09:13:51.092Z</time></trkpt><trkpt lat="44.3009113" lon="11.0823867"><ele>502.0</ele><time>2026-04-26T09:13:52.084Z</time></trkpt><trkpt lat="44.3008381" lon="11.0824291"><ele>501.99999999999994</ele><time>2026-04-26T09:13:53.089Z</time></trkpt><trkpt lat="44.3007693" lon="11.0824559"><ele>501.99999999999994</ele><time>2026-04-26T09:13:54.092Z</time></trkpt><trkpt lat="44.3006889" lon="11.0824954"><ele>501.50000000000006</ele><time>2026-04-26T09:13:55.089Z</time></trkpt><trkpt lat="44.3006265" lon="11.0825343"><ele>501.0</ele><time>2026-04-26T09:13:56.095Z</time></trkpt><trkpt lat="44.3005458" lon="11.082557"><ele>500.5</ele><time>2026-04-26T09:13:57.079Z</time></trkpt><trkpt lat="44.300466" lon="11.0825655"><ele>500.0</ele><time>2026-04-26T09:13:58.09Z</time></trkpt><trkpt lat="44.3004265" lon="11.0826911"><ele>499.50000000000006</ele><time>2026-04-26T09:13:59.081Z</time></trkpt><trkpt lat="44.3004067" lon="11.082827"><ele>499.0</ele><time>2026-04-26T09:14:00.08Z</time></trkpt><trkpt lat="44.3003742" lon="11.0829182"><ele>495.33333333333337</ele><time>2026-04-26T09:14:01.086Z</time></trkpt><trkpt lat="44.3003296" lon="11.0830398"><ele>491.6666666666667</ele><time>2026-04-26T09:14:02.082Z</time></trkpt><trkpt lat="44.3003222" lon="11.0831439"><ele>488.0</ele><time>2026-04-26T09:14:03.085Z</time></trkpt><trkpt lat="44.3003692" lon="11.0832668"><ele>484.33333333333337</ele><time>2026-04-26T09:14:04.099Z</time></trkpt><trkpt lat="44.3003513" lon="11.0833803"><ele>480.6666666666667</ele><time>2026-04-26T09:14:05.082Z</time></trkpt><trkpt lat="44.3003407" lon="11.0834841"><ele>477.0</ele><time>2026-04-26T09:14:06.09Z</time></trkpt><trkpt lat="44.3003292" lon="11.0835902"><ele>477.0</ele><time>2026-04-26T09:14:07.084Z</time></trkpt><trkpt lat="44.3003051" lon="11.0836971"><ele>477.0</ele><time>2026-04-26T09:14:08.093Z</time></trkpt><trkpt lat="44.3002796" lon="11.083816"><ele>477.0</ele><time>2026-04-26T09:14:09.089Z</time></trkpt><trkpt lat="44.3002334" lon="11.0839284"><ele>477.0</ele><time>2026-04-26T09:14:10.09Z</time></trkpt><trkpt lat="44.3001906" lon="11.0840353"><ele>477.0</ele><time>2026-04-26T09:14:11.087Z</time></trkpt><trkpt lat="44.3001421" lon="11.08413"><ele>477.0</ele><time>2026-04-26T09:14:12.085Z</time></trkpt><trkpt lat="44.3000895" lon="11.0842571"><ele>478.0</ele><time>2026-04-26T09:14:13.085Z</time></trkpt><trkpt lat="44.300072" lon="11.0843775"><ele>479.00000000000006</ele><time>2026-04-26T09:14:14.081Z</time></trkpt><trkpt lat="44.3000502" lon="11.0845061"><ele>480.00000000000006</ele><time>2026-04-26T09:14:15.086Z</time></trkpt><trkpt lat="44.3000518" lon="11.0846538"><ele>481.0</ele><time>2026-04-26T09:14:16.091Z</time></trkpt><trkpt lat="44.3000442" lon="11.0847885"><ele>482.0</ele><time>2026-04-26T09:14:17.096Z</time></trkpt><trkpt lat="44.3000554" lon="11.0849518"><ele>482.20000000000005</ele><time>2026-04-26T09:14:18.079Z</time></trkpt><trkpt lat="44.3000722" lon="11.0850958"><ele>482.40000000000003</ele><time>2026-04-26T09:14:19.091Z</time></trkpt><trkpt lat="44.300041" lon="11.0852194"><ele>482.59999999999997</ele><time>2026-04-26T09:14:20.085Z</time></trkpt><trkpt lat="44.2999991" lon="11.0853458"><ele>482.79999999999995</ele><time>2026-04-26T09:14:21.088Z</time></trkpt><trkpt lat="44.2999686" lon="11.0854736"><ele>483.0</ele><time>2026-04-26T09:14:22.086Z</time></trkpt><trkpt lat="44.2998525" lon="11.0855531"><ele>483.0</ele><time>2026-04-26T09:14:23.087Z</time></trkpt><trkpt lat="44.2998348" lon="11.085656"><ele>483.0</ele><time>2026-04-26T09:14:24.098Z</time></trkpt><trkpt lat="44.29977" lon="11.0857637"><ele>483.0</ele><time>2026-04-26T09:14:25.085Z</time></trkpt><trkpt lat="44.2996931" lon="11.0858693"><ele>483.0</ele><time>2026-04-26T09:14:26.088Z</time></trkpt><trkpt lat="44.2996991" lon="11.0859786"><ele>483.0</ele><time>2026-04-26T09:14:27.084Z</time></trkpt><trkpt lat="44.2996364" lon="11.0860619"><ele>483.0</ele><time>2026-04-26T09:14:28.09Z</time></trkpt><trkpt lat="44.2997446" lon="11.0860942"><ele>483.25</ele><time>2026-04-26T09:14:29.097Z</time></trkpt><trkpt lat="44.2997981" lon="11.0862172"><ele>483.5</ele><time>2026-04-26T09:14:31.084Z</time></trkpt><trkpt lat="44.2997433" lon="11.0863149"><ele>483.75</ele><time>2026-04-26T09:14:33.085Z</time></trkpt><trkpt lat="44.2998797" lon="11.0863605"><ele>484.0</ele><time>2026-04-26T09:14:34.085Z</time></trkpt><trkpt lat="44.3000104" lon="11.0863999"><ele>484.00000000000006</ele><time>2026-04-26T09:14:35.089Z</time></trkpt><trkpt lat="44.3001078" lon="11.0864577"><ele>484.0</ele><time>2026-04-26T09:14:36.087Z</time></trkpt><trkpt lat="44.3001866" lon="11.0865072"><ele>484.0</ele><time>2026-04-26T09:14:37.082Z</time></trkpt><trkpt lat="44.3002462" lon="11.0865671"><ele>484.0</ele><time>2026-04-26T09:14:38.093Z</time></trkpt><trkpt lat="44.3002775" lon="11.0866663"><ele>484.00000000000006</ele><time>2026-04-26T09:14:39.084Z</time></trkpt><trkpt lat="44.3002383" lon="11.0867643"><ele>484.0</ele><time>2026-04-26T09:14:40.087Z</time></trkpt><trkpt lat="44.3000864" lon="11.0867484"><ele>484.33333333333337</ele><time>2026-04-26T09:14:41.083Z</time></trkpt><trkpt lat="44.3000088" lon="11.0867957"><ele>484.6666666666667</ele><time>2026-04-26T09:14:42.084Z</time></trkpt><trkpt lat="44.2999455" lon="11.0868746"><ele>485.0</ele><time>2026-04-26T09:14:43.084Z</time></trkpt><trkpt lat="44.299889" lon="11.0869392"><ele>485.33333333333337</ele><time>2026-04-26T09:14:44.084Z</time></trkpt><trkpt lat="44.2998384" lon="11.0870038"><ele>485.6666666666667</ele><time>2026-04-26T09:14:45.084Z</time></trkpt><trkpt lat="44.2997762" lon="11.0870987"><ele>486.0</ele><time>2026-04-26T09:14:46.088Z</time></trkpt><trkpt lat="44.2997245" lon="11.08716"><ele>481.6</ele><time>2026-04-26T09:14:47.088Z</time></trkpt><trkpt lat="44.2996252" lon="11.0872227"><ele>477.20000000000005</ele><time>2026-04-26T09:14:48.095Z</time></trkpt><trkpt lat="44.2995401" lon="11.0872851"><ele>472.79999999999995</ele><time>2026-04-26T09:14:49.082Z</time></trkpt><trkpt lat="44.2994559" lon="11.087324"><ele>468.4</ele><time>2026-04-26T09:14:50.087Z</time></trkpt><trkpt lat="44.299361" lon="11.0873459"><ele>464.0</ele><time>2026-04-26T09:14:51.085Z</time></trkpt><trkpt lat="44.2992643" lon="11.0873646"><ele>464.0</ele><time>2026-04-26T09:14:52.083Z</time></trkpt><trkpt lat="44.2991721" lon="11.0873597"><ele>464.0</ele><time>2026-04-26T09:14:53.085Z</time></trkpt><trkpt lat="44.2991001" lon="11.0873687"><ele>464.0</ele><time>2026-04-26T09:14:54.084Z</time></trkpt><trkpt lat="44.2989836" lon="11.0873615"><ele>464.0</ele><time>2026-04-26T09:14:55.089Z</time></trkpt><trkpt lat="44.298886" lon="11.0873565"><ele>464.0</ele><time>2026-04-26T09:14:56.085Z</time></trkpt><trkpt lat="44.2987904" lon="11.0873391"><ele>462.4</ele><time>2026-04-26T09:14:57.09Z</time></trkpt><trkpt lat="44.2986776" lon="11.0873249"><ele>460.79999999999995</ele><time>2026-04-26T09:14:58.084Z</time></trkpt><trkpt lat="44.298592" lon="11.0873266"><ele>459.20000000000005</ele><time>2026-04-26T09:14:59.083Z</time></trkpt><trkpt lat="44.2984916" lon="11.0873331"><ele>457.6</ele><time>2026-04-26T09:15:00.085Z</time></trkpt><trkpt lat="44.2983761" lon="11.0873497"><ele>456.0</ele><time>2026-04-26T09:15:01.083Z</time></trkpt><trkpt lat="44.2982684" lon="11.0873766"><ele>454.6</ele><time>2026-04-26T09:15:02.087Z</time></trkpt><trkpt lat="44.2981741" lon="11.087434"><ele>453.20000000000005</ele><time>2026-04-26T09:15:03.086Z</time></trkpt><trkpt lat="44.2980966" lon="11.0875479"><ele>451.79999999999995</ele><time>2026-04-26T09:15:04.082Z</time></trkpt><trkpt lat="44.298034" lon="11.0876682"><ele>450.4</ele><time>2026-04-26T09:15:05.082Z</time></trkpt><trkpt lat="44.2979709" lon="11.0877947"><ele>449.0</ele><time>2026-04-26T09:15:06.085Z</time></trkpt><trkpt lat="44.2979145" lon="11.0879162"><ele>449.0</ele><time>2026-04-26T09:15:07.086Z</time></trkpt><trkpt lat="44.2978426" lon="11.0880441"><ele>449.0</ele><time>2026-04-26T09:15:08.081Z</time></trkpt><trkpt lat="44.2977813" lon="11.0881583"><ele>449.0</ele><time>2026-04-26T09:15:09.083Z</time></trkpt><trkpt lat="44.2977144" lon="11.0882804"><ele>449.0</ele><time>2026-04-26T09:15:10.084Z</time></trkpt><trkpt lat="44.2976475" lon="11.0883999"><ele>449.0</ele><time>2026-04-26T09:15:11.092Z</time></trkpt><trkpt lat="44.2975748" lon="11.0885146"><ele>450.6</ele><time>2026-04-26T09:15:12.084Z</time></trkpt><trkpt lat="44.2974984" lon="11.0886311"><ele>452.2</ele><time>2026-04-26T09:15:13.085Z</time></trkpt><trkpt lat="44.2974407" lon="11.0887415"><ele>453.80000000000007</ele><time>2026-04-26T09:15:14.087Z</time></trkpt><trkpt lat="44.2973818" lon="11.0888428"><ele>455.40000000000003</ele><time>2026-04-26T09:15:15.083Z</time></trkpt><trkpt lat="44.2973506" lon="11.0889584"><ele>457.0</ele><time>2026-04-26T09:15:16.089Z</time></trkpt><trkpt lat="44.2973424" lon="11.0890659"><ele>456.00000000000006</ele><time>2026-04-26T09:15:17.092Z</time></trkpt><trkpt lat="44.2973577" lon="11.0891859"><ele>455.0</ele><time>2026-04-26T09:15:18.085Z</time></trkpt><trkpt lat="44.297407" lon="11.0893186"><ele>454.0</ele><time>2026-04-26T09:15:19.088Z</time></trkpt><trkpt lat="44.2974361" lon="11.0894274"><ele>453.0</ele><time>2026-04-26T09:15:20.087Z</time></trkpt><trkpt lat="44.29748" lon="11.0895329"><ele>452.00000000000006</ele><time>2026-04-26T09:15:21.093Z</time></trkpt><trkpt lat="44.2975153" lon="11.0896338"><ele>451.0</ele><time>2026-04-26T09:15:22.084Z</time></trkpt><trkpt lat="44.2975512" lon="11.089732"><ele>451.00000000000006</ele><time>2026-04-26T09:15:23.099Z</time></trkpt><trkpt lat="44.2975725" lon="11.089845"><ele>451.0</ele><time>2026-04-26T09:15:24.095Z</time></trkpt><trkpt lat="44.2975579" lon="11.0899551"><ele>451.0</ele><time>2026-04-26T09:15:25.09Z</time></trkpt><trkpt lat="44.2975443" lon="11.0900753"><ele>451.0</ele><time>2026-04-26T09:15:26.089Z</time></trkpt><trkpt lat="44.2975108" lon="11.0901713"><ele>451.00000000000006</ele><time>2026-04-26T09:15:27.091Z</time></trkpt><trkpt lat="44.2974802" lon="11.0902533"><ele>451.0</ele><time>2026-04-26T09:15:28.087Z</time></trkpt><trkpt lat="44.2974299" lon="11.0903641"><ele>451.1666666666667</ele><time>2026-04-26T09:15:29.086Z</time></trkpt><trkpt lat="44.297394" lon="11.0904774"><ele>451.33333333333337</ele><time>2026-04-26T09:15:30.087Z</time></trkpt><trkpt lat="44.2973734" lon="11.0905814"><ele>451.5</ele><time>2026-04-26T09:15:31.085Z</time></trkpt><trkpt lat="44.2973782" lon="11.0907037"><ele>451.66666666666663</ele><time>2026-04-26T09:15:32.086Z</time></trkpt><trkpt lat="44.2974283" lon="11.0908111"><ele>451.8333333333333</ele><time>2026-04-26T09:15:33.092Z</time></trkpt><trkpt lat="44.2974798" lon="11.0909006"><ele>452.0</ele><time>2026-04-26T09:15:34.091Z</time></trkpt><trkpt lat="44.2975373" lon="11.0909943"><ele>452.6</ele><time>2026-04-26T09:15:35.088Z</time></trkpt><trkpt lat="44.2975998" lon="11.0910904"><ele>453.20000000000005</ele><time>2026-04-26T09:15:36.084Z</time></trkpt><trkpt lat="44.2976622" lon="11.0911919"><ele>453.8</ele><time>2026-04-26T09:15:37.083Z</time></trkpt><trkpt lat="44.2977145" lon="11.0912893"><ele>454.4</ele><time>2026-04-26T09:15:38.09Z</time></trkpt><trkpt lat="44.2977768" lon="11.0913928"><ele>455.0</ele><time>2026-04-26T09:15:39.084Z</time></trkpt><trkpt lat="44.2978376" lon="11.0914901"><ele>454.99999999999994</ele><time>2026-04-26T09:15:40.091Z</time></trkpt><trkpt lat="44.297907" lon="11.0915765"><ele>455.0</ele><time>2026-04-26T09:15:41.085Z</time></trkpt><trkpt lat="44.297967" lon="11.0916462"><ele>455.0</ele><time>2026-04-26T09:15:42.083Z</time></trkpt><trkpt lat="44.298012" lon="11.0917165"><ele>455.0</ele><time>2026-04-26T09:15:43.083Z</time></trkpt><trkpt lat="44.2980369" lon="11.0918024"><ele>454.99999999999994</ele><time>2026-04-26T09:15:44.091Z</time></trkpt><trkpt lat="44.2979966" lon="11.0919341"><ele>455.0</ele><time>2026-04-26T09:15:46.088Z</time></trkpt><trkpt lat="44.2978959" lon="11.0919519"><ele>454.0</ele><time>2026-04-26T09:15:48.086Z</time></trkpt><trkpt lat="44.297837" lon="11.0919208"><ele>453.0</ele><time>2026-04-26T09:15:49.085Z</time></trkpt><trkpt lat="44.2977657" lon="11.0919103"><ele>452.0</ele><time>2026-04-26T09:15:50.084Z</time></trkpt><trkpt lat="44.2976561" lon="11.0918784"><ele>451.0</ele><time>2026-04-26T09:15:52.085Z</time></trkpt><trkpt lat="44.2975376" lon="11.0917999"><ele>450.0</ele><time>2026-04-26T09:15:54.085Z</time></trkpt><trkpt lat="44.2974673" lon="11.0917581"><ele>450.0</ele><time>2026-04-26T09:15:55.089Z</time></trkpt><trkpt lat="44.2973802" lon="11.0917582"><ele>450.0</ele><time>2026-04-26T09:15:56.087Z</time></trkpt><trkpt lat="44.2973028" lon="11.0917157"><ele>450.0</ele><time>2026-04-26T09:15:57.084Z</time></trkpt><trkpt lat="44.2972269" lon="11.0917102"><ele>450.0</ele><time>2026-04-26T09:15:58.09Z</time></trkpt><trkpt lat="44.2971435" lon="11.0917304"><ele>450.0</ele><time>2026-04-26T09:15:59.094Z</time></trkpt><trkpt lat="44.2970423" lon="11.0917575"><ele>450.0</ele><time>2026-04-26T09:16:00.083Z</time></trkpt><trkpt lat="44.2969368" lon="11.0917504"><ele>446.6</ele><time>2026-04-26T09:16:01.089Z</time></trkpt><trkpt lat="44.2968468" lon="11.0917286"><ele>443.2</ele><time>2026-04-26T09:16:02.085Z</time></trkpt><trkpt lat="44.2967634" lon="11.0917102"><ele>439.79999999999995</ele><time>2026-04-26T09:16:03.093Z</time></trkpt><trkpt lat="44.2966603" lon="11.0917033"><ele>436.4</ele><time>2026-04-26T09:16:04.101Z</time></trkpt><trkpt lat="44.296561" lon="11.0917078"><ele>433.0</ele><time>2026-04-26T09:16:05.081Z</time></trkpt><trkpt lat="44.2964707" lon="11.0917177"><ele>427.59999999999997</ele><time>2026-04-26T09:16:06.081Z</time></trkpt><trkpt lat="44.2963784" lon="11.091751"><ele>422.19999999999993</ele><time>2026-04-26T09:16:07.081Z</time></trkpt><trkpt lat="44.2962914" lon="11.0918152"><ele>416.8</ele><time>2026-04-26T09:16:08.084Z</time></trkpt><trkpt lat="44.2962129" lon="11.0919039"><ele>411.4</ele><time>2026-04-26T09:16:09.092Z</time></trkpt><trkpt lat="44.2961758" lon="11.0920153"><ele>406.0</ele><time>2026-04-26T09:16:10.091Z</time></trkpt><trkpt lat="44.2961503" lon="11.0921472"><ele>406.0</ele><time>2026-04-26T09:16:11.082Z</time></trkpt><trkpt lat="44.2961221" lon="11.0922606"><ele>406.0</ele><time>2026-04-26T09:16:12.083Z</time></trkpt><trkpt lat="44.296097" lon="11.0924024"><ele>406.0</ele><time>2026-04-26T09:16:13.085Z</time></trkpt><trkpt lat="44.2960989" lon="11.0925582"><ele>406.0</ele><time>2026-04-26T09:16:14.087Z</time></trkpt><trkpt lat="44.2961051" lon="11.0926889"><ele>406.0</ele><time>2026-04-26T09:16:15.083Z</time></trkpt><trkpt lat="44.296173" lon="11.0928342"><ele>408.6</ele><time>2026-04-26T09:16:16.087Z</time></trkpt><trkpt lat="44.296241" lon="11.0929651"><ele>411.20000000000005</ele><time>2026-04-26T09:16:17.083Z</time></trkpt><trkpt lat="44.2962647" lon="11.0930749"><ele>413.79999999999995</ele><time>2026-04-26T09:16:18.097Z</time></trkpt><trkpt lat="44.2962114" lon="11.0932352"><ele>416.4</ele><time>2026-04-26T09:16:20.086Z</time></trkpt><trkpt lat="44.296157" lon="11.0932995"><ele>419.0</ele><time>2026-04-26T09:16:22.087Z</time></trkpt><trkpt lat="44.2959665" lon="11.093183"><ele>418.99999999999994</ele><time>2026-04-26T09:16:24.086Z</time></trkpt><trkpt lat="44.2958803" lon="11.0931146"><ele>419.0</ele><time>2026-04-26T09:16:26.086Z</time></trkpt><trkpt lat="44.2957949" lon="11.0930289"><ele>419.0</ele><time>2026-04-26T09:16:27.087Z</time></trkpt><trkpt lat="44.2957431" lon="11.0929685"><ele>419.0</ele><time>2026-04-26T09:16:28.093Z</time></trkpt><trkpt lat="44.2956807" lon="11.092915"><ele>418.99999999999994</ele><time>2026-04-26T09:16:29.087Z</time></trkpt><trkpt lat="44.2956041" lon="11.092904"><ele>419.0</ele><time>2026-04-26T09:16:30.084Z</time></trkpt><trkpt lat="44.2955224" lon="11.0929634"><ele>416.2</ele><time>2026-04-26T09:16:32.085Z</time></trkpt><trkpt lat="44.2954702" lon="11.0930515"><ele>413.4</ele><time>2026-04-26T09:16:33.088Z</time></trkpt><trkpt lat="44.2954146" lon="11.0931651"><ele>410.6</ele><time>2026-04-26T09:16:34.083Z</time></trkpt><trkpt lat="44.2953704" lon="11.0932842"><ele>407.8</ele><time>2026-04-26T09:16:35.085Z</time></trkpt><trkpt lat="44.2953191" lon="11.0934001"><ele>405.0</ele><time>2026-04-26T09:16:36.083Z</time></trkpt><trkpt lat="44.2952643" lon="11.0934994"><ele>405.0</ele><time>2026-04-26T09:16:37.091Z</time></trkpt><trkpt lat="44.2952086" lon="11.0936031"><ele>405.0</ele><time>2026-04-26T09:16:38.084Z</time></trkpt><trkpt lat="44.2951485" lon="11.0937188"><ele>405.0</ele><time>2026-04-26T09:16:39.093Z</time></trkpt><trkpt lat="44.2950928" lon="11.0938173"><ele>405.0</ele><time>2026-04-26T09:16:40.081Z</time></trkpt><trkpt lat="44.2950305" lon="11.0939127"><ele>405.0</ele><time>2026-04-26T09:16:41.083Z</time></trkpt><trkpt lat="44.2949582" lon="11.0940346"><ele>402.2</ele><time>2026-04-26T09:16:42.083Z</time></trkpt><trkpt lat="44.2948931" lon="11.0941191"><ele>399.4</ele><time>2026-04-26T09:16:43.084Z</time></trkpt><trkpt lat="44.294816" lon="11.0942143"><ele>396.6</ele><time>2026-04-26T09:16:44.084Z</time></trkpt><trkpt lat="44.2947381" lon="11.0942952"><ele>393.8</ele><time>2026-04-26T09:16:45.091Z</time></trkpt><trkpt lat="44.2946375" lon="11.0943643"><ele>391.0</ele><time>2026-04-26T09:16:46.083Z</time></trkpt><trkpt lat="44.2945415" lon="11.094442"><ele>391.0</ele><time>2026-04-26T09:16:47.093Z</time></trkpt><trkpt lat="44.2944622" lon="11.0945125"><ele>391.0</ele><time>2026-04-26T09:16:48.084Z</time></trkpt><trkpt lat="44.2943887" lon="11.0946127"><ele>391.0</ele><time>2026-04-26T09:16:49.089Z</time></trkpt><trkpt lat="44.2942971" lon="11.0947029"><ele>391.0</ele><time>2026-04-26T09:16:50.089Z</time></trkpt><trkpt lat="44.2942461" lon="11.0948469"><ele>391.0</ele><time>2026-04-26T09:16:51.091Z</time></trkpt><trkpt lat="44.2941956" lon="11.0949496"><ele>394.8</ele><time>2026-04-26T09:16:52.083Z</time></trkpt><trkpt lat="44.2941282" lon="11.0950606"><ele>398.6</ele><time>2026-04-26T09:16:53.086Z</time></trkpt><trkpt lat="44.2940714" lon="11.0951776"><ele>402.4</ele><time>2026-04-26T09:16:54.084Z</time></trkpt><trkpt lat="44.2940179" lon="11.0952999"><ele>406.2</ele><time>2026-04-26T09:16:55.092Z</time></trkpt><trkpt lat="44.2939702" lon="11.0954345"><ele>410.0</ele><time>2026-04-26T09:16:56.096Z</time></trkpt><trkpt lat="44.2938835" lon="11.0955326"><ele>406.0</ele><time>2026-04-26T09:16:57.088Z</time></trkpt><trkpt lat="44.2938309" lon="11.0956485"><ele>402.0</ele><time>2026-04-26T09:16:58.083Z</time></trkpt><trkpt lat="44.2937442" lon="11.0957365"><ele>398.0</ele><time>2026-04-26T09:16:59.086Z</time></trkpt><trkpt lat="44.2936553" lon="11.0958397"><ele>394.0</ele><time>2026-04-26T09:17:00.087Z</time></trkpt><trkpt lat="44.2935793" lon="11.0959408"><ele>390.0</ele><time>2026-04-26T09:17:01.087Z</time></trkpt><trkpt lat="44.2935256" lon="11.0960655"><ele>390.0</ele><time>2026-04-26T09:17:02.083Z</time></trkpt><trkpt lat="44.2934738" lon="11.0961847"><ele>390.0</ele><time>2026-04-26T09:17:03.09Z</time></trkpt><trkpt lat="44.29341" lon="11.0962885"><ele>390.0</ele><time>2026-04-26T09:17:04.086Z</time></trkpt><trkpt lat="44.2933428" lon="11.096407"><ele>390.0</ele><time>2026-04-26T09:17:05.09Z</time></trkpt><trkpt lat="44.2932647" lon="11.0965131"><ele>390.0</ele><time>2026-04-26T09:17:06.095Z</time></trkpt><trkpt lat="44.2931928" lon="11.0966178"><ele>387.0</ele><time>2026-04-26T09:17:07.088Z</time></trkpt><trkpt lat="44.2931299" lon="11.0967322"><ele>384.0</ele><time>2026-04-26T09:17:08.086Z</time></trkpt><trkpt lat="44.2931036" lon="11.0968837"><ele>381.0</ele><time>2026-04-26T09:17:09.087Z</time></trkpt><trkpt lat="44.2930601" lon="11.0970044"><ele>378.0</ele><time>2026-04-26T09:17:10.087Z</time></trkpt><trkpt lat="44.2930396" lon="11.0971188"><ele>375.0</ele><time>2026-04-26T09:17:11.082Z</time></trkpt><trkpt lat="44.2930189" lon="11.0972719"><ele>375.0</ele><time>2026-04-26T09:17:12.081Z</time></trkpt><trkpt lat="44.2930017" lon="11.0974005"><ele>375.0</ele><time>2026-04-26T09:17:13.084Z</time></trkpt><trkpt lat="44.2929821" lon="11.0975399"><ele>375.0</ele><time>2026-04-26T09:17:14.081Z</time></trkpt><trkpt lat="44.292944" lon="11.0976748"><ele>375.0</ele><time>2026-04-26T09:17:15.086Z</time></trkpt><trkpt lat="44.2929069" lon="11.0978113"><ele>375.0</ele><time>2026-04-26T09:17:16.088Z</time></trkpt><trkpt lat="44.2928777" lon="11.0979443"><ele>376.4</ele><time>2026-04-26T09:17:17.085Z</time></trkpt><trkpt lat="44.2928495" lon="11.0980884"><ele>377.8</ele><time>2026-04-26T09:17:18.084Z</time></trkpt><trkpt lat="44.292814" lon="11.0982395"><ele>379.20000000000005</ele><time>2026-04-26T09:17:19.089Z</time></trkpt><trkpt lat="44.2927852" lon="11.0983834"><ele>380.6</ele><time>2026-04-26T09:17:20.085Z</time></trkpt><trkpt lat="44.292722" lon="11.0985185"><ele>382.0</ele><time>2026-04-26T09:17:21.085Z</time></trkpt><trkpt lat="44.2926578" lon="11.0986335"><ele>382.6</ele><time>2026-04-26T09:17:22.09Z</time></trkpt><trkpt lat="44.2926091" lon="11.0987772"><ele>383.20000000000005</ele><time>2026-04-26T09:17:23.086Z</time></trkpt><trkpt lat="44.2925599" lon="11.0989061"><ele>383.8</ele><time>2026-04-26T09:17:24.086Z</time></trkpt><trkpt lat="44.2925208" lon="11.099031"><ele>384.4</ele><time>2026-04-26T09:17:25.09Z</time></trkpt><trkpt lat="44.2924701" lon="11.0991594"><ele>385.0</ele><time>2026-04-26T09:17:26.085Z</time></trkpt><trkpt lat="44.2924256" lon="11.0992704"><ele>388.2</ele><time>2026-04-26T09:17:27.086Z</time></trkpt><trkpt lat="44.2923581" lon="11.0993676"><ele>391.4</ele><time>2026-04-26T09:17:28.081Z</time></trkpt><trkpt lat="44.2922913" lon="11.099467"><ele>394.6</ele><time>2026-04-26T09:17:29.081Z</time></trkpt><trkpt lat="44.2922264" lon="11.0995594"><ele>397.8</ele><time>2026-04-26T09:17:30.088Z</time></trkpt><trkpt lat="44.2921735" lon="11.0996621"><ele>401.0</ele><time>2026-04-26T09:17:31.086Z</time></trkpt><trkpt lat="44.2921" lon="11.0997462"><ele>399.49999999999994</ele><time>2026-04-26T09:17:32.088Z</time></trkpt><trkpt lat="44.2920213" lon="11.0998207"><ele>398.0</ele><time>2026-04-26T09:17:33.092Z</time></trkpt><trkpt lat="44.2919452" lon="11.0998894"><ele>396.5</ele><time>2026-04-26T09:17:34.088Z</time></trkpt><trkpt lat="44.2918729" lon="11.0999256"><ele>395.0</ele><time>2026-04-26T09:17:35.09Z</time></trkpt><trkpt lat="44.2917907" lon="11.0999874"><ele>393.49999999999994</ele><time>2026-04-26T09:17:36.083Z</time></trkpt><trkpt lat="44.29172" lon="11.1000663"><ele>392.0</ele><time>2026-04-26T09:17:37.084Z</time></trkpt><trkpt lat="44.291654" lon="11.1001542"><ele>392.0</ele><time>2026-04-26T09:17:38.084Z</time></trkpt><trkpt lat="44.2915913" lon="11.1002272"><ele>392.0</ele><time>2026-04-26T09:17:39.088Z</time></trkpt><trkpt lat="44.2915343" lon="11.1003171"><ele>392.0</ele><time>2026-04-26T09:17:40.083Z</time></trkpt><trkpt lat="44.2914546" lon="11.1004006"><ele>392.0</ele><time>2026-04-26T09:17:41.089Z</time></trkpt><trkpt lat="44.2913984" lon="11.1005067"><ele>392.0</ele><time>2026-04-26T09:17:42.091Z</time></trkpt><trkpt lat="44.2913139" lon="11.1005676"><ele>389.0</ele><time>2026-04-26T09:17:43.087Z</time></trkpt><trkpt lat="44.2912404" lon="11.1006537"><ele>386.0</ele><time>2026-04-26T09:17:44.087Z</time></trkpt><trkpt lat="44.2911571" lon="11.1007326"><ele>383.0</ele><time>2026-04-26T09:17:45.09Z</time></trkpt><trkpt lat="44.291092" lon="11.1008294"><ele>380.0</ele><time>2026-04-26T09:17:46.086Z</time></trkpt><trkpt lat="44.29101" lon="11.100905"><ele>377.0</ele><time>2026-04-26T09:17:47.084Z</time></trkpt><trkpt lat="44.290932" lon="11.100989"><ele>377.0</ele><time>2026-04-26T09:17:48.085Z</time></trkpt><trkpt lat="44.2908616" lon="11.1010711"><ele>377.0</ele><time>2026-04-26T09:17:49.089Z</time></trkpt><trkpt lat="44.2907888" lon="11.1011696"><ele>377.0</ele><time>2026-04-26T09:17:50.087Z</time></trkpt><trkpt lat="44.2907027" lon="11.1012531"><ele>377.0</ele><time>2026-04-26T09:17:51.09Z</time></trkpt><trkpt lat="44.2906176" lon="11.1013372"><ele>377.0</ele><time>2026-04-26T09:17:52.084Z</time></trkpt><trkpt lat="44.2905316" lon="11.1014159"><ele>377.6</ele><time>2026-04-26T09:17:53.087Z</time></trkpt><trkpt lat="44.2904401" lon="11.1014761"><ele>378.20000000000005</ele><time>2026-04-26T09:17:54.087Z</time></trkpt><trkpt lat="44.290347" lon="11.1015382"><ele>378.8</ele><time>2026-04-26T09:17:55.09Z</time></trkpt><trkpt lat="44.2902628" lon="11.1015974"><ele>379.4</ele><time>2026-04-26T09:17:56.089Z</time></trkpt><trkpt lat="44.2901964" lon="11.1016836"><ele>380.0</ele><time>2026-04-26T09:17:57.089Z</time></trkpt><trkpt lat="44.2901422" lon="11.1017914"><ele>380.0</ele><time>2026-04-26T09:17:58.086Z</time></trkpt><trkpt lat="44.2901236" lon="11.1019164"><ele>380.0</ele><time>2026-04-26T09:17:59.089Z</time></trkpt><trkpt lat="44.2900986" lon="11.1020327"><ele>380.0</ele><time>2026-04-26T09:18:00.083Z</time></trkpt><trkpt lat="44.2901885" lon="11.1021088"><ele>380.0</ele><time>2026-04-26T09:18:01.093Z</time></trkpt><trkpt lat="44.2902421" lon="11.102196"><ele>380.0</ele><time>2026-04-26T09:18:02.09Z</time></trkpt><trkpt lat="44.2903068" lon="11.1022702"><ele>380.0</ele><time>2026-04-26T09:18:03.086Z</time></trkpt><trkpt lat="44.2903806" lon="11.1023441"><ele>380.0</ele><time>2026-04-26T09:18:04.087Z</time></trkpt><trkpt lat="44.2904634" lon="11.1024019"><ele>380.0</ele><time>2026-04-26T09:18:05.086Z</time></trkpt><trkpt lat="44.2905376" lon="11.1024478"><ele>380.0</ele><time>2026-04-26T09:18:06.089Z</time></trkpt><trkpt lat="44.2906252" lon="11.1024821"><ele>380.0</ele><time>2026-04-26T09:18:07.087Z</time></trkpt><trkpt lat="44.2907142" lon="11.1025065"><ele>380.0</ele><time>2026-04-26T09:18:08.085Z</time></trkpt><trkpt lat="44.2907924" lon="11.1025429"><ele>380.0</ele><time>2026-04-26T09:18:09.087Z</time></trkpt><trkpt lat="44.2908538" lon="11.1026115"><ele>380.42857142857144</ele><time>2026-04-26T09:18:10.095Z</time></trkpt><trkpt lat="44.2908921" lon="11.102695"><ele>380.8571428571429</ele><time>2026-04-26T09:18:11.084Z</time></trkpt><trkpt lat="44.2908534" lon="11.1027906"><ele>381.2857142857143</ele><time>2026-04-26T09:18:12.081Z</time></trkpt><trkpt lat="44.2907997" lon="11.1028447"><ele>381.7142857142857</ele><time>2026-04-26T09:18:13.089Z</time></trkpt><trkpt lat="44.2907317" lon="11.1028561"><ele>382.1428571428571</ele><time>2026-04-26T09:18:14.085Z</time></trkpt><trkpt lat="44.2906649" lon="11.1028273"><ele>382.57142857142856</ele><time>2026-04-26T09:18:15.085Z</time></trkpt><trkpt lat="44.2905996" lon="11.1027919"><ele>383.0</ele><time>2026-04-26T09:18:16.084Z</time></trkpt><trkpt lat="44.2905311" lon="11.1027574"><ele>383.0</ele><time>2026-04-26T09:18:17.083Z</time></trkpt><trkpt lat="44.2904646" lon="11.1027388"><ele>383.0</ele><time>2026-04-26T09:18:18.08Z</time></trkpt><trkpt lat="44.2903843" lon="11.102712"><ele>383.0</ele><time>2026-04-26T09:18:19.083Z</time></trkpt><trkpt lat="44.2902999" lon="11.1026829"><ele>383.0</ele><time>2026-04-26T09:18:20.083Z</time></trkpt><trkpt lat="44.2902373" lon="11.1026517"><ele>383.0</ele><time>2026-04-26T09:18:21.088Z</time></trkpt><trkpt lat="44.290155" lon="11.1026274"><ele>383.0</ele><time>2026-04-26T09:18:22.087Z</time></trkpt><trkpt lat="44.2900681" lon="11.1026012"><ele>383.0</ele><time>2026-04-26T09:18:23.084Z</time></trkpt><trkpt lat="44.2899986" lon="11.1025647"><ele>383.0</ele><time>2026-04-26T09:18:24.085Z</time></trkpt><trkpt lat="44.289923" lon="11.1025439"><ele>383.0</ele><time>2026-04-26T09:18:25.084Z</time></trkpt><trkpt lat="44.2898272" lon="11.1025415"><ele>383.0</ele><time>2026-04-26T09:18:26.085Z</time></trkpt><trkpt lat="44.2897277" lon="11.1025788"><ele>383.0</ele><time>2026-04-26T09:18:27.08Z</time></trkpt><trkpt lat="44.2896363" lon="11.1026016"><ele>383.0</ele><time>2026-04-26T09:18:28.081Z</time></trkpt><trkpt lat="44.2895425" lon="11.1026236"><ele>380.4</ele><time>2026-04-26T09:18:29.085Z</time></trkpt><trkpt lat="44.2894468" lon="11.1026425"><ele>377.79999999999995</ele><time>2026-04-26T09:18:30.085Z</time></trkpt><trkpt lat="44.2893507" lon="11.1026413"><ele>375.2</ele><time>2026-04-26T09:18:31.084Z</time></trkpt><trkpt lat="44.2892533" lon="11.1026294"><ele>372.6</ele><time>2026-04-26T09:18:32.085Z</time></trkpt><trkpt lat="44.2891636" lon="11.1026008"><ele>370.0</ele><time>2026-04-26T09:18:33.087Z</time></trkpt><trkpt lat="44.2890657" lon="11.1025767"><ele>370.0</ele><time>2026-04-26T09:18:34.084Z</time></trkpt><trkpt lat="44.2889685" lon="11.1025567"><ele>370.0</ele><time>2026-04-26T09:18:35.086Z</time></trkpt><trkpt lat="44.2888695" lon="11.1025419"><ele>370.0</ele><time>2026-04-26T09:18:36.088Z</time></trkpt><trkpt lat="44.288774" lon="11.1025338"><ele>370.0</ele><time>2026-04-26T09:18:37.09Z</time></trkpt><trkpt lat="44.2886762" lon="11.1025197"><ele>370.0</ele><time>2026-04-26T09:18:38.084Z</time></trkpt><trkpt lat="44.2885828" lon="11.1025143"><ele>368.3333333333333</ele><time>2026-04-26T09:18:39.094Z</time></trkpt><trkpt lat="44.2884919" lon="11.1024891"><ele>366.66666666666663</ele><time>2026-04-26T09:18:40.087Z</time></trkpt><trkpt lat="44.2884292" lon="11.1024161"><ele>365.0</ele><time>2026-04-26T09:18:41.085Z</time></trkpt><trkpt lat="44.2884007" lon="11.1023057"><ele>363.3333333333333</ele><time>2026-04-26T09:18:42.085Z</time></trkpt><trkpt lat="44.2884064" lon="11.1021911"><ele>361.6666666666667</ele><time>2026-04-26T09:18:43.086Z</time></trkpt><trkpt lat="44.2884452" lon="11.1020793"><ele>360.0</ele><time>2026-04-26T09:18:44.083Z</time></trkpt><trkpt lat="44.288488" lon="11.1019765"><ele>358.8</ele><time>2026-04-26T09:18:45.09Z</time></trkpt><trkpt lat="44.2885417" lon="11.1018768"><ele>357.6</ele><time>2026-04-26T09:18:46.117Z</time></trkpt><trkpt lat="44.2886057" lon="11.1017745"><ele>356.4</ele><time>2026-04-26T09:18:47.087Z</time></trkpt><trkpt lat="44.2886719" lon="11.1016947"><ele>355.2</ele><time>2026-04-26T09:18:48.083Z</time></trkpt><trkpt lat="44.2887284" lon="11.1016078"><ele>354.0</ele><time>2026-04-26T09:18:49.082Z</time></trkpt><trkpt lat="44.2887962" lon="11.1015136"><ele>354.8333333333333</ele><time>2026-04-26T09:18:50.087Z</time></trkpt><trkpt lat="44.2888627" lon="11.1014168"><ele>355.6666666666667</ele><time>2026-04-26T09:18:51.084Z</time></trkpt><trkpt lat="44.2889274" lon="11.101319"><ele>356.5</ele><time>2026-04-26T09:18:52.084Z</time></trkpt><trkpt lat="44.2889766" lon="11.1012333"><ele>357.33333333333337</ele><time>2026-04-26T09:18:53.088Z</time></trkpt><trkpt lat="44.2889948" lon="11.1011149"><ele>358.1666666666667</ele><time>2026-04-26T09:18:54.086Z</time></trkpt><trkpt lat="44.289001" lon="11.1010174"><ele>359.0</ele><time>2026-04-26T09:18:55.082Z</time></trkpt><trkpt lat="44.2889437" lon="11.1009598"><ele>356.1666666666667</ele><time>2026-04-26T09:18:56.087Z</time></trkpt><trkpt lat="44.2888939" lon="11.1008867"><ele>353.33333333333337</ele><time>2026-04-26T09:18:57.086Z</time></trkpt><trkpt lat="44.2887973" lon="11.1008562"><ele>350.5</ele><time>2026-04-26T09:18:59.087Z</time></trkpt><trkpt lat="44.2887269" lon="11.1009006"><ele>347.6666666666667</ele><time>2026-04-26T09:19:00.089Z</time></trkpt><trkpt lat="44.2887012" lon="11.1010218"><ele>344.8333333333333</ele><time>2026-04-26T09:19:01.077Z</time></trkpt><trkpt lat="44.2886637" lon="11.1011214"><ele>342.0</ele><time>2026-04-26T09:19:02.08Z</time></trkpt><trkpt lat="44.288624" lon="11.1012264"><ele>342.0</ele><time>2026-04-26T09:19:03.075Z</time></trkpt><trkpt lat="44.2885429" lon="11.1012947"><ele>342.0</ele><time>2026-04-26T09:19:04.085Z</time></trkpt><trkpt lat="44.2884907" lon="11.1013732"><ele>342.0</ele><time>2026-04-26T09:19:05.083Z</time></trkpt><trkpt lat="44.2884332" lon="11.1014324"><ele>342.0</ele><time>2026-04-26T09:19:06.082Z</time></trkpt><trkpt lat="44.2883558" lon="11.1015011"><ele>342.0</ele><time>2026-04-26T09:19:07.092Z</time></trkpt><trkpt lat="44.2882864" lon="11.1015724"><ele>342.0</ele><time>2026-04-26T09:19:08.086Z</time></trkpt><trkpt lat="44.2882363" lon="11.1016534"><ele>340.40000000000003</ele><time>2026-04-26T09:19:09.086Z</time></trkpt><trkpt lat="44.2881899" lon="11.1017566"><ele>338.8</ele><time>2026-04-26T09:19:10.084Z</time></trkpt><trkpt lat="44.288138" lon="11.1018732"><ele>337.2</ele><time>2026-04-26T09:19:11.086Z</time></trkpt><trkpt lat="44.2880933" lon="11.1019868"><ele>335.6</ele><time>2026-04-26T09:19:12.087Z</time></trkpt><trkpt lat="44.2880579" lon="11.1021105"><ele>334.0</ele><time>2026-04-26T09:19:13.083Z</time></trkpt><trkpt lat="44.2880255" lon="11.1022383"><ele>334.0</ele><time>2026-04-26T09:19:14.082Z</time></trkpt><trkpt lat="44.2880152" lon="11.1023682"><ele>334.0</ele><time>2026-04-26T09:19:15.082Z</time></trkpt><trkpt lat="44.2880209" lon="11.102512"><ele>334.0</ele><time>2026-04-26T09:19:16.084Z</time></trkpt><trkpt lat="44.2880326" lon="11.1026476"><ele>334.0</ele><time>2026-04-26T09:19:17.08Z</time></trkpt><trkpt lat="44.2880506" lon="11.1027673"><ele>334.0</ele><time>2026-04-26T09:19:18.087Z</time></trkpt><trkpt lat="44.2881006" lon="11.1028878"><ele>339.2</ele><time>2026-04-26T09:19:19.082Z</time></trkpt><trkpt lat="44.2881561" lon="11.1030017"><ele>344.4</ele><time>2026-04-26T09:19:20.085Z</time></trkpt><trkpt lat="44.2882372" lon="11.1030591"><ele>349.6</ele><time>2026-04-26T09:19:21.083Z</time></trkpt><trkpt lat="44.2883154" lon="11.1031335"><ele>354.8</ele><time>2026-04-26T09:19:22.085Z</time></trkpt><trkpt lat="44.288404" lon="11.1031889"><ele>360.0</ele><time>2026-04-26T09:19:23.092Z</time></trkpt><trkpt lat="44.2884861" lon="11.1032444"><ele>357.2</ele><time>2026-04-26T09:19:24.084Z</time></trkpt><trkpt lat="44.288562" lon="11.1033185"><ele>354.4</ele><time>2026-04-26T09:19:25.084Z</time></trkpt><trkpt lat="44.2886452" lon="11.1033821"><ele>351.6</ele><time>2026-04-26T09:19:26.087Z</time></trkpt><trkpt lat="44.2887159" lon="11.1034503"><ele>348.8</ele><time>2026-04-26T09:19:27.081Z</time></trkpt><trkpt lat="44.2887959" lon="11.1035295"><ele>346.0</ele><time>2026-04-26T09:19:28.097Z</time></trkpt><trkpt lat="44.2888636" lon="11.103629"><ele>348.4</ele><time>2026-04-26T09:19:29.085Z</time></trkpt><trkpt lat="44.2889323" lon="11.1037253"><ele>350.8</ele><time>2026-04-26T09:19:30.084Z</time></trkpt><trkpt lat="44.2889959" lon="11.1037994"><ele>353.2</ele><time>2026-04-26T09:19:31.087Z</time></trkpt><trkpt lat="44.2890853" lon="11.1037984"><ele>355.59999999999997</ele><time>2026-04-26T09:19:32.082Z</time></trkpt><trkpt lat="44.2892055" lon="11.1038271"><ele>358.0</ele><time>2026-04-26T09:19:34.081Z</time></trkpt><trkpt lat="44.2892837" lon="11.1039323"><ele>358.0</ele><time>2026-04-26T09:19:36.083Z</time></trkpt><trkpt lat="44.2892705" lon="11.1040682"><ele>358.0</ele><time>2026-04-26T09:19:38.085Z</time></trkpt><trkpt lat="44.2891824" lon="11.1041316"><ele>358.0</ele><time>2026-04-26T09:19:40.086Z</time></trkpt><trkpt lat="44.289069" lon="11.1041121"><ele>358.0</ele><time>2026-04-26T09:19:42.084Z</time></trkpt><trkpt lat="44.2889456" lon="11.1040692"><ele>358.0</ele><time>2026-04-26T09:19:44.088Z</time></trkpt><trkpt lat="44.2888791" lon="11.1040316"><ele>356.0</ele><time>2026-04-26T09:19:45.082Z</time></trkpt><trkpt lat="44.2887749" lon="11.1039103"><ele>354.0</ele><time>2026-04-26T09:19:47.092Z</time></trkpt><trkpt lat="44.2887198" lon="11.1038452"><ele>352.0</ele><time>2026-04-26T09:19:48.082Z</time></trkpt><trkpt lat="44.288665" lon="11.1037778"><ele>350.0</ele><time>2026-04-26T09:19:49.088Z</time></trkpt><trkpt lat="44.288601" lon="11.1037221"><ele>348.0</ele><time>2026-04-26T09:19:50.085Z</time></trkpt><trkpt lat="44.2885337" lon="11.1036804"><ele>346.0</ele><time>2026-04-26T09:19:51.086Z</time></trkpt><trkpt lat="44.2884601" lon="11.1036543"><ele>346.0</ele><time>2026-04-26T09:19:52.085Z</time></trkpt><trkpt lat="44.2883841" lon="11.1036379"><ele>346.0</ele><time>2026-04-26T09:19:53.086Z</time></trkpt><trkpt lat="44.2882935" lon="11.1036387"><ele>346.0</ele><time>2026-04-26T09:19:54.083Z</time></trkpt><trkpt lat="44.2882059" lon="11.1036418"><ele>346.0</ele><time>2026-04-26T09:19:55.084Z</time></trkpt><trkpt lat="44.2881131" lon="11.1036431"><ele>346.0</ele><time>2026-04-26T09:19:56.083Z</time></trkpt><trkpt lat="44.2880296" lon="11.1036321"><ele>346.0</ele><time>2026-04-26T09:19:57.087Z</time></trkpt><trkpt lat="44.2879314" lon="11.1036061"><ele>343.8</ele><time>2026-04-26T09:19:58.101Z</time></trkpt><trkpt lat="44.287844" lon="11.1035898"><ele>341.6</ele><time>2026-04-26T09:19:59.087Z</time></trkpt><trkpt lat="44.2877621" lon="11.1035344"><ele>339.4</ele><time>2026-04-26T09:20:00.083Z</time></trkpt><trkpt lat="44.2876855" lon="11.1034651"><ele>337.2</ele><time>2026-04-26T09:20:01.089Z</time></trkpt><trkpt lat="44.2876242" lon="11.1033668"><ele>335.0</ele><time>2026-04-26T09:20:02.081Z</time></trkpt><trkpt lat="44.2875883" lon="11.1032437"><ele>335.0</ele><time>2026-04-26T09:20:03.081Z</time></trkpt><trkpt lat="44.287555" lon="11.1031283"><ele>335.0</ele><time>2026-04-26T09:20:04.082Z</time></trkpt><trkpt lat="44.2875137" lon="11.1030055"><ele>335.0</ele><time>2026-04-26T09:20:05.087Z</time></trkpt><trkpt lat="44.2874693" lon="11.1028832"><ele>335.0</ele><time>2026-04-26T09:20:06.086Z</time></trkpt><trkpt lat="44.2874214" lon="11.1027587"><ele>335.0</ele><time>2026-04-26T09:20:07.078Z</time></trkpt><trkpt lat="44.2873788" lon="11.1026298"><ele>335.0</ele><time>2026-04-26T09:20:08.084Z</time></trkpt><trkpt lat="44.2873401" lon="11.1025008"><ele>335.0</ele><time>2026-04-26T09:20:09.084Z</time></trkpt><trkpt lat="44.2873095" lon="11.1023775"><ele>335.0</ele><time>2026-04-26T09:20:10.084Z</time></trkpt><trkpt lat="44.2872921" lon="11.1022391"><ele>335.0</ele><time>2026-04-26T09:20:11.083Z</time></trkpt><trkpt lat="44.2873135" lon="11.1021068"><ele>335.0</ele><time>2026-04-26T09:20:12.086Z</time></trkpt><trkpt lat="44.2873121" lon="11.1019966"><ele>334.85714285714283</ele><time>2026-04-26T09:20:13.086Z</time></trkpt><trkpt lat="44.2872856" lon="11.1018979"><ele>334.7142857142857</ele><time>2026-04-26T09:20:14.092Z</time></trkpt><trkpt lat="44.2872376" lon="11.1018307"><ele>334.57142857142856</ele><time>2026-04-26T09:20:15.086Z</time></trkpt><trkpt lat="44.287169" lon="11.1018019"><ele>334.42857142857144</ele><time>2026-04-26T09:20:16.083Z</time></trkpt><trkpt lat="44.2871058" lon="11.1018255"><ele>334.2857142857143</ele><time>2026-04-26T09:20:17.083Z</time></trkpt><trkpt lat="44.2870422" lon="11.1018634"><ele>334.1428571428571</ele><time>2026-04-26T09:20:18.085Z</time></trkpt><trkpt lat="44.2869908" lon="11.1019253"><ele>334.0</ele><time>2026-04-26T09:20:19.086Z</time></trkpt><trkpt lat="44.2870292" lon="11.1020821"><ele>330.5</ele><time>2026-04-26T09:20:20.084Z</time></trkpt><trkpt lat="44.2870365" lon="11.1021739"><ele>327.0</ele><time>2026-04-26T09:20:21.086Z</time></trkpt><trkpt lat="44.287065" lon="11.1022887"><ele>323.5</ele><time>2026-04-26T09:20:22.087Z</time></trkpt><trkpt lat="44.2870892" lon="11.1023851"><ele>320.0</ele><time>2026-04-26T09:20:23.085Z</time></trkpt><trkpt lat="44.2871107" lon="11.1024786"><ele>316.5</ele><time>2026-04-26T09:20:24.083Z</time></trkpt><trkpt lat="44.2871256" lon="11.1025963"><ele>313.0</ele><time>2026-04-26T09:20:25.088Z</time></trkpt><trkpt lat="44.2871424" lon="11.1027097"><ele>312.3333333333333</ele><time>2026-04-26T09:20:26.086Z</time></trkpt><trkpt lat="44.2871657" lon="11.1028156"><ele>311.66666666666663</ele><time>2026-04-26T09:20:27.083Z</time></trkpt><trkpt lat="44.287186" lon="11.1029325"><ele>311.0</ele><time>2026-04-26T09:20:28.084Z</time></trkpt><trkpt lat="44.2871986" lon="11.1030691"><ele>310.3333333333333</ele><time>2026-04-26T09:20:29.08Z</time></trkpt><trkpt lat="44.2871856" lon="11.1031881"><ele>309.6666666666667</ele><time>2026-04-26T09:20:30.086Z</time></trkpt><trkpt lat="44.287147" lon="11.1032974"><ele>309.0</ele><time>2026-04-26T09:20:31.081Z</time></trkpt><trkpt lat="44.2870996" lon="11.1034117"><ele>308.59999999999997</ele><time>2026-04-26T09:20:32.087Z</time></trkpt><trkpt lat="44.2870609" lon="11.1035225"><ele>308.2</ele><time>2026-04-26T09:20:33.091Z</time></trkpt><trkpt lat="44.2870255" lon="11.1036331"><ele>307.79999999999995</ele><time>2026-04-26T09:20:34.082Z</time></trkpt><trkpt lat="44.2870184" lon="11.1037675"><ele>307.4</ele><time>2026-04-26T09:20:35.085Z</time></trkpt><trkpt lat="44.2870053" lon="11.1038781"><ele>307.0</ele><time>2026-04-26T09:20:36.082Z</time></trkpt><trkpt lat="44.2870801" lon="11.1039791"><ele>306.0</ele><time>2026-04-26T09:20:37.082Z</time></trkpt><trkpt lat="44.287132" lon="11.1040832"><ele>305.0</ele><time>2026-04-26T09:20:38.083Z</time></trkpt><trkpt lat="44.287209" lon="11.1041532"><ele>304.0</ele><time>2026-04-26T09:20:39.09Z</time></trkpt><trkpt lat="44.2873019" lon="11.1042344"><ele>303.0</ele><time>2026-04-26T09:20:40.082Z</time></trkpt><trkpt lat="44.2873881" lon="11.1042579"><ele>302.0</ele><time>2026-04-26T09:20:41.084Z</time></trkpt><trkpt lat="44.287482" lon="11.1042559"><ele>304.1666666666667</ele><time>2026-04-26T09:20:42.083Z</time></trkpt><trkpt lat="44.287577" lon="11.1042597"><ele>306.33333333333337</ele><time>2026-04-26T09:20:43.085Z</time></trkpt><trkpt lat="44.2876634" lon="11.104272"><ele>308.5</ele><time>2026-04-26T09:20:44.083Z</time></trkpt><trkpt lat="44.2877601" lon="11.1042957"><ele>310.6666666666667</ele><time>2026-04-26T09:20:45.083Z</time></trkpt><trkpt lat="44.287835" lon="11.1043455"><ele>312.8333333333333</ele><time>2026-04-26T09:20:46.082Z</time></trkpt><trkpt lat="44.287889" lon="11.104416"><ele>315.0</ele><time>2026-04-26T09:20:47.083Z</time></trkpt><trkpt lat="44.2878934" lon="11.1045127"><ele>315.0</ele><time>2026-04-26T09:20:48.082Z</time></trkpt><trkpt lat="44.2878928" lon="11.104609"><ele>315.0</ele><time>2026-04-26T09:20:49.085Z</time></trkpt><trkpt lat="44.2878158" lon="11.1046177"><ele>315.0</ele><time>2026-04-26T09:20:50.082Z</time></trkpt><trkpt lat="44.2877426" lon="11.1046126"><ele>315.0</ele><time>2026-04-26T09:20:51.085Z</time></trkpt><trkpt lat="44.2876737" lon="11.1045738"><ele>315.0</ele><time>2026-04-26T09:20:52.08Z</time></trkpt><trkpt lat="44.2876075" lon="11.1045326"><ele>315.0</ele><time>2026-04-26T09:20:53.082Z</time></trkpt><trkpt lat="44.2875388" lon="11.1044926"><ele>315.0</ele><time>2026-04-26T09:20:54.081Z</time></trkpt><trkpt lat="44.2874661" lon="11.1044592"><ele>315.0</ele><time>2026-04-26T09:20:55.09Z</time></trkpt><trkpt lat="44.2873926" lon="11.1044317"><ele>315.0</ele><time>2026-04-26T09:20:56.084Z</time></trkpt><trkpt lat="44.2873056" lon="11.1044325"><ele>315.0</ele><time>2026-04-26T09:20:57.086Z</time></trkpt><trkpt lat="44.2872331" lon="11.1044461"><ele>315.0</ele><time>2026-04-26T09:20:58.082Z</time></trkpt><trkpt lat="44.2871625" lon="11.1044776"><ele>315.0</ele><time>2026-04-26T09:20:59.084Z</time></trkpt><trkpt lat="44.2870832" lon="11.1044889"><ele>315.0</ele><time>2026-04-26T09:21:00.08Z</time></trkpt><trkpt lat="44.2869986" lon="11.1044692"><ele>313.6666666666667</ele><time>2026-04-26T09:21:01.082Z</time></trkpt><trkpt lat="44.2869261" lon="11.1044056"><ele>312.3333333333333</ele><time>2026-04-26T09:21:02.085Z</time></trkpt><trkpt lat="44.2868739" lon="11.1043196"><ele>311.0</ele><time>2026-04-26T09:21:03.085Z</time></trkpt><trkpt lat="44.2868246" lon="11.10422"><ele>309.66666666666663</ele><time>2026-04-26T09:21:04.085Z</time></trkpt><trkpt lat="44.286774" lon="11.1041161"><ele>308.3333333333333</ele><time>2026-04-26T09:21:05.088Z</time></trkpt><trkpt lat="44.2867174" lon="11.1040237"><ele>307.0</ele><time>2026-04-26T09:21:06.082Z</time></trkpt><trkpt lat="44.2866534" lon="11.1039274"><ele>307.0</ele><time>2026-04-26T09:21:07.087Z</time></trkpt><trkpt lat="44.2865881" lon="11.1038444"><ele>307.0</ele><time>2026-04-26T09:21:08.083Z</time></trkpt><trkpt lat="44.2865286" lon="11.1037337"><ele>307.0</ele><time>2026-04-26T09:21:09.081Z</time></trkpt><trkpt lat="44.2864842" lon="11.1036095"><ele>307.0</ele><time>2026-04-26T09:21:10.084Z</time></trkpt><trkpt lat="44.2864571" lon="11.1034751"><ele>307.0</ele><time>2026-04-26T09:21:11.083Z</time></trkpt><trkpt lat="44.2864363" lon="11.1033303"><ele>307.4</ele><time>2026-04-26T09:21:12.083Z</time></trkpt><trkpt lat="44.2864329" lon="11.1032011"><ele>307.79999999999995</ele><time>2026-04-26T09:21:13.088Z</time></trkpt><trkpt lat="44.2864345" lon="11.1030511"><ele>308.2</ele><time>2026-04-26T09:21:14.085Z</time></trkpt><trkpt lat="44.2864678" lon="11.10291"><ele>308.59999999999997</ele><time>2026-04-26T09:21:15.084Z</time></trkpt><trkpt lat="44.2864785" lon="11.1027792"><ele>309.0</ele><time>2026-04-26T09:21:16.092Z</time></trkpt><trkpt lat="44.2864798" lon="11.1026512"><ele>305.4</ele><time>2026-04-26T09:21:17.081Z</time></trkpt><trkpt lat="44.2864095" lon="11.1025357"><ele>301.79999999999995</ele><time>2026-04-26T09:21:18.084Z</time></trkpt><trkpt lat="44.2863525" lon="11.1024139"><ele>298.20000000000005</ele><time>2026-04-26T09:21:19.087Z</time></trkpt><trkpt lat="44.2862725" lon="11.1023559"><ele>294.6</ele><time>2026-04-26T09:21:20.083Z</time></trkpt><trkpt lat="44.2861863" lon="11.1022576"><ele>291.0</ele><time>2026-04-26T09:21:21.084Z</time></trkpt><trkpt lat="44.2861156" lon="11.1021466"><ele>291.0</ele><time>2026-04-26T09:21:22.085Z</time></trkpt><trkpt lat="44.2860791" lon="11.1020083"><ele>291.0</ele><time>2026-04-26T09:21:23.08Z</time></trkpt><trkpt lat="44.2860309" lon="11.1018807"><ele>291.0</ele><time>2026-04-26T09:21:24.083Z</time></trkpt><trkpt lat="44.2859515" lon="11.1017892"><ele>291.0</ele><time>2026-04-26T09:21:25.087Z</time></trkpt><trkpt lat="44.2858865" lon="11.1017023"><ele>291.0</ele><time>2026-04-26T09:21:26.083Z</time></trkpt><trkpt lat="44.2858204" lon="11.1015894"><ele>290.2</ele><time>2026-04-26T09:21:27.081Z</time></trkpt><trkpt lat="44.285779" lon="11.1014776"><ele>289.40000000000003</ele><time>2026-04-26T09:21:28.084Z</time></trkpt><trkpt lat="44.2857514" lon="11.1013495"><ele>288.6</ele><time>2026-04-26T09:21:29.081Z</time></trkpt><trkpt lat="44.2857575" lon="11.101215"><ele>287.8</ele><time>2026-04-26T09:21:30.081Z</time></trkpt><trkpt lat="44.2857895" lon="11.1010881"><ele>287.0</ele><time>2026-04-26T09:21:31.083Z</time></trkpt><trkpt lat="44.2858396" lon="11.100991"><ele>287.0</ele><time>2026-04-26T09:21:32.101Z</time></trkpt><trkpt lat="44.2859052" lon="11.1009103"><ele>287.0</ele><time>2026-04-26T09:21:33.088Z</time></trkpt><trkpt lat="44.2859929" lon="11.1008499"><ele>287.0</ele><time>2026-04-26T09:21:34.086Z</time></trkpt><trkpt lat="44.2860637" lon="11.1007737"><ele>287.0</ele><time>2026-04-26T09:21:35.079Z</time></trkpt><trkpt lat="44.2861282" lon="11.1006914"><ele>287.0</ele><time>2026-04-26T09:21:36.095Z</time></trkpt><trkpt lat="44.2861839" lon="11.1006039"><ele>287.0</ele><time>2026-04-26T09:21:37.08Z</time></trkpt><trkpt lat="44.2862388" lon="11.100525"><ele>287.6</ele><time>2026-04-26T09:21:38.083Z</time></trkpt><trkpt lat="44.2862901" lon="11.1004205"><ele>288.2</ele><time>2026-04-26T09:21:39.085Z</time></trkpt><trkpt lat="44.2863492" lon="11.1003224"><ele>288.8</ele><time>2026-04-26T09:21:40.085Z</time></trkpt><trkpt lat="44.2864221" lon="11.100234"><ele>289.4</ele><time>2026-04-26T09:21:41.085Z</time></trkpt><trkpt lat="44.2864943" lon="11.1001504"><ele>290.0</ele><time>2026-04-26T09:21:42.095Z</time></trkpt><trkpt lat="44.2865672" lon="11.1000504"><ele>290.0</ele><time>2026-04-26T09:21:43.087Z</time></trkpt><trkpt lat="44.286635" lon="11.0999484"><ele>290.0</ele><time>2026-04-26T09:21:44.085Z</time></trkpt><trkpt lat="44.2866951" lon="11.0998337"><ele>290.0</ele><time>2026-04-26T09:21:45.087Z</time></trkpt><trkpt lat="44.2867498" lon="11.099722"><ele>290.0</ele><time>2026-04-26T09:21:46.094Z</time></trkpt><trkpt lat="44.2867929" lon="11.0995954"><ele>290.0</ele><time>2026-04-26T09:21:47.097Z</time></trkpt><trkpt lat="44.2868397" lon="11.0994636"><ele>287.2</ele><time>2026-04-26T09:21:48.081Z</time></trkpt><trkpt lat="44.2868939" lon="11.0993547"><ele>284.4</ele><time>2026-04-26T09:21:49.078Z</time></trkpt><trkpt lat="44.2869689" lon="11.0992657"><ele>281.6</ele><time>2026-04-26T09:21:50.083Z</time></trkpt><trkpt lat="44.2870548" lon="11.0992385"><ele>278.8</ele><time>2026-04-26T09:21:51.094Z</time></trkpt><trkpt lat="44.2871594" lon="11.0992287"><ele>276.0</ele><time>2026-04-26T09:21:52.093Z</time></trkpt><trkpt lat="44.2872539" lon="11.0992149"><ele>276.5</ele><time>2026-04-26T09:21:53.079Z</time></trkpt><trkpt lat="44.2873393" lon="11.0992012"><ele>277.0</ele><time>2026-04-26T09:21:54.088Z</time></trkpt><trkpt lat="44.2874256" lon="11.0991809"><ele>277.5</ele><time>2026-04-26T09:21:55.082Z</time></trkpt><trkpt lat="44.287505" lon="11.0991345"><ele>278.0</ele><time>2026-04-26T09:21:56.084Z</time></trkpt><trkpt lat="44.2875793" lon="11.0990784"><ele>278.5</ele><time>2026-04-26T09:21:57.088Z</time></trkpt><trkpt lat="44.2876491" lon="11.099013"><ele>279.0</ele><time>2026-04-26T09:21:58.087Z</time></trkpt><trkpt lat="44.2877112" lon="11.098954"><ele>279.0</ele><time>2026-04-26T09:21:59.083Z</time></trkpt><trkpt lat="44.2877686" lon="11.0988645"><ele>279.0</ele><time>2026-04-26T09:22:00.086Z</time></trkpt><trkpt lat="44.2878157" lon="11.0987577"><ele>279.0</ele><time>2026-04-26T09:22:01.082Z</time></trkpt><trkpt lat="44.2878441" lon="11.0986324"><ele>279.0</ele><time>2026-04-26T09:22:02.098Z</time></trkpt><trkpt lat="44.2878568" lon="11.0985079"><ele>279.0</ele><time>2026-04-26T09:22:03.085Z</time></trkpt><trkpt lat="44.2878686" lon="11.0983791"><ele>277.59999999999997</ele><time>2026-04-26T09:22:04.079Z</time></trkpt><trkpt lat="44.2878756" lon="11.098247"><ele>276.2</ele><time>2026-04-26T09:22:05.085Z</time></trkpt><trkpt lat="44.2878801" lon="11.0981225"><ele>274.79999999999995</ele><time>2026-04-26T09:22:06.082Z</time></trkpt><trkpt lat="44.287886" lon="11.0979859"><ele>273.4</ele><time>2026-04-26T09:22:07.085Z</time></trkpt><trkpt lat="44.2878994" lon="11.0978475"><ele>272.0</ele><time>2026-04-26T09:22:08.084Z</time></trkpt><trkpt lat="44.2879186" lon="11.0977048"><ele>272.0</ele><time>2026-04-26T09:22:09.091Z</time></trkpt><trkpt lat="44.2879446" lon="11.0975617"><ele>272.0</ele><time>2026-04-26T09:22:10.089Z</time></trkpt><trkpt lat="44.287977" lon="11.0974125"><ele>272.0</ele><time>2026-04-26T09:22:11.087Z</time></trkpt><trkpt lat="44.2880138" lon="11.0972633"><ele>272.0</ele><time>2026-04-26T09:22:12.083Z</time></trkpt><trkpt lat="44.2880546" lon="11.0971066"><ele>272.0</ele><time>2026-04-26T09:22:13.086Z</time></trkpt><trkpt lat="44.2881074" lon="11.0969855"><ele>272.0</ele><time>2026-04-26T09:22:14.085Z</time></trkpt><trkpt lat="44.2881561" lon="11.096842"><ele>272.0</ele><time>2026-04-26T09:22:15.086Z</time></trkpt><trkpt lat="44.2881961" lon="11.0966944"><ele>272.0</ele><time>2026-04-26T09:22:16.085Z</time></trkpt><trkpt lat="44.2882316" lon="11.0965461"><ele>272.0</ele><time>2026-04-26T09:22:17.077Z</time></trkpt><trkpt lat="44.2882712" lon="11.0963995"><ele>272.0</ele><time>2026-04-26T09:22:18.081Z</time></trkpt><trkpt lat="44.2883067" lon="11.096255"><ele>272.0</ele><time>2026-04-26T09:22:19.089Z</time></trkpt><trkpt lat="44.2883389" lon="11.0961002"><ele>272.0</ele><time>2026-04-26T09:22:20.083Z</time></trkpt><trkpt lat="44.2883926" lon="11.0959642"><ele>272.0</ele><time>2026-04-26T09:22:21.086Z</time></trkpt><trkpt lat="44.2884592" lon="11.0958241"><ele>270.0</ele><time>2026-04-26T09:22:22.094Z</time></trkpt><trkpt lat="44.2885432" lon="11.09571"><ele>268.0</ele><time>2026-04-26T09:22:23.083Z</time></trkpt><trkpt lat="44.2886278" lon="11.0955928"><ele>266.0</ele><time>2026-04-26T09:22:24.089Z</time></trkpt><trkpt lat="44.2886957" lon="11.0954646"><ele>264.0</ele><time>2026-04-26T09:22:25.087Z</time></trkpt><trkpt lat="44.2887646" lon="11.095343"><ele>264.0</ele><time>2026-04-26T09:22:26.104Z</time></trkpt><trkpt lat="44.2887853" lon="11.0952001"><ele>264.0</ele><time>2026-04-26T09:22:27.087Z</time></trkpt><trkpt lat="44.2887956" lon="11.0950272"><ele>264.0</ele><time>2026-04-26T09:22:28.086Z</time></trkpt><trkpt lat="44.2888121" lon="11.0948712"><ele>264.0</ele><time>2026-04-26T09:22:29.083Z</time></trkpt><trkpt lat="44.2888325" lon="11.094711"><ele>262.0</ele><time>2026-04-26T09:22:30.085Z</time></trkpt><trkpt lat="44.2888557" lon="11.0945521"><ele>260.0</ele><time>2026-04-26T09:22:31.082Z</time></trkpt><trkpt lat="44.2888655" lon="11.0943907"><ele>258.0</ele><time>2026-04-26T09:22:32.082Z</time></trkpt><trkpt lat="44.2888634" lon="11.0942177"><ele>256.0</ele><time>2026-04-26T09:22:33.084Z</time></trkpt><trkpt lat="44.2888521" lon="11.0940603"><ele>254.75</ele><time>2026-04-26T09:22:34.089Z</time></trkpt><trkpt lat="44.2888451" lon="11.093931"><ele>253.5</ele><time>2026-04-26T09:22:35.081Z</time></trkpt><trkpt lat="44.2888251" lon="11.0937615"><ele>252.25</ele><time>2026-04-26T09:22:36.092Z</time></trkpt><trkpt lat="44.2888182" lon="11.0935982"><ele>251.0</ele><time>2026-04-26T09:22:37.082Z</time></trkpt><trkpt lat="44.2888557" lon="11.093434"><ele>251.0</ele><time>2026-04-26T09:22:38.084Z</time></trkpt><trkpt lat="44.2888811" lon="11.093283"><ele>251.00000000000003</ele><time>2026-04-26T09:22:39.082Z</time></trkpt><trkpt lat="44.2889078" lon="11.0931464"><ele>251.00000000000003</ele><time>2026-04-26T09:22:40.081Z</time></trkpt><trkpt lat="44.28892" lon="11.0930221"><ele>251.0</ele><time>2026-04-26T09:22:41.087Z</time></trkpt><trkpt lat="44.2888867" lon="11.0928979"><ele>251.0</ele><time>2026-04-26T09:22:42.09Z</time></trkpt><trkpt lat="44.2888472" lon="11.0927787"><ele>249.8</ele><time>2026-04-26T09:22:43.085Z</time></trkpt><trkpt lat="44.2887212" lon="11.09274"><ele>248.60000000000002</ele><time>2026-04-26T09:22:44.082Z</time></trkpt><trkpt lat="44.2886394" lon="11.0926815"><ele>247.4</ele><time>2026-04-26T09:22:45.078Z</time></trkpt><trkpt lat="44.2885377" lon="11.0927642"><ele>246.2</ele><time>2026-04-26T09:22:46.08Z</time></trkpt><trkpt lat="44.2884605" lon="11.0928554"><ele>245.0</ele><time>2026-04-26T09:22:47.091Z</time></trkpt><trkpt lat="44.2883788" lon="11.0929505"><ele>245.0</ele><time>2026-04-26T09:22:48.083Z</time></trkpt><trkpt lat="44.2883208" lon="11.0930663"><ele>245.0</ele><time>2026-04-26T09:22:49.083Z</time></trkpt><trkpt lat="44.288267" lon="11.0932015"><ele>245.0</ele><time>2026-04-26T09:22:50.081Z</time></trkpt><trkpt lat="44.2882146" lon="11.0933283"><ele>245.0</ele><time>2026-04-26T09:22:51.073Z</time></trkpt><trkpt lat="44.2881652" lon="11.0934391"><ele>245.0</ele><time>2026-04-26T09:22:52.086Z</time></trkpt><trkpt lat="44.2881062" lon="11.0935788"><ele>245.4</ele><time>2026-04-26T09:22:53.089Z</time></trkpt><trkpt lat="44.2880466" lon="11.0937097"><ele>245.8</ele><time>2026-04-26T09:22:54.088Z</time></trkpt><trkpt lat="44.287987" lon="11.0938461"><ele>246.2</ele><time>2026-04-26T09:22:55.084Z</time></trkpt><trkpt lat="44.2879311" lon="11.0939769"><ele>246.6</ele><time>2026-04-26T09:22:56.084Z</time></trkpt><trkpt lat="44.2878772" lon="11.0941134"><ele>247.0</ele><time>2026-04-26T09:22:57.085Z</time></trkpt><trkpt lat="44.287832" lon="11.0942528"><ele>247.0</ele><time>2026-04-26T09:22:58.085Z</time></trkpt><trkpt lat="44.2877695" lon="11.0943869"><ele>247.0</ele><time>2026-04-26T09:22:59.086Z</time></trkpt><trkpt lat="44.2876847" lon="11.0944967"><ele>247.0</ele><time>2026-04-26T09:23:00.097Z</time></trkpt><trkpt lat="44.2875805" lon="11.0945655"><ele>247.0</ele><time>2026-04-26T09:23:01.082Z</time></trkpt><trkpt lat="44.2875006" lon="11.0946154"><ele>247.0</ele><time>2026-04-26T09:23:02.084Z</time></trkpt><trkpt lat="44.2873842" lon="11.0946426"><ele>247.0</ele><time>2026-04-26T09:23:03.085Z</time></trkpt><trkpt lat="44.2872737" lon="11.0946766"><ele>247.0</ele><time>2026-04-26T09:23:04.084Z</time></trkpt><trkpt lat="44.2871615" lon="11.0946955"><ele>247.0</ele><time>2026-04-26T09:23:05.083Z</time></trkpt><trkpt lat="44.2870531" lon="11.094714"><ele>247.0</ele><time>2026-04-26T09:23:06.083Z</time></trkpt><trkpt lat="44.2869478" lon="11.0947448"><ele>247.0</ele><time>2026-04-26T09:23:07.081Z</time></trkpt><trkpt lat="44.2868392" lon="11.0947744"><ele>246.6</ele><time>2026-04-26T09:23:08.087Z</time></trkpt><trkpt lat="44.2867317" lon="11.0948088"><ele>246.2</ele><time>2026-04-26T09:23:09.084Z</time></trkpt><trkpt lat="44.2866172" lon="11.0948508"><ele>245.8</ele><time>2026-04-26T09:23:10.089Z</time></trkpt><trkpt lat="44.2865217" lon="11.0949201"><ele>245.4</ele><time>2026-04-26T09:23:11.087Z</time></trkpt><trkpt lat="44.2864344" lon="11.0950072"><ele>245.0</ele><time>2026-04-26T09:23:12.086Z</time></trkpt><trkpt lat="44.2863508" lon="11.0951219"><ele>242.4</ele><time>2026-04-26T09:23:13.083Z</time></trkpt><trkpt lat="44.2863011" lon="11.0952617"><ele>239.8</ele><time>2026-04-26T09:23:14.085Z</time></trkpt><trkpt lat="44.2862654" lon="11.0954088"><ele>237.2</ele><time>2026-04-26T09:23:15.094Z</time></trkpt><trkpt lat="44.2862434" lon="11.0955594"><ele>234.6</ele><time>2026-04-26T09:23:16.083Z</time></trkpt><trkpt lat="44.2862119" lon="11.0957125"><ele>232.0</ele><time>2026-04-26T09:23:17.087Z</time></trkpt><trkpt lat="44.2861763" lon="11.0958658"><ele>232.0</ele><time>2026-04-26T09:23:18.084Z</time></trkpt><trkpt lat="44.2860929" lon="11.0959931"><ele>232.0</ele><time>2026-04-26T09:23:19.085Z</time></trkpt><trkpt lat="44.2859876" lon="11.0960344"><ele>232.0</ele><time>2026-04-26T09:23:20.083Z</time></trkpt><trkpt lat="44.2858798" lon="11.0961048"><ele>232.0</ele><time>2026-04-26T09:23:21.08Z</time></trkpt><trkpt lat="44.285773" lon="11.0961637"><ele>232.0</ele><time>2026-04-26T09:23:22.083Z</time></trkpt><trkpt lat="44.2856564" lon="11.0962473"><ele>232.0</ele><time>2026-04-26T09:23:23.086Z</time></trkpt><trkpt lat="44.2855749" lon="11.0963295"><ele>232.0</ele><time>2026-04-26T09:23:24.086Z</time></trkpt><trkpt lat="44.2855087" lon="11.0964961"><ele>232.0</ele><time>2026-04-26T09:23:25.082Z</time></trkpt><trkpt lat="44.285442" lon="11.0966333"><ele>230.0</ele><time>2026-04-26T09:23:26.083Z</time></trkpt><trkpt lat="44.2853881" lon="11.0967767"><ele>228.0</ele><time>2026-04-26T09:23:27.086Z</time></trkpt><trkpt lat="44.2853262" lon="11.0969482"><ele>226.0</ele><time>2026-04-26T09:23:28.083Z</time></trkpt><trkpt lat="44.2852739" lon="11.0971034"><ele>224.0</ele><time>2026-04-26T09:23:29.087Z</time></trkpt><trkpt lat="44.2852174" lon="11.09726"><ele>224.0</ele><time>2026-04-26T09:23:30.071Z</time></trkpt><trkpt lat="44.2851475" lon="11.0974023"><ele>224.0</ele><time>2026-04-26T09:23:31.089Z</time></trkpt><trkpt lat="44.285078" lon="11.0975571"><ele>224.0</ele><time>2026-04-26T09:23:32.084Z</time></trkpt><trkpt lat="44.2850143" lon="11.0976962"><ele>224.0</ele><time>2026-04-26T09:23:33.096Z</time></trkpt><trkpt lat="44.2849539" lon="11.0978329"><ele>224.25</ele><time>2026-04-26T09:23:34.08Z</time></trkpt><trkpt lat="44.2848821" lon="11.0979638"><ele>224.5</ele><time>2026-04-26T09:23:35.081Z</time></trkpt><trkpt lat="44.2848254" lon="11.0980918"><ele>224.75</ele><time>2026-04-26T09:23:36.086Z</time></trkpt><trkpt lat="44.2847529" lon="11.0982299"><ele>225.0</ele><time>2026-04-26T09:23:37.083Z</time></trkpt><trkpt lat="44.284699" lon="11.0983639"><ele>223.75</ele><time>2026-04-26T09:23:38.086Z</time></trkpt><trkpt lat="44.2846254" lon="11.0985023"><ele>222.5</ele><time>2026-04-26T09:23:39.088Z</time></trkpt><trkpt lat="44.2845315" lon="11.0986037"><ele>221.25</ele><time>2026-04-26T09:23:40.086Z</time></trkpt><trkpt lat="44.2844345" lon="11.0987106"><ele>220.0</ele><time>2026-04-26T09:23:41.085Z</time></trkpt><trkpt lat="44.284346" lon="11.0988305"><ele>220.0</ele><time>2026-04-26T09:23:42.086Z</time></trkpt><trkpt lat="44.2842685" lon="11.098959"><ele>220.0</ele><time>2026-04-26T09:23:43.087Z</time></trkpt><trkpt lat="44.2841964" lon="11.0990757"><ele>220.0</ele><time>2026-04-26T09:23:44.084Z</time></trkpt><trkpt lat="44.2841231" lon="11.0991968"><ele>220.0</ele><time>2026-04-26T09:23:45.086Z</time></trkpt><trkpt lat="44.2840442" lon="11.0993212"><ele>220.2</ele><time>2026-04-26T09:23:46.086Z</time></trkpt><trkpt lat="44.2839744" lon="11.099457"><ele>220.4</ele><time>2026-04-26T09:23:47.081Z</time></trkpt><trkpt lat="44.283906" lon="11.099564"><ele>220.60000000000002</ele><time>2026-04-26T09:23:48.084Z</time></trkpt><trkpt lat="44.2838359" lon="11.0996961"><ele>220.8</ele><time>2026-04-26T09:23:49.123Z</time></trkpt><trkpt lat="44.2837706" lon="11.0998176"><ele>221.0</ele><time>2026-04-26T09:23:50.087Z</time></trkpt><trkpt lat="44.2837213" lon="11.099954"><ele>220.0</ele><time>2026-04-26T09:23:51.089Z</time></trkpt><trkpt lat="44.2836708" lon="11.1000843"><ele>219.00000000000003</ele><time>2026-04-26T09:23:52.08Z</time></trkpt><trkpt lat="44.2836248" lon="11.1002175"><ele>218.00000000000003</ele><time>2026-04-26T09:23:53.081Z</time></trkpt><trkpt lat="44.2835713" lon="11.1003486"><ele>217.0</ele><time>2026-04-26T09:23:54.091Z</time></trkpt><trkpt lat="44.2835419" lon="11.1005009"><ele>216.0</ele><time>2026-04-26T09:23:55.082Z</time></trkpt><trkpt lat="44.2834632" lon="11.1006202"><ele>216.20000000000002</ele><time>2026-04-26T09:23:56.079Z</time></trkpt><trkpt lat="44.2834796" lon="11.1007575"><ele>216.40000000000003</ele><time>2026-04-26T09:23:57.088Z</time></trkpt><trkpt lat="44.2834463" lon="11.1008988"><ele>216.6</ele><time>2026-04-26T09:23:58.081Z</time></trkpt><trkpt lat="44.2834215" lon="11.1010433"><ele>216.8</ele><time>2026-04-26T09:23:59.088Z</time></trkpt><trkpt lat="44.2834161" lon="11.1011976"><ele>217.0</ele><time>2026-04-26T09:24:00.083Z</time></trkpt><trkpt lat="44.2833961" lon="11.1013353"><ele>217.0</ele><time>2026-04-26T09:24:01.091Z</time></trkpt><trkpt lat="44.2833829" lon="11.1014681"><ele>217.0</ele><time>2026-04-26T09:24:02.08Z</time></trkpt><trkpt lat="44.283372" lon="11.1016121"><ele>217.0</ele><time>2026-04-26T09:24:03.08Z</time></trkpt><trkpt lat="44.2833722" lon="11.1017553"><ele>217.0</ele><time>2026-04-26T09:24:04.085Z</time></trkpt><trkpt lat="44.2833856" lon="11.1019006"><ele>217.0</ele><time>2026-04-26T09:24:05.081Z</time></trkpt><trkpt lat="44.2833888" lon="11.102031"><ele>216.6</ele><time>2026-04-26T09:24:06.081Z</time></trkpt><trkpt lat="44.2833887" lon="11.1021729"><ele>216.2</ele><time>2026-04-26T09:24:07.082Z</time></trkpt><trkpt lat="44.2833986" lon="11.1022976"><ele>215.8</ele><time>2026-04-26T09:24:08.085Z</time></trkpt><trkpt lat="44.2834132" lon="11.1024336"><ele>215.4</ele><time>2026-04-26T09:24:09.08Z</time></trkpt><trkpt lat="44.2834302" lon="11.1025646"><ele>215.0</ele><time>2026-04-26T09:24:10.086Z</time></trkpt><trkpt lat="44.2834384" lon="11.1026913"><ele>214.83333333333334</ele><time>2026-04-26T09:24:11.091Z</time></trkpt><trkpt lat="44.2834337" lon="11.1028086"><ele>214.66666666666669</ele><time>2026-04-26T09:24:12.086Z</time></trkpt><trkpt lat="44.2834371" lon="11.1029344"><ele>214.5</ele><time>2026-04-26T09:24:13.073Z</time></trkpt><trkpt lat="44.2834528" lon="11.1030705"><ele>214.33333333333331</ele><time>2026-04-26T09:24:14.083Z</time></trkpt><trkpt lat="44.2834478" lon="11.1031832"><ele>214.16666666666666</ele><time>2026-04-26T09:24:15.083Z</time></trkpt><trkpt lat="44.2834503" lon="11.1032934"><ele>214.0</ele><time>2026-04-26T09:24:16.08Z</time></trkpt><trkpt lat="44.2834451" lon="11.1034159"><ele>213.49999999999997</ele><time>2026-04-26T09:24:17.081Z</time></trkpt><trkpt lat="44.2834388" lon="11.1035279"><ele>213.0</ele><time>2026-04-26T09:24:18.082Z</time></trkpt><trkpt lat="44.2834288" lon="11.1036464"><ele>212.5</ele><time>2026-04-26T09:24:19.085Z</time></trkpt><trkpt lat="44.2834266" lon="11.1037655"><ele>212.0</ele><time>2026-04-26T09:24:20.082Z</time></trkpt><trkpt lat="44.2834169" lon="11.1038821"><ele>211.49999999999997</ele><time>2026-04-26T09:24:21.084Z</time></trkpt><trkpt lat="44.2834087" lon="11.1040019"><ele>211.0</ele><time>2026-04-26T09:24:22.084Z</time></trkpt><trkpt lat="44.2834028" lon="11.1041184"><ele>210.85714285714286</ele><time>2026-04-26T09:24:23.082Z</time></trkpt><trkpt lat="44.2833949" lon="11.1042384"><ele>210.71428571428572</ele><time>2026-04-26T09:24:24.085Z</time></trkpt><trkpt lat="44.2833613" lon="11.1043232"><ele>210.57142857142856</ele><time>2026-04-26T09:24:25.081Z</time></trkpt><trkpt lat="44.2833261" lon="11.1044236"><ele>210.42857142857144</ele><time>2026-04-26T09:24:26.084Z</time></trkpt><trkpt lat="44.283297" lon="11.1045208"><ele>210.28571428571428</ele><time>2026-04-26T09:24:27.086Z</time></trkpt><trkpt lat="44.2832757" lon="11.1046097"><ele>210.14285714285714</ele><time>2026-04-26T09:24:28.086Z</time></trkpt><trkpt lat="44.2832526" lon="11.1047032"><ele>210.0</ele><time>2026-04-26T09:24:29.078Z</time></trkpt><trkpt lat="44.2832048" lon="11.1048722"><ele>210.33333333333334</ele><time>2026-04-26T09:24:31.081Z</time></trkpt><trkpt lat="44.2832136" lon="11.1049803"><ele>210.66666666666669</ele><time>2026-04-26T09:24:32.085Z</time></trkpt><trkpt lat="44.2831848" lon="11.1050749"><ele>211.0</ele><time>2026-04-26T09:24:33.083Z</time></trkpt><trkpt lat="44.2831307" lon="11.1052299"><ele>211.33333333333334</ele><time>2026-04-26T09:24:35.082Z</time></trkpt><trkpt lat="44.2831055" lon="11.1053206"><ele>211.66666666666669</ele><time>2026-04-26T09:24:36.084Z</time></trkpt><trkpt lat="44.2830892" lon="11.1054068"><ele>212.0</ele><time>2026-04-26T09:24:37.083Z</time></trkpt><trkpt lat="44.2830589" lon="11.1054968"><ele>211.33333333333334</ele><time>2026-04-26T09:24:38.081Z</time></trkpt><trkpt lat="44.2830043" lon="11.1055618"><ele>210.66666666666669</ele><time>2026-04-26T09:24:39.081Z</time></trkpt><trkpt lat="44.2829553" lon="11.1056277"><ele>210.0</ele><time>2026-04-26T09:24:40.082Z</time></trkpt><trkpt lat="44.2828859" lon="11.1056909"><ele>209.33333333333331</ele><time>2026-04-26T09:24:41.084Z</time></trkpt><trkpt lat="44.2828399" lon="11.1058791"><ele>208.66666666666666</ele><time>2026-04-26T09:24:43.078Z</time></trkpt><trkpt lat="44.2828061" lon="11.1059696"><ele>208.0</ele><time>2026-04-26T09:24:44.085Z</time></trkpt><trkpt lat="44.282786" lon="11.1060681"><ele>207.85714285714286</ele><time>2026-04-26T09:24:45.08Z</time></trkpt><trkpt lat="44.2827608" lon="11.1061664"><ele>207.71428571428572</ele><time>2026-04-26T09:24:46.078Z</time></trkpt><trkpt lat="44.2827322" lon="11.1062516"><ele>207.57142857142858</ele><time>2026-04-26T09:24:47.082Z</time></trkpt><trkpt lat="44.2827235" lon="11.1063605"><ele>207.42857142857144</ele><time>2026-04-26T09:24:48.083Z</time></trkpt><trkpt lat="44.2827082" lon="11.1064591"><ele>207.28571428571428</ele><time>2026-04-26T09:24:49.08Z</time></trkpt><trkpt lat="44.2827127" lon="11.1065671"><ele>207.14285714285717</ele><time>2026-04-26T09:24:50.083Z</time></trkpt><trkpt lat="44.2826793" lon="11.1066671"><ele>207.0</ele><time>2026-04-26T09:24:51.086Z</time></trkpt><trkpt lat="44.2826558" lon="11.1067733"><ele>206.57142857142858</ele><time>2026-04-26T09:24:52.083Z</time></trkpt><trkpt lat="44.2826409" lon="11.1068765"><ele>206.14285714285714</ele><time>2026-04-26T09:24:53.081Z</time></trkpt><trkpt lat="44.2826239" lon="11.1069863"><ele>205.71428571428572</ele><time>2026-04-26T09:24:54.081Z</time></trkpt><trkpt lat="44.2825893" lon="11.1070734"><ele>205.28571428571428</ele><time>2026-04-26T09:24:55.09Z</time></trkpt><trkpt lat="44.2825619" lon="11.1071662"><ele>204.85714285714286</ele><time>2026-04-26T09:24:56.083Z</time></trkpt><trkpt lat="44.2825426" lon="11.1072645"><ele>204.42857142857144</ele><time>2026-04-26T09:24:57.083Z</time></trkpt><trkpt lat="44.2825301" lon="11.1073589"><ele>204.0</ele><time>2026-04-26T09:24:58.087Z</time></trkpt><trkpt lat="44.2825137" lon="11.1074525"><ele>203.57142857142858</ele><time>2026-04-26T09:24:59.092Z</time></trkpt><trkpt lat="44.2824955" lon="11.1075516"><ele>203.14285714285717</ele><time>2026-04-26T09:25:00.082Z</time></trkpt><trkpt lat="44.2824791" lon="11.1076539"><ele>202.71428571428572</ele><time>2026-04-26T09:25:01.088Z</time></trkpt><trkpt lat="44.2824614" lon="11.1077571"><ele>202.28571428571428</ele><time>2026-04-26T09:25:02.083Z</time></trkpt><trkpt lat="44.2824629" lon="11.1078534"><ele>201.85714285714286</ele><time>2026-04-26T09:25:03.08Z</time></trkpt><trkpt lat="44.2824362" lon="11.1079433"><ele>201.42857142857142</ele><time>2026-04-26T09:25:04.083Z</time></trkpt><trkpt lat="44.2824124" lon="11.1080416"><ele>201.0</ele><time>2026-04-26T09:25:05.082Z</time></trkpt><trkpt lat="44.2824037" lon="11.1081453"><ele>200.85714285714286</ele><time>2026-04-26T09:25:06.093Z</time></trkpt><trkpt lat="44.2823903" lon="11.1082518"><ele>200.71428571428572</ele><time>2026-04-26T09:25:07.082Z</time></trkpt><trkpt lat="44.2823835" lon="11.1083582"><ele>200.57142857142858</ele><time>2026-04-26T09:25:08.083Z</time></trkpt><trkpt lat="44.2823635" lon="11.1084428"><ele>200.42857142857144</ele><time>2026-04-26T09:25:09.079Z</time></trkpt><trkpt lat="44.2823411" lon="11.1085443"><ele>200.28571428571428</ele><time>2026-04-26T09:25:10.085Z</time></trkpt><trkpt lat="44.2823197" lon="11.1086484"><ele>200.14285714285717</ele><time>2026-04-26T09:25:11.085Z</time></trkpt><trkpt lat="44.2823045" lon="11.1087542"><ele>200.0</ele><time>2026-04-26T09:25:12.086Z</time></trkpt><trkpt lat="44.2822974" lon="11.108857"><ele>200.00000000000003</ele><time>2026-04-26T09:25:13.091Z</time></trkpt><trkpt lat="44.2822775" lon="11.1089585"><ele>200.0</ele><time>2026-04-26T09:25:14.081Z</time></trkpt><trkpt lat="44.2822586" lon="11.1090597"><ele>200.0</ele><time>2026-04-26T09:25:15.094Z</time></trkpt><trkpt lat="44.2822437" lon="11.1091657"><ele>200.0</ele><time>2026-04-26T09:25:16.079Z</time></trkpt><trkpt lat="44.28223" lon="11.1092661"><ele>200.00000000000003</ele><time>2026-04-26T09:25:17.083Z</time></trkpt><trkpt lat="44.282217" lon="11.1093663"><ele>200.0</ele><time>2026-04-26T09:25:18.083Z</time></trkpt><trkpt lat="44.2821913" lon="11.1094674"><ele>200.2857142857143</ele><time>2026-04-26T09:25:19.077Z</time></trkpt><trkpt lat="44.2821751" lon="11.1095652"><ele>200.57142857142858</ele><time>2026-04-26T09:25:20.084Z</time></trkpt><trkpt lat="44.2821684" lon="11.1096667"><ele>200.85714285714286</ele><time>2026-04-26T09:25:21.088Z</time></trkpt><trkpt lat="44.2821408" lon="11.1097598"><ele>201.14285714285717</ele><time>2026-04-26T09:25:22.082Z</time></trkpt><trkpt lat="44.2821247" lon="11.1098617"><ele>201.42857142857142</ele><time>2026-04-26T09:25:23.082Z</time></trkpt><trkpt lat="44.2821181" lon="11.1099556"><ele>201.71428571428572</ele><time>2026-04-26T09:25:24.083Z</time></trkpt><trkpt lat="44.282099" lon="11.1100476"><ele>202.0</ele><time>2026-04-26T09:25:25.081Z</time></trkpt><trkpt lat="44.2820828" lon="11.1101486"><ele>201.99999999999997</ele><time>2026-04-26T09:25:26.084Z</time></trkpt><trkpt lat="44.2820339" lon="11.1103264"><ele>202.0</ele><time>2026-04-26T09:25:28.084Z</time></trkpt><trkpt lat="44.2820195" lon="11.110414"><ele>202.0</ele><time>2026-04-26T09:25:29.085Z</time></trkpt><trkpt lat="44.2820039" lon="11.1105171"><ele>202.0</ele><time>2026-04-26T09:25:30.081Z</time></trkpt><trkpt lat="44.2819872" lon="11.1106153"><ele>201.99999999999997</ele><time>2026-04-26T09:25:31.073Z</time></trkpt><trkpt lat="44.2819813" lon="11.1107241"><ele>202.0</ele><time>2026-04-26T09:25:32.084Z</time></trkpt><trkpt lat="44.2819743" lon="11.1108316"><ele>201.28571428571428</ele><time>2026-04-26T09:25:33.085Z</time></trkpt><trkpt lat="44.2819707" lon="11.1109353"><ele>200.57142857142856</ele><time>2026-04-26T09:25:34.094Z</time></trkpt><trkpt lat="44.2819544" lon="11.1110239"><ele>199.85714285714286</ele><time>2026-04-26T09:25:35.086Z</time></trkpt><trkpt lat="44.2819408" lon="11.1111174"><ele>199.14285714285714</ele><time>2026-04-26T09:25:36.089Z</time></trkpt><trkpt lat="44.2819286" lon="11.111206"><ele>198.42857142857144</ele><time>2026-04-26T09:25:37.084Z</time></trkpt><trkpt lat="44.2819097" lon="11.1112921"><ele>197.71428571428572</ele><time>2026-04-26T09:25:38.087Z</time></trkpt><trkpt lat="44.2818871" lon="11.1113891"><ele>197.0</ele><time>2026-04-26T09:25:39.084Z</time></trkpt><trkpt lat="44.2818847" lon="11.1114862"><ele>196.50000000000003</ele><time>2026-04-26T09:25:40.082Z</time></trkpt><trkpt lat="44.2818678" lon="11.1115823"><ele>196.0</ele><time>2026-04-26T09:25:41.081Z</time></trkpt><trkpt lat="44.2818605" lon="11.1116757"><ele>195.5</ele><time>2026-04-26T09:25:42.089Z</time></trkpt><trkpt lat="44.2818172" lon="11.1117436"><ele>195.0</ele><time>2026-04-26T09:25:43.087Z</time></trkpt><trkpt lat="44.281801" lon="11.111831"><ele>194.50000000000003</ele><time>2026-04-26T09:25:44.081Z</time></trkpt><trkpt lat="44.2817728" lon="11.1120019"><ele>194.0</ele><time>2026-04-26T09:25:46.085Z</time></trkpt><trkpt lat="44.2817765" lon="11.1120978"><ele>194.00000000000003</ele><time>2026-04-26T09:25:47.084Z</time></trkpt><trkpt lat="44.2817847" lon="11.1122473"><ele>194.0</ele><time>2026-04-26T09:25:49.094Z</time></trkpt><trkpt lat="44.2817425" lon="11.1123172"><ele>194.0</ele><time>2026-04-26T09:25:51.084Z</time></trkpt><trkpt lat="44.2816638" lon="11.1122958"><ele>194.0</ele><time>2026-04-26T09:25:54.079Z</time></trkpt><trkpt lat="44.2815984" lon="11.112284"><ele>194.00000000000003</ele><time>2026-04-26T09:25:56.085Z</time></trkpt><trkpt lat="44.2815195" lon="11.1122454"><ele>194.0</ele><time>2026-04-26T09:25:58.083Z</time></trkpt><trkpt lat="44.2814909" lon="11.1121329"><ele>194.00000000000003</ele><time>2026-04-26T09:26:00.077Z</time></trkpt><trkpt lat="44.2814967" lon="11.1120099"><ele>194.0</ele><time>2026-04-26T09:26:02.086Z</time></trkpt><trkpt lat="44.2815097" lon="11.1119007"><ele>194.0</ele><time>2026-04-26T09:26:05.082Z</time></trkpt><trkpt lat="44.2814814" lon="11.1118046"><ele>194.0</ele><time>2026-04-26T09:26:09.095Z</time></trkpt><trkpt lat="44.281409" lon="11.1117721"><ele>194.00000000000003</ele><time>2026-04-26T09:26:12.077Z</time></trkpt><trkpt lat="44.2813399" lon="11.1117339"><ele>194.0</ele><time>2026-04-26T09:26:15.081Z</time></trkpt><trkpt lat="44.2812769" lon="11.1117445"><ele>197.0</ele><time>2026-04-26T09:26:20.083Z</time></trkpt><trkpt lat="44.2812169" lon="11.1117083"><ele>197.0</ele><time>2026-04-26T09:26:23.082Z</time></trkpt><trkpt lat="44.2811557" lon="11.1116526"><ele>197.0</ele><time>2026-04-26T09:26:26.088Z</time></trkpt></trkseg></trk></gpx>